<?xml version='1.0' encoding='UTF-8'?><gpx version="1.1" creator="JPX - https://github.com/jenetics/jpx" xmlns="http://www.topografix.com/GPX/1/1"><trk><trkseg><trkpt lat="40.914504831906186" lon="0.5125492007249866"><ele>30.0</ele><time>2026-05-03T13:09:15.997Z</time></trkpt><trkpt lat="40.914445151846735" lon="0.5124686761358266"><ele>30.0</ele><time>2026-05-03T13:09:16.997Z</time></trkpt><trkpt lat="40.914380717365965" lon="0.5124492112518939"><ele>30.0</ele><time>2026-05-03T13:09:18.998Z</time></trkpt><trkpt lat="40.91428534591831" lon="0.5123855174207748"><ele>30.0</ele><time>2026-05-03T13:09:20.998Z</time></trkpt><trkpt lat="40.91419679103939" lon="0.5123232352745091"><ele>30.0</ele><time>2026-05-03T13:09:22.998Z</time></trkpt><trkpt lat="40.91409895490029" lon="0.5122725638365666"><ele>28.666666666666668</ele><time>2026-05-03T13:09:24.999Z</time></trkpt><trkpt lat="40.91400668534506" lon="0.5121875291796465"><ele>27.333333333333332</ele><time>2026-05-03T13:09:26.999Z</time></trkpt><trkpt lat="40.91398022343993" lon="0.5121045953500245"><ele>26.0</ele><time>2026-05-03T13:09:27.999Z</time></trkpt><trkpt lat="40.91397862399651" lon="0.51201754047942"><ele>24.666666666666664</ele><time>2026-05-03T13:09:28.999Z</time></trkpt><trkpt lat="40.91396153884184" lon="0.5118773793558578"><ele>23.333333333333332</ele><time>2026-05-03T13:09:30.999Z</time></trkpt><trkpt lat="40.913945437762564" lon="0.5117944690016014"><ele>22.0</ele><time>2026-05-03T13:09:31.999Z</time></trkpt><trkpt lat="40.91392863577602" lon="0.5116445619432524"><ele>20.333333333333332</ele><time>2026-05-03T13:09:33.999Z</time></trkpt><trkpt lat="40.913923792865305" lon="0.5115302741072745"><ele>18.666666666666664</ele><time>2026-05-03T13:09:36Z</time></trkpt><trkpt lat="40.91390736710678" lon="0.5114343764596453"><ele>17.0</ele><time>2026-05-03T13:09:38Z</time></trkpt><trkpt lat="40.913893838568306" lon="0.5113359431598761"><ele>15.333333333333332</ele><time>2026-05-03T13:09:40Z</time></trkpt><trkpt lat="40.91385692250795" lon="0.511241403005694"><ele>13.666666666666666</ele><time>2026-05-03T13:09:43Z</time></trkpt><trkpt lat="40.91374894839267" lon="0.5111936278513707"><ele>12.0</ele><time>2026-05-03T13:09:46Z</time></trkpt><trkpt lat="40.913670266290694" lon="0.5112141119822472"><ele>12.0</ele><time>2026-05-03T13:09:47Z</time></trkpt><trkpt lat="40.9135923288538" lon="0.5112598213826572"><ele>12.0</ele><time>2026-05-03T13:09:48Z</time></trkpt><trkpt lat="40.91349572238023" lon="0.5113087339006962"><ele>12.0</ele><time>2026-05-03T13:09:49Z</time></trkpt><trkpt lat="40.9133819831219" lon="0.5113591392997681"><ele>12.0</ele><time>2026-05-03T13:09:50Z</time></trkpt><trkpt lat="40.91325238847393" lon="0.5114143272185026"><ele>12.0</ele><time>2026-05-03T13:09:51Z</time></trkpt><trkpt lat="40.91313519669545" lon="0.511465766004503"><ele>11.75</ele><time>2026-05-03T13:09:52Z</time></trkpt><trkpt lat="40.91302900293746" lon="0.511505811157292"><ele>11.5</ele><time>2026-05-03T13:09:53Z</time></trkpt><trkpt lat="40.91291288951269" lon="0.5115520412988589"><ele>11.25</ele><time>2026-05-03T13:09:54Z</time></trkpt><trkpt lat="40.91276442599146" lon="0.5116182436959921"><ele>11.0</ele><time>2026-05-03T13:09:55Z</time></trkpt><trkpt lat="40.91261689457749" lon="0.5116806644531526"><ele>11.200000000000001</ele><time>2026-05-03T13:09:56Z</time></trkpt><trkpt lat="40.912491283079106" lon="0.5117407704564968"><ele>11.4</ele><time>2026-05-03T13:09:57Z</time></trkpt><trkpt lat="40.91239020614157" lon="0.511804737281194"><ele>11.6</ele><time>2026-05-03T13:09:58Z</time></trkpt><trkpt lat="40.91230573795829" lon="0.5118539787080408"><ele>11.8</ele><time>2026-05-03T13:09:59Z</time></trkpt><trkpt lat="40.9122269265965" lon="0.511901283182012"><ele>12.0</ele><time>2026-05-03T13:10:00Z</time></trkpt><trkpt lat="40.91215352771589" lon="0.5119445793678715"><ele>11.999999999999998</ele><time>2026-05-03T13:10:01Z</time></trkpt><trkpt lat="40.912082577963375" lon="0.5119841203372681"><ele>12.0</ele><time>2026-05-03T13:10:02Z</time></trkpt><trkpt lat="40.912017157942714" lon="0.5120163373153946"><ele>12.0</ele><time>2026-05-03T13:10:03Z</time></trkpt><trkpt lat="40.91195435096441" lon="0.5120518491325281"><ele>12.0</ele><time>2026-05-03T13:10:04Z</time></trkpt><trkpt lat="40.911895376600285" lon="0.5120815082150528"><ele>12.0</ele><time>2026-05-03T13:10:05Z</time></trkpt><trkpt lat="40.91184182756183" lon="0.512127952956995"><ele>11.999999999999998</ele><time>2026-05-03T13:10:06Z</time></trkpt><trkpt lat="40.91179777598488" lon="0.5122469627074238"><ele>12.0</ele><time>2026-05-03T13:10:08Z</time></trkpt><trkpt lat="40.911818407529886" lon="0.5123261962694402"><ele>12.333333333333334</ele><time>2026-05-03T13:10:09Z</time></trkpt><trkpt lat="40.9118810790788" lon="0.5124852426922479"><ele>12.666666666666668</ele><time>2026-05-03T13:10:11Z</time></trkpt><trkpt lat="40.9119279955862" lon="0.5125792112263337"><ele>13.0</ele><time>2026-05-03T13:10:12Z</time></trkpt><trkpt lat="40.91197159554328" lon="0.5126624807865189"><ele>13.333333333333334</ele><time>2026-05-03T13:10:13Z</time></trkpt><trkpt lat="40.91198962216636" lon="0.5127451356436076"><ele>13.666666666666668</ele><time>2026-05-03T13:10:14Z</time></trkpt><trkpt lat="40.91201792161533" lon="0.5128298376362055"><ele>14.0</ele><time>2026-05-03T13:10:15Z</time></trkpt><trkpt lat="40.91205052574397" lon="0.5129080955554244"><ele>14.833333333333334</ele><time>2026-05-03T13:10:16Z</time></trkpt><trkpt lat="40.91207535802258" lon="0.5130505724464602"><ele>15.666666666666668</ele><time>2026-05-03T13:10:18Z</time></trkpt><trkpt lat="40.91202699647873" lon="0.5131558647065071"><ele>16.5</ele><time>2026-05-03T13:10:20Z</time></trkpt><trkpt lat="40.91195891444765" lon="0.5131841328098158"><ele>17.333333333333332</ele><time>2026-05-03T13:10:21Z</time></trkpt><trkpt lat="40.91189896498245" lon="0.5132500735645975"><ele>18.166666666666664</ele><time>2026-05-03T13:10:22Z</time></trkpt><trkpt lat="40.91184777229061" lon="0.5133412481212077"><ele>19.0</ele><time>2026-05-03T13:10:23Z</time></trkpt><trkpt lat="40.91181521132579" lon="0.5134540304251879"><ele>19.0</ele><time>2026-05-03T13:10:24Z</time></trkpt><trkpt lat="40.911795843872696" lon="0.5135842886875033"><ele>19.0</ele><time>2026-05-03T13:10:25Z</time></trkpt><trkpt lat="40.911775816929236" lon="0.5137521285471817"><ele>19.0</ele><time>2026-05-03T13:10:26Z</time></trkpt><trkpt lat="40.91174521890983" lon="0.5139170151500796"><ele>19.0</ele><time>2026-05-03T13:10:27Z</time></trkpt><trkpt lat="40.911722221872466" lon="0.5140436906706687"><ele>19.833333333333332</ele><time>2026-05-03T13:10:28Z</time></trkpt><trkpt lat="40.91170003145082" lon="0.5141528577254278"><ele>20.666666666666664</ele><time>2026-05-03T13:10:29Z</time></trkpt><trkpt lat="40.91170520680855" lon="0.5142657813778183"><ele>21.5</ele><time>2026-05-03T13:10:30Z</time></trkpt><trkpt lat="40.911722711763716" lon="0.514370469732668"><ele>22.333333333333332</ele><time>2026-05-03T13:10:31Z</time></trkpt><trkpt lat="40.91175129858584" lon="0.5144732273984297"><ele>23.166666666666668</ele><time>2026-05-03T13:10:32Z</time></trkpt><trkpt lat="40.9117879163826" lon="0.5145506266165966"><ele>24.0</ele><time>2026-05-03T13:10:33Z</time></trkpt><trkpt lat="40.91183729138276" lon="0.5146387709875516"><ele>24.0</ele><time>2026-05-03T13:10:34Z</time></trkpt><trkpt lat="40.91187030887285" lon="0.5147263462508381"><ele>24.0</ele><time>2026-05-03T13:10:35Z</time></trkpt><trkpt lat="40.91187860034666" lon="0.5148201917861623"><ele>24.0</ele><time>2026-05-03T13:10:36Z</time></trkpt><trkpt lat="40.911895362341035" lon="0.5149117515817847"><ele>24.0</ele><time>2026-05-03T13:10:37Z</time></trkpt><trkpt lat="40.91190924699403" lon="0.5150079384235635"><ele>24.0</ele><time>2026-05-03T13:10:38Z</time></trkpt><trkpt lat="40.911925664997725" lon="0.5151126149284784"><ele>24.0</ele><time>2026-05-03T13:10:39.001Z</time></trkpt><trkpt lat="40.91194725902716" lon="0.5152187299771959"><ele>24.0</ele><time>2026-05-03T13:10:40.001Z</time></trkpt><trkpt lat="40.911981184589" lon="0.5153286067079874"><ele>24.0</ele><time>2026-05-03T13:10:41.001Z</time></trkpt><trkpt lat="40.912034677156335" lon="0.5154514681830884"><ele>24.0</ele><time>2026-05-03T13:10:42.001Z</time></trkpt><trkpt lat="40.91209331518172" lon="0.5155922744834629"><ele>24.0</ele><time>2026-05-03T13:10:43.001Z</time></trkpt><trkpt lat="40.91215016328981" lon="0.5157338573640871"><ele>24.0</ele><time>2026-05-03T13:10:44.001Z</time></trkpt><trkpt lat="40.912203861624604" lon="0.5158528061294954"><ele>24.2</ele><time>2026-05-03T13:10:45.001Z</time></trkpt><trkpt lat="40.91224939381262" lon="0.5159489027148833"><ele>24.4</ele><time>2026-05-03T13:10:46.001Z</time></trkpt><trkpt lat="40.91231722546364" lon="0.5160465395505329"><ele>24.6</ele><time>2026-05-03T13:10:47.001Z</time></trkpt><trkpt lat="40.91239489751477" lon="0.5161554703503366"><ele>24.8</ele><time>2026-05-03T13:10:48.001Z</time></trkpt><trkpt lat="40.91246215170435" lon="0.5162511221745596"><ele>25.0</ele><time>2026-05-03T13:10:49.001Z</time></trkpt><trkpt lat="40.91251719822674" lon="0.5163648189839063"><ele>28.5</ele><time>2026-05-03T13:10:50.001Z</time></trkpt><trkpt lat="40.9125729148562" lon="0.5164775974738922"><ele>32.0</ele><time>2026-05-03T13:10:51.001Z</time></trkpt><trkpt lat="40.91265052863149" lon="0.5166445986602698"><ele>35.5</ele><time>2026-05-03T13:10:52.001Z</time></trkpt><trkpt lat="40.91271214189334" lon="0.5167736267616418"><ele>39.0</ele><time>2026-05-03T13:10:53.001Z</time></trkpt><trkpt lat="40.91275661365118" lon="0.5169005083857134"><ele>39.0</ele><time>2026-05-03T13:10:54.001Z</time></trkpt><trkpt lat="40.91279116020951" lon="0.5170122424209753"><ele>39.0</ele><time>2026-05-03T13:10:55.001Z</time></trkpt><trkpt lat="40.91283721499182" lon="0.5171182831243335"><ele>39.0</ele><time>2026-05-03T13:10:56.001Z</time></trkpt><trkpt lat="40.91287601641834" lon="0.5172022820751616"><ele>39.0</ele><time>2026-05-03T13:10:57.001Z</time></trkpt><trkpt lat="40.91294381840064" lon="0.51733343096241"><ele>39.0</ele><time>2026-05-03T13:10:59.001Z</time></trkpt><trkpt lat="40.91298040694643" lon="0.5174107594840068"><ele>39.0</ele><time>2026-05-03T13:11:00.001Z</time></trkpt><trkpt lat="40.91304768189696" lon="0.5175609985957301"><ele>37.5</ele><time>2026-05-03T13:11:02.001Z</time></trkpt><trkpt lat="40.91311288653888" lon="0.51771625288028"><ele>36.0</ele><time>2026-05-03T13:11:04.001Z</time></trkpt><trkpt lat="40.91316336482895" lon="0.5178240211880047"><ele>34.5</ele><time>2026-05-03T13:11:05.001Z</time></trkpt><trkpt lat="40.91323091047433" lon="0.5179538948009905"><ele>33.0</ele><time>2026-05-03T13:11:06.001Z</time></trkpt><trkpt lat="40.913299269254225" lon="0.5180683419870613"><ele>32.833333333333336</ele><time>2026-05-03T13:11:07.001Z</time></trkpt><trkpt lat="40.91335606059403" lon="0.5181607499321683"><ele>32.666666666666664</ele><time>2026-05-03T13:11:08.001Z</time></trkpt><trkpt lat="40.913393561806664" lon="0.5182585052300742"><ele>32.5</ele><time>2026-05-03T13:11:09.001Z</time></trkpt><trkpt lat="40.913408771779714" lon="0.5183533917931465"><ele>32.33333333333333</ele><time>2026-05-03T13:11:10.001Z</time></trkpt><trkpt lat="40.9134249807883" lon="0.518442605784934"><ele>32.166666666666664</ele><time>2026-05-03T13:11:11.001Z</time></trkpt><trkpt lat="40.91344703486725" lon="0.5185574910860442"><ele>32.0</ele><time>2026-05-03T13:11:12.001Z</time></trkpt><trkpt lat="40.91347606688499" lon="0.5186953834351473"><ele>33.33333333333333</ele><time>2026-05-03T13:11:13.001Z</time></trkpt><trkpt lat="40.913497240573854" lon="0.5188116352352421"><ele>34.666666666666664</ele><time>2026-05-03T13:11:14.001Z</time></trkpt><trkpt lat="40.913538337108896" lon="0.5189242250991304"><ele>36.0</ele><time>2026-05-03T13:11:15.001Z</time></trkpt><trkpt lat="40.91357747317262" lon="0.5190271437210453"><ele>37.333333333333336</ele><time>2026-05-03T13:11:16.001Z</time></trkpt><trkpt lat="40.91362950862319" lon="0.5190964007291198"><ele>38.66666666666667</ele><time>2026-05-03T13:11:17Z</time></trkpt><trkpt lat="40.91369361091689" lon="0.5191864227186141"><ele>40.0</ele><time>2026-05-03T13:11:18Z</time></trkpt><trkpt lat="40.91376579377517" lon="0.5192729952930795"><ele>40.0</ele><time>2026-05-03T13:11:19Z</time></trkpt><trkpt lat="40.913848346561764" lon="0.519364062432744"><ele>40.0</ele><time>2026-05-03T13:11:20Z</time></trkpt><trkpt lat="40.913922264228724" lon="0.5194516189570874"><ele>40.0</ele><time>2026-05-03T13:11:21Z</time></trkpt><trkpt lat="40.9139823361704" lon="0.5195406938182102"><ele>40.0</ele><time>2026-05-03T13:11:22Z</time></trkpt><trkpt lat="40.91403806939542" lon="0.5196504887776333"><ele>40.0</ele><time>2026-05-03T13:11:23Z</time></trkpt><trkpt lat="40.91409595586109" lon="0.5197860387426058"><ele>40.4</ele><time>2026-05-03T13:11:24Z</time></trkpt><trkpt lat="40.914167239991315" lon="0.5199173737537298"><ele>40.8</ele><time>2026-05-03T13:11:25Z</time></trkpt><trkpt lat="40.914231679910145" lon="0.5200183441452667"><ele>41.2</ele><time>2026-05-03T13:11:26Z</time></trkpt><trkpt lat="40.91429227900199" lon="0.5201116723307075"><ele>41.6</ele><time>2026-05-03T13:11:27Z</time></trkpt><trkpt lat="40.91434984141893" lon="0.5202043946931951"><ele>42.0</ele><time>2026-05-03T13:11:28Z</time></trkpt><trkpt lat="40.91437357284109" lon="0.520323215038095"><ele>43.0</ele><time>2026-05-03T13:11:29Z</time></trkpt><trkpt lat="40.91440414723606" lon="0.5204277665283338"><ele>44.0</ele><time>2026-05-03T13:11:30Z</time></trkpt><trkpt lat="40.91443968550077" lon="0.5205047696021218"><ele>45.0</ele><time>2026-05-03T13:11:31Z</time></trkpt><trkpt lat="40.91449362869306" lon="0.5205862146384711"><ele>46.0</ele><time>2026-05-03T13:11:32Z</time></trkpt><trkpt lat="40.914557207166226" lon="0.5206724505952671"><ele>47.0</ele><time>2026-05-03T13:11:33Z</time></trkpt><trkpt lat="40.914657612399246" lon="0.5207592680343885"><ele>48.0</ele><time>2026-05-03T13:11:34Z</time></trkpt><trkpt lat="40.91473316620901" lon="0.5208216681277023"><ele>48.0</ele><time>2026-05-03T13:11:35Z</time></trkpt><trkpt lat="40.914782584811796" lon="0.5208886369676266"><ele>48.0</ele><time>2026-05-03T13:11:36Z</time></trkpt><trkpt lat="40.91480391061656" lon="0.5209730963355648"><ele>48.0</ele><time>2026-05-03T13:11:37Z</time></trkpt><trkpt lat="40.91489674272736" lon="0.5210960960316442"><ele>48.0</ele><time>2026-05-03T13:11:39Z</time></trkpt><trkpt lat="40.91493769709662" lon="0.5211614843878971"><ele>48.0</ele><time>2026-05-03T13:11:40Z</time></trkpt><trkpt lat="40.914999104405084" lon="0.5212332459798357"><ele>48.0</ele><time>2026-05-03T13:11:41Z</time></trkpt><trkpt lat="40.915010390127414" lon="0.5213250001736845"><ele>47.599999999999994</ele><time>2026-05-03T13:11:42Z</time></trkpt><trkpt lat="40.915015425404945" lon="0.5214287238088753"><ele>47.199999999999996</ele><time>2026-05-03T13:11:43Z</time></trkpt><trkpt lat="40.91503601466694" lon="0.5215725034386988"><ele>46.8</ele><time>2026-05-03T13:11:44Z</time></trkpt><trkpt lat="40.915050695388366" lon="0.5216893707223818"><ele>46.4</ele><time>2026-05-03T13:11:45Z</time></trkpt><trkpt lat="40.915063112601" lon="0.5218271127263877"><ele>46.0</ele><time>2026-05-03T13:11:46Z</time></trkpt><trkpt lat="40.91505313759653" lon="0.5219317681197523"><ele>46.0</ele><time>2026-05-03T13:11:47Z</time></trkpt><trkpt lat="40.91502743785047" lon="0.5220451002929153"><ele>46.0</ele><time>2026-05-03T13:11:48Z</time></trkpt><trkpt lat="40.915020075176045" lon="0.5221463581892494"><ele>46.0</ele><time>2026-05-03T13:11:49Z</time></trkpt><trkpt lat="40.91504029896573" lon="0.5222327279446609"><ele>46.0</ele><time>2026-05-03T13:11:50Z</time></trkpt><trkpt lat="40.91507046361667" lon="0.5223412538726773"><ele>46.0</ele><time>2026-05-03T13:11:51Z</time></trkpt><trkpt lat="40.91507115591684" lon="0.5224519407232607"><ele>46.0</ele><time>2026-05-03T13:11:52Z</time></trkpt><trkpt lat="40.91505272588455" lon="0.5225704002798661"><ele>47.25</ele><time>2026-05-03T13:11:53Z</time></trkpt><trkpt lat="40.91501080150093" lon="0.5227542232490786"><ele>48.5</ele><time>2026-05-03T13:11:54Z</time></trkpt><trkpt lat="40.91495479758393" lon="0.5229072912473746"><ele>49.75</ele><time>2026-05-03T13:11:55Z</time></trkpt><trkpt lat="40.91490626184741" lon="0.5230404231791753"><ele>51.0</ele><time>2026-05-03T13:11:56Z</time></trkpt><trkpt lat="40.91489100118247" lon="0.523158051350273"><ele>51.0</ele><time>2026-05-03T13:11:57Z</time></trkpt><trkpt lat="40.914901436201184" lon="0.5232510708044439"><ele>51.0</ele><time>2026-05-03T13:11:58Z</time></trkpt><trkpt lat="40.91493304399094" lon="0.5233957040293897"><ele>51.0</ele><time>2026-05-03T13:11:59Z</time></trkpt><trkpt lat="40.91498169441749" lon="0.5235336755840723"><ele>51.0</ele><time>2026-05-03T13:12:00Z</time></trkpt><trkpt lat="40.91501134128631" lon="0.5236552967105278"><ele>51.0</ele><time>2026-05-03T13:12:01Z</time></trkpt><trkpt lat="40.915014505544605" lon="0.5237625738516244"><ele>51.333333333333336</ele><time>2026-05-03T13:12:02Z</time></trkpt><trkpt lat="40.91501823501419" lon="0.5238589670011218"><ele>51.66666666666667</ele><time>2026-05-03T13:12:03Z</time></trkpt><trkpt lat="40.914964221499716" lon="0.5239604874117855"><ele>52.0</ele><time>2026-05-03T13:12:05Z</time></trkpt><trkpt lat="40.9148675537746" lon="0.5239604989984362"><ele>52.333333333333336</ele><time>2026-05-03T13:12:07Z</time></trkpt><trkpt lat="40.9148063658769" lon="0.5239980339521798"><ele>52.66666666666667</ele><time>2026-05-03T13:12:08Z</time></trkpt><trkpt lat="40.91475477011805" lon="0.5240491328481353"><ele>53.0</ele><time>2026-05-03T13:12:09Z</time></trkpt><trkpt lat="40.91470076611821" lon="0.5241301790586262"><ele>53.00000000000001</ele><time>2026-05-03T13:12:11Z</time></trkpt><trkpt lat="40.9146453177457" lon="0.5240692502894461"><ele>53.0</ele><time>2026-05-03T13:12:13Z</time></trkpt><trkpt lat="40.91472309452434" lon="0.5239385631180511"><ele>53.0</ele><time>2026-05-03T13:12:15Z</time></trkpt><trkpt lat="40.91476393935675" lon="0.5238683163339629"><ele>53.0</ele><time>2026-05-03T13:12:16Z</time></trkpt><trkpt lat="40.91479591456023" lon="0.5237575700977686"><ele>53.00000000000001</ele><time>2026-05-03T13:12:18Z</time></trkpt><trkpt lat="40.914717085759584" lon="0.5237235091278275"><ele>53.0</ele><time>2026-05-03T13:12:21Z</time></trkpt><trkpt lat="40.91463957824717" lon="0.5238674717703817"><ele>53.00000000000001</ele><time>2026-05-03T13:12:23Z</time></trkpt><trkpt lat="40.914588487993115" lon="0.523930381471517"><ele>53.0</ele><time>2026-05-03T13:12:24Z</time></trkpt><trkpt lat="40.914526572660485" lon="0.523993373084772"><ele>53.0</ele><time>2026-05-03T13:12:25Z</time></trkpt><trkpt lat="40.91446583968756" lon="0.5240582253493898"><ele>53.0</ele><time>2026-05-03T13:12:26Z</time></trkpt><trkpt lat="40.914428244389626" lon="0.5241421767220557"><ele>53.00000000000001</ele><time>2026-05-03T13:12:27Z</time></trkpt><trkpt lat="40.914412635641995" lon="0.5242313130115733"><ele>53.0</ele><time>2026-05-03T13:12:28Z</time></trkpt><trkpt lat="40.91439491826728" lon="0.5243515804630716"><ele>53.0</ele><time>2026-05-03T13:12:29Z</time></trkpt><trkpt lat="40.91438845071843" lon="0.5244940524183962"><ele>53.0</ele><time>2026-05-03T13:12:30Z</time></trkpt><trkpt lat="40.914370732207445" lon="0.5246682685992676"><ele>53.0</ele><time>2026-05-03T13:12:31Z</time></trkpt><trkpt lat="40.914367709309296" lon="0.5248038640527327"><ele>53.0</ele><time>2026-05-03T13:12:32Z</time></trkpt><trkpt lat="40.91436388874664" lon="0.5249065545029588"><ele>53.0</ele><time>2026-05-03T13:12:33Z</time></trkpt><trkpt lat="40.91436729364261" lon="0.5250149863685365"><ele>53.66666666666667</ele><time>2026-05-03T13:12:34Z</time></trkpt><trkpt lat="40.91436189172043" lon="0.5251465719749346"><ele>54.333333333333336</ele><time>2026-05-03T13:12:35Z</time></trkpt><trkpt lat="40.9143563367952" lon="0.5252770778990171"><ele>55.0</ele><time>2026-05-03T13:12:36Z</time></trkpt><trkpt lat="40.91436946111085" lon="0.5253918396562706"><ele>55.66666666666667</ele><time>2026-05-03T13:12:37Z</time></trkpt><trkpt lat="40.91437011933689" lon="0.5254758813040534"><ele>56.333333333333336</ele><time>2026-05-03T13:12:38Z</time></trkpt><trkpt lat="40.91435300006099" lon="0.5255877084654366"><ele>57.0</ele><time>2026-05-03T13:12:39Z</time></trkpt><trkpt lat="40.91432545581221" lon="0.5257051522917456"><ele>57.6</ele><time>2026-05-03T13:12:40Z</time></trkpt><trkpt lat="40.91429816403582" lon="0.5258195032010847"><ele>58.2</ele><time>2026-05-03T13:12:41Z</time></trkpt><trkpt lat="40.91427736371921" lon="0.5259026612226415"><ele>58.8</ele><time>2026-05-03T13:12:42Z</time></trkpt><trkpt lat="40.91428590409158" lon="0.5261032696396095"><ele>59.4</ele><time>2026-05-03T13:12:44Z</time></trkpt><trkpt lat="40.91428130484795" lon="0.5262598930600119"><ele>60.0</ele><time>2026-05-03T13:12:45Z</time></trkpt><trkpt lat="40.914267395839694" lon="0.5264141619357038"><ele>63.833333333333336</ele><time>2026-05-03T13:12:46Z</time></trkpt><trkpt lat="40.914233150836566" lon="0.5264978458588333"><ele>67.66666666666667</ele><time>2026-05-03T13:12:47Z</time></trkpt><trkpt lat="40.91421380367867" lon="0.526580178228923"><ele>71.5</ele><time>2026-05-03T13:12:48Z</time></trkpt><trkpt lat="40.91418469744871" lon="0.5266599781520699"><ele>75.33333333333334</ele><time>2026-05-03T13:12:49Z</time></trkpt><trkpt lat="40.91415338985375" lon="0.5267630110361541"><ele>79.16666666666667</ele><time>2026-05-03T13:12:50Z</time></trkpt><trkpt lat="40.91413319380071" lon="0.5268690467871808"><ele>83.0</ele><time>2026-05-03T13:12:51Z</time></trkpt><trkpt lat="40.91414543142639" lon="0.5270443665975808"><ele>83.33333333333334</ele><time>2026-05-03T13:12:53Z</time></trkpt><trkpt lat="40.91417395591854" lon="0.5271357276748246"><ele>83.66666666666667</ele><time>2026-05-03T13:12:54Z</time></trkpt><trkpt lat="40.914175379652725" lon="0.5272212001184571"><ele>84.0</ele><time>2026-05-03T13:12:55Z</time></trkpt><trkpt lat="40.91421728025498" lon="0.5273017881110601"><ele>84.33333333333333</ele><time>2026-05-03T13:12:57Z</time></trkpt><trkpt lat="40.91425299062779" lon="0.5274256966698818"><ele>84.66666666666666</ele><time>2026-05-03T13:12:59Z</time></trkpt><trkpt lat="40.914249215981705" lon="0.5275481567039421"><ele>85.0</ele><time>2026-05-03T13:13:00Z</time></trkpt><trkpt lat="40.914237013820916" lon="0.5276775644263862"><ele>85.0</ele><time>2026-05-03T13:13:01Z</time></trkpt><trkpt lat="40.91422243320983" lon="0.5277639079991585"><ele>85.0</ele><time>2026-05-03T13:13:02Z</time></trkpt><trkpt lat="40.914217312334024" lon="0.5278896589554459"><ele>85.0</ele><time>2026-05-03T13:13:03Z</time></trkpt><trkpt lat="40.91421899561913" lon="0.5279759920914371"><ele>85.0</ele><time>2026-05-03T13:13:04Z</time></trkpt><trkpt lat="40.91421037736541" lon="0.5280836619713903"><ele>85.0</ele><time>2026-05-03T13:13:05.001Z</time></trkpt><trkpt lat="40.914187429780284" lon="0.5282127777789364"><ele>85.0</ele><time>2026-05-03T13:13:07Z</time></trkpt><trkpt lat="40.914142747144126" lon="0.5283209792111796"><ele>86.33333333333333</ele><time>2026-05-03T13:13:09Z</time></trkpt><trkpt lat="40.91412781103418" lon="0.5284032438296397"><ele>87.66666666666666</ele><time>2026-05-03T13:13:10Z</time></trkpt><trkpt lat="40.91407307753659" lon="0.5285293398044929"><ele>89.0</ele><time>2026-05-03T13:13:12Z</time></trkpt><trkpt lat="40.91404711990029" lon="0.5286357185653037"><ele>90.33333333333333</ele><time>2026-05-03T13:13:14Z</time></trkpt><trkpt lat="40.91404076679165" lon="0.5287930306144382"><ele>91.66666666666667</ele><time>2026-05-03T13:13:16Z</time></trkpt><trkpt lat="40.914030655181485" lon="0.5288807170577293"><ele>93.0</ele><time>2026-05-03T13:13:17Z</time></trkpt><trkpt lat="40.91398843282707" lon="0.5290203463971861"><ele>94.80000000000001</ele><time>2026-05-03T13:13:19Z</time></trkpt><trkpt lat="40.91394977607066" lon="0.5291205185689529"><ele>96.6</ele><time>2026-05-03T13:13:20Z</time></trkpt><trkpt lat="40.913922591526195" lon="0.5292624592321326"><ele>98.4</ele><time>2026-05-03T13:13:22Z</time></trkpt><trkpt lat="40.91392585320878" lon="0.5293815624223792"><ele>100.19999999999999</ele><time>2026-05-03T13:13:24Z</time></trkpt><trkpt lat="40.91392789771432" lon="0.5294784369474752"><ele>102.0</ele><time>2026-05-03T13:13:27Z</time></trkpt><trkpt lat="40.91405336444919" lon="0.5297218400720025"><ele>103.39999999999999</ele><time>2026-05-03T13:13:40Z</time></trkpt><trkpt lat="40.9140385084947" lon="0.5298138316661961"><ele>104.8</ele><time>2026-05-03T13:13:41Z</time></trkpt><trkpt lat="40.91400342812839" lon="0.5299115789647485"><ele>106.2</ele><time>2026-05-03T13:13:42Z</time></trkpt><trkpt lat="40.91389715818839" lon="0.5299575199357974"><ele>107.6</ele><time>2026-05-03T13:13:44Z</time></trkpt><trkpt lat="40.913800077540515" lon="0.5298809844287905"><ele>109.0</ele><time>2026-05-03T13:13:46Z</time></trkpt><trkpt lat="40.913780272224926" lon="0.5297667100061009"><ele>109.00000000000001</ele><time>2026-05-03T13:13:48Z</time></trkpt><trkpt lat="40.913722525853785" lon="0.5296215246224525"><ele>109.0</ele><time>2026-05-03T13:13:50Z</time></trkpt><trkpt lat="40.91368663465019" lon="0.5295177434210551"><ele>109.0</ele><time>2026-05-03T13:13:52Z</time></trkpt><trkpt lat="40.91366467569665" lon="0.5294131519906022"><ele>109.0</ele><time>2026-05-03T13:13:54Z</time></trkpt><trkpt lat="40.91366247319161" lon="0.5293075672484672"><ele>109.00000000000001</ele><time>2026-05-03T13:13:56Z</time></trkpt><trkpt lat="40.91361857907806" lon="0.5293879626986329"><ele>109.0</ele><time>2026-05-03T13:14:01Z</time></trkpt><trkpt lat="40.91364877637135" lon="0.5294924628765857"><ele>109.00000000000001</ele><time>2026-05-03T13:14:03Z</time></trkpt><trkpt lat="40.913667182339196" lon="0.5296213350266041"><ele>109.0</ele><time>2026-05-03T13:14:05Z</time></trkpt><trkpt lat="40.91363058461463" lon="0.529701737564762"><ele>109.0</ele><time>2026-05-03T13:14:07Z</time></trkpt><trkpt lat="40.91357418642052" lon="0.5297528151132286"><ele>109.0</ele><time>2026-05-03T13:14:29Z</time></trkpt><trkpt lat="40.91351455993995" lon="0.5296740059801099"><ele>109.00000000000001</ele><time>2026-05-03T13:14:32Z</time></trkpt><trkpt lat="40.913472595989994" lon="0.5295374588920494"><ele>109.0</ele><time>2026-05-03T13:14:34Z</time></trkpt><trkpt lat="40.913476466814416" lon="0.5294056818945635"><ele>107.83333333333334</ele><time>2026-05-03T13:14:36Z</time></trkpt><trkpt lat="40.9134668758604" lon="0.5292928590918975"><ele>106.66666666666667</ele><time>2026-05-03T13:14:38Z</time></trkpt><trkpt lat="40.91345834384771" lon="0.5291740941868077"><ele>105.5</ele><time>2026-05-03T13:14:40Z</time></trkpt><trkpt lat="40.91346629644484" lon="0.5290683601602785"><ele>104.33333333333334</ele><time>2026-05-03T13:14:42Z</time></trkpt><trkpt lat="40.913463453385425" lon="0.5289668566712284"><ele>103.16666666666667</ele><time>2026-05-03T13:14:44Z</time></trkpt><trkpt lat="40.913451348220015" lon="0.5288749061110823"><ele>102.0</ele><time>2026-05-03T13:14:46Z</time></trkpt><trkpt lat="40.91344626181765" lon="0.5287713195456891"><ele>103.33333333333333</ele><time>2026-05-03T13:14:48Z</time></trkpt><trkpt lat="40.91345237042582" lon="0.5286819117798335"><ele>104.66666666666666</ele><time>2026-05-03T13:14:50Z</time></trkpt><trkpt lat="40.91347131422541" lon="0.5285824228960102"><ele>106.0</ele><time>2026-05-03T13:14:52Z</time></trkpt><trkpt lat="40.913455087891755" lon="0.5284919848985213"><ele>107.33333333333333</ele><time>2026-05-03T13:14:54Z</time></trkpt><trkpt lat="40.91340069544874" lon="0.5283935080134051"><ele>108.66666666666666</ele><time>2026-05-03T13:14:55.999Z</time></trkpt><trkpt lat="40.91336500563101" lon="0.5283062448455629"><ele>110.0</ele><time>2026-05-03T13:14:58.999Z</time></trkpt><trkpt lat="40.91332817656521" lon="0.5282151119808004"><ele>110.0</ele><time>2026-05-03T13:15:00.999Z</time></trkpt><trkpt lat="40.913291381700795" lon="0.5280792870576843"><ele>110.0</ele><time>2026-05-03T13:15:02.999Z</time></trkpt><trkpt lat="40.91323916968839" lon="0.5279491775529035"><ele>110.0</ele><time>2026-05-03T13:15:04.999Z</time></trkpt><trkpt lat="40.91321830285161" lon="0.5278186174028869"><ele>110.0</ele><time>2026-05-03T13:15:06.999Z</time></trkpt><trkpt lat="40.9131973659112" lon="0.5277334004969775"><ele>110.0</ele><time>2026-05-03T13:15:08.999Z</time></trkpt><trkpt lat="40.913254580729166" lon="0.5275924736139499"><ele>109.33333333333333</ele><time>2026-05-03T13:15:11Z</time></trkpt><trkpt lat="40.91328497577707" lon="0.5275038163622857"><ele>108.66666666666666</ele><time>2026-05-03T13:15:12Z</time></trkpt><trkpt lat="40.91330167490611" lon="0.527423102250322"><ele>108.0</ele><time>2026-05-03T13:15:13Z</time></trkpt><trkpt lat="40.913314916469815" lon="0.527246951063521"><ele>107.33333333333334</ele><time>2026-05-03T13:15:15Z</time></trkpt><trkpt lat="40.913297499124035" lon="0.5271281788164713"><ele>106.66666666666667</ele><time>2026-05-03T13:15:16Z</time></trkpt><trkpt lat="40.9132793585214" lon="0.5270255646424077"><ele>106.0</ele><time>2026-05-03T13:15:17Z</time></trkpt><trkpt lat="40.913272097104866" lon="0.5269361094328929"><ele>105.83333333333334</ele><time>2026-05-03T13:15:18Z</time></trkpt><trkpt lat="40.913273798028904" lon="0.5268141579004323"><ele>105.66666666666667</ele><time>2026-05-03T13:15:20Z</time></trkpt><trkpt lat="40.91329241494676" lon="0.526725696676163"><ele>105.5</ele><time>2026-05-03T13:15:22Z</time></trkpt><trkpt lat="40.91330437591587" lon="0.5266368443914972"><ele>105.33333333333334</ele><time>2026-05-03T13:15:24Z</time></trkpt><trkpt lat="40.91335784793757" lon="0.5265343530707274"><ele>105.16666666666667</ele><time>2026-05-03T13:15:26Z</time></trkpt><trkpt lat="40.91339899265388" lon="0.5264295335137694"><ele>105.0</ele><time>2026-05-03T13:15:28Z</time></trkpt><trkpt lat="40.913458799673315" lon="0.526324898038564"><ele>106.0</ele><time>2026-05-03T13:15:30Z</time></trkpt><trkpt lat="40.91348198940403" lon="0.5262275665795213"><ele>107.0</ele><time>2026-05-03T13:15:32Z</time></trkpt><trkpt lat="40.91341830678614" lon="0.5261106594963025"><ele>108.0</ele><time>2026-05-03T13:15:35Z</time></trkpt><trkpt lat="40.91334326347105" lon="0.5261049502048051"><ele>109.0</ele><time>2026-05-03T13:15:38Z</time></trkpt><trkpt lat="40.913279681140196" lon="0.5261022437205788"><ele>110.0</ele><time>2026-05-03T13:15:41Z</time></trkpt><trkpt lat="40.91327727146474" lon="0.5260007704449037"><ele>111.0</ele><time>2026-05-03T13:15:44Z</time></trkpt><trkpt lat="40.91319533178509" lon="0.5259488517023736"><ele>111.0</ele><time>2026-05-03T13:15:46Z</time></trkpt><trkpt lat="40.91312798546458" lon="0.5258945486515056"><ele>111.0</ele><time>2026-05-03T13:15:47Z</time></trkpt><trkpt lat="40.91304692527159" lon="0.5258000004469533"><ele>111.0</ele><time>2026-05-03T13:15:49Z</time></trkpt><trkpt lat="40.91300031686352" lon="0.5257023463316388"><ele>111.0</ele><time>2026-05-03T13:15:51Z</time></trkpt><trkpt lat="40.91296352168482" lon="0.5255849978772504"><ele>111.0</ele><time>2026-05-03T13:15:53Z</time></trkpt><trkpt lat="40.91291759721255" lon="0.5254692825649411"><ele>111.0</ele><time>2026-05-03T13:15:55Z</time></trkpt><trkpt lat="40.912857640603185" lon="0.5253685405530627"><ele>111.0</ele><time>2026-05-03T13:15:57Z</time></trkpt><trkpt lat="40.91275832863699" lon="0.5253376417653413"><ele>111.0</ele><time>2026-05-03T13:15:59Z</time></trkpt><trkpt lat="40.91266114367692" lon="0.5252415985337049"><ele>111.0</ele><time>2026-05-03T13:16:01Z</time></trkpt><trkpt lat="40.912624567950395" lon="0.5251610536540263"><ele>111.0</ele><time>2026-05-03T13:16:02Z</time></trkpt><trkpt lat="40.912574527338656" lon="0.525072367567866"><ele>111.33333333333333</ele><time>2026-05-03T13:16:03Z</time></trkpt><trkpt lat="40.912519152957074" lon="0.5249687550769644"><ele>111.66666666666666</ele><time>2026-05-03T13:16:04Z</time></trkpt><trkpt lat="40.91246796850166" lon="0.5248949825309015"><ele>112.0</ele><time>2026-05-03T13:16:05Z</time></trkpt><trkpt lat="40.912425581879916" lon="0.5248267844416008"><ele>112.33333333333333</ele><time>2026-05-03T13:16:06Z</time></trkpt><trkpt lat="40.91237618704509" lon="0.5247717370273809"><ele>112.66666666666666</ele><time>2026-05-03T13:16:07Z</time></trkpt><trkpt lat="40.912265809171515" lon="0.5246800541340285"><ele>113.0</ele><time>2026-05-03T13:16:09Z</time></trkpt><trkpt lat="40.91220068279356" lon="0.5246471660808688"><ele>113.0</ele><time>2026-05-03T13:16:10Z</time></trkpt><trkpt lat="40.91213305969996" lon="0.5246114143685773"><ele>113.00000000000001</ele><time>2026-05-03T13:16:11Z</time></trkpt><trkpt lat="40.91205611757005" lon="0.5245797371574835"><ele>113.00000000000001</ele><time>2026-05-03T13:16:12Z</time></trkpt><trkpt lat="40.91195497428704" lon="0.5245521603345363"><ele>113.0</ele><time>2026-05-03T13:16:13Z</time></trkpt><trkpt lat="40.9118378769668" lon="0.524507311257243"><ele>113.0</ele><time>2026-05-03T13:16:14Z</time></trkpt><trkpt lat="40.91172602528917" lon="0.5244663787667724"><ele>112.49999999999999</ele><time>2026-05-03T13:16:15Z</time></trkpt><trkpt lat="40.911625060909884" lon="0.5244307412176937"><ele>112.0</ele><time>2026-05-03T13:16:16Z</time></trkpt><trkpt lat="40.91155142234898" lon="0.5243942861895935"><ele>111.5</ele><time>2026-05-03T13:16:17Z</time></trkpt><trkpt lat="40.91148892160648" lon="0.5243348236070483"><ele>111.0</ele><time>2026-05-03T13:16:18Z</time></trkpt><trkpt lat="40.91142603447739" lon="0.524326815263047"><ele>110.49999999999999</ele><time>2026-05-03T13:16:19Z</time></trkpt><trkpt lat="40.911357100392365" lon="0.5243437096902421"><ele>110.0</ele><time>2026-05-03T13:16:20Z</time></trkpt><trkpt lat="40.9112481151733" lon="0.5243621685917507"><ele>109.99999999999999</ele><time>2026-05-03T13:16:22Z</time></trkpt><trkpt lat="40.91118308711149" lon="0.5243499291261983"><ele>110.0</ele><time>2026-05-03T13:16:24Z</time></trkpt><trkpt lat="40.91113384328597" lon="0.5242772834955867"><ele>110.0</ele><time>2026-05-03T13:16:25Z</time></trkpt><trkpt lat="40.91108539884137" lon="0.5241770006816632"><ele>110.0</ele><time>2026-05-03T13:16:26Z</time></trkpt><trkpt lat="40.91102956566836" lon="0.5240489798810236"><ele>109.99999999999999</ele><time>2026-05-03T13:16:27Z</time></trkpt><trkpt lat="40.91097611822538" lon="0.5239447367633802"><ele>110.0</ele><time>2026-05-03T13:16:28Z</time></trkpt><trkpt lat="40.910922264669594" lon="0.5238500973587473"><ele>110.2</ele><time>2026-05-03T13:16:29Z</time></trkpt><trkpt lat="40.91088261979047" lon="0.5237576626036691"><ele>110.4</ele><time>2026-05-03T13:16:30Z</time></trkpt><trkpt lat="40.91078831184176" lon="0.5236561295955653"><ele>110.6</ele><time>2026-05-03T13:16:32Z</time></trkpt><trkpt lat="40.910685738834815" lon="0.523595282310221"><ele>110.8</ele><time>2026-05-03T13:16:34Z</time></trkpt><trkpt lat="40.91062369753035" lon="0.5234781611970991"><ele>111.0</ele><time>2026-05-03T13:16:36Z</time></trkpt><trkpt lat="40.91056032232558" lon="0.523459504078624"><ele>110.33333333333333</ele><time>2026-05-03T13:16:37Z</time></trkpt><trkpt lat="40.910468164996736" lon="0.5234351649346376"><ele>109.66666666666666</ele><time>2026-05-03T13:16:38Z</time></trkpt><trkpt lat="40.910382527838436" lon="0.5234205734409559"><ele>109.0</ele><time>2026-05-03T13:16:39Z</time></trkpt><trkpt lat="40.910313856114755" lon="0.5234241489578618"><ele>108.33333333333333</ele><time>2026-05-03T13:16:40Z</time></trkpt><trkpt lat="40.91021821362197" lon="0.5234424445259203"><ele>107.66666666666666</ele><time>2026-05-03T13:16:42Z</time></trkpt><trkpt lat="40.91014618704498" lon="0.5234356031867419"><ele>107.0</ele><time>2026-05-03T13:16:44Z</time></trkpt><trkpt lat="40.910098132786075" lon="0.5232887378677236"><ele>107.0</ele><time>2026-05-03T13:16:46Z</time></trkpt><trkpt lat="40.91008802639835" lon="0.5231429354248963"><ele>107.0</ele><time>2026-05-03T13:16:47Z</time></trkpt><trkpt lat="40.910084588879045" lon="0.5229594689662553"><ele>107.0</ele><time>2026-05-03T13:16:48Z</time></trkpt><trkpt lat="40.91006896105136" lon="0.5228127351579795"><ele>107.0</ele><time>2026-05-03T13:16:49Z</time></trkpt><trkpt lat="40.91005083532236" lon="0.5226817650222404"><ele>106.0</ele><time>2026-05-03T13:16:50Z</time></trkpt><trkpt lat="40.91005187329016" lon="0.5225597382478095"><ele>104.99999999999999</ele><time>2026-05-03T13:16:51Z</time></trkpt><trkpt lat="40.91007313365197" lon="0.5224271627409831"><ele>104.0</ele><time>2026-05-03T13:16:52Z</time></trkpt><trkpt lat="40.91009808791601" lon="0.5222978684362403"><ele>103.0</ele><time>2026-05-03T13:16:53Z</time></trkpt><trkpt lat="40.910111349883344" lon="0.5221830233414421"><ele>102.0</ele><time>2026-05-03T13:16:54Z</time></trkpt><trkpt lat="40.910111458155164" lon="0.5220780644493396"><ele>101.33333333333333</ele><time>2026-05-03T13:16:54.999Z</time></trkpt><trkpt lat="40.91011993825328" lon="0.5219857740436917"><ele>100.66666666666666</ele><time>2026-05-03T13:16:55.999Z</time></trkpt><trkpt lat="40.91013205698018" lon="0.5218958646065606"><ele>100.0</ele><time>2026-05-03T13:16:56.999Z</time></trkpt><trkpt lat="40.91013666673806" lon="0.5217460908469849"><ele>99.33333333333333</ele><time>2026-05-03T13:16:58.999Z</time></trkpt><trkpt lat="40.910102651676844" lon="0.5216718107593447"><ele>98.66666666666666</ele><time>2026-05-03T13:16:59.999Z</time></trkpt><trkpt lat="40.91005797896311" lon="0.5216096322837149"><ele>98.0</ele><time>2026-05-03T13:17:00.999Z</time></trkpt><trkpt lat="40.9100154122923" lon="0.5215199377821419"><ele>97.99999999999999</ele><time>2026-05-03T13:17:01.999Z</time></trkpt><trkpt lat="40.90996830314743" lon="0.5213612943190564"><ele>98.0</ele><time>2026-05-03T13:17:03.999Z</time></trkpt><trkpt lat="40.90996001111303" lon="0.5212595506736133"><ele>98.0</ele><time>2026-05-03T13:17:04.999Z</time></trkpt><trkpt lat="40.90994820785202" lon="0.521149578466081"><ele>98.0</ele><time>2026-05-03T13:17:05.999Z</time></trkpt><trkpt lat="40.90994572267448" lon="0.5210507308174892"><ele>97.99999999999999</ele><time>2026-05-03T13:17:06.999Z</time></trkpt><trkpt lat="40.90994209656763" lon="0.5209561471493521"><ele>98.0</ele><time>2026-05-03T13:17:07.999Z</time></trkpt><trkpt lat="40.909932379240345" lon="0.520860074163034"><ele>97.0</ele><time>2026-05-03T13:17:08.999Z</time></trkpt><trkpt lat="40.909913788752554" lon="0.5207740407490682"><ele>96.0</ele><time>2026-05-03T13:17:09.999Z</time></trkpt><trkpt lat="40.90988612974075" lon="0.5206246855262878"><ele>95.0</ele><time>2026-05-03T13:17:11.999Z</time></trkpt><trkpt lat="40.9098468216415" lon="0.5204949134595058"><ele>94.0</ele><time>2026-05-03T13:17:13.999Z</time></trkpt><trkpt lat="40.90979713915984" lon="0.5203498902453775"><ele>93.0</ele><time>2026-05-03T13:17:16Z</time></trkpt><trkpt lat="40.90974548325074" lon="0.5201908614048506"><ele>92.5</ele><time>2026-05-03T13:17:18Z</time></trkpt><trkpt lat="40.90969574749148" lon="0.5200591721114829"><ele>92.0</ele><time>2026-05-03T13:17:20Z</time></trkpt><trkpt lat="40.90964585236246" lon="0.5199859759743791"><ele>91.5</ele><time>2026-05-03T13:17:23Z</time></trkpt><trkpt lat="40.9095782752187" lon="0.5199543277603225"><ele>91.0</ele><time>2026-05-03T13:17:27Z</time></trkpt><trkpt lat="40.90952458737099" lon="0.5199027768145377"><ele>90.5</ele><time>2026-05-03T13:18:21Z</time></trkpt><trkpt lat="40.909463904977706" lon="0.5198763520169434"><ele>90.0</ele><time>2026-05-03T13:18:33Z</time></trkpt><trkpt lat="40.90940979031752" lon="0.519831890555264"><ele>90.0</ele><time>2026-05-03T13:18:39Z</time></trkpt><trkpt lat="40.909346337640734" lon="0.5197890513201295"><ele>90.0</ele><time>2026-05-03T13:18:47.999Z</time></trkpt><trkpt lat="40.909295577002176" lon="0.519730974556643"><ele>90.0</ele><time>2026-05-03T13:18:54.999Z</time></trkpt><trkpt lat="40.9092300960435" lon="0.5197054802830077"><ele>90.0</ele><time>2026-05-03T13:19:01.999Z</time></trkpt><trkpt lat="40.90916373378622" lon="0.5196935750481377"><ele>90.0</ele><time>2026-05-03T13:19:07.999Z</time></trkpt><trkpt lat="40.909112824662856" lon="0.5195909256829758"><ele>90.0</ele><time>2026-05-03T13:19:12.999Z</time></trkpt><trkpt lat="40.90905558679843" lon="0.5195342513350317"><ele>90.0</ele><time>2026-05-03T13:19:14.999Z</time></trkpt><trkpt lat="40.909005383647745" lon="0.5194509078688998"><ele>87.8</ele><time>2026-05-03T13:19:18.999Z</time></trkpt><trkpt lat="40.90893124651735" lon="0.519435867553816"><ele>85.6</ele><time>2026-05-03T13:19:22Z</time></trkpt><trkpt lat="40.90885086170184" lon="0.5194123979162243"><ele>83.4</ele><time>2026-05-03T13:19:25Z</time></trkpt><trkpt lat="40.90880284307031" lon="0.5193366979611652"><ele>81.2</ele><time>2026-05-03T13:19:29Z</time></trkpt><trkpt lat="40.90866866731996" lon="0.51946989712045"><ele>79.0</ele><time>2026-05-03T13:19:48Z</time></trkpt><trkpt lat="40.90864400792238" lon="0.5195470186012874"><ele>79.00000000000001</ele><time>2026-05-03T13:19:49Z</time></trkpt><trkpt lat="40.90862427513077" lon="0.5196358702297121"><ele>79.0</ele><time>2026-05-03T13:19:50Z</time></trkpt><trkpt lat="40.90861259042218" lon="0.5197365111728478"><ele>79.0</ele><time>2026-05-03T13:19:51Z</time></trkpt><trkpt lat="40.908605557066345" lon="0.5198524312585135"><ele>79.0</ele><time>2026-05-03T13:19:52Z</time></trkpt><trkpt lat="40.90860269313901" lon="0.5199530581908097"><ele>79.0</ele><time>2026-05-03T13:19:53Z</time></trkpt><trkpt lat="40.90859495551001" lon="0.5200469868619285"><ele>79.00000000000001</ele><time>2026-05-03T13:19:54Z</time></trkpt><trkpt lat="40.9085962721562" lon="0.5201330481523112"><ele>79.0</ele><time>2026-05-03T13:19:55Z</time></trkpt><trkpt lat="40.908619874931894" lon="0.5202826119079221"><ele>79.0</ele><time>2026-05-03T13:19:57Z</time></trkpt><trkpt lat="40.908653536381415" lon="0.5203579314071278"><ele>79.0</ele><time>2026-05-03T13:19:58Z</time></trkpt><trkpt lat="40.90870872040331" lon="0.5204339259911736"><ele>79.0</ele><time>2026-05-03T13:19:59Z</time></trkpt><trkpt lat="40.908763799110986" lon="0.520503180799719"><ele>79.0</ele><time>2026-05-03T13:20:00Z</time></trkpt><trkpt lat="40.90879824338685" lon="0.5205827508497012"><ele>79.0</ele><time>2026-05-03T13:20:01Z</time></trkpt><trkpt lat="40.9088114090227" lon="0.5206983337418731"><ele>79.0</ele><time>2026-05-03T13:20:02Z</time></trkpt><trkpt lat="40.90879928443618" lon="0.5208194934293073"><ele>79.0</ele><time>2026-05-03T13:20:03Z</time></trkpt><trkpt lat="40.908773855351015" lon="0.5209019918096071"><ele>79.0</ele><time>2026-05-03T13:20:04Z</time></trkpt><trkpt lat="40.90864705597519" lon="0.5209758489654674"><ele>79.0</ele><time>2026-05-03T13:20:06Z</time></trkpt><trkpt lat="40.90856203718092" lon="0.5210272672735886"><ele>79.0</ele><time>2026-05-03T13:20:07Z</time></trkpt><trkpt lat="40.90849155453798" lon="0.5210583300825782"><ele>79.0</ele><time>2026-05-03T13:20:08Z</time></trkpt><trkpt lat="40.908392710082985" lon="0.5211605184361117"><ele>77.8</ele><time>2026-05-03T13:20:10Z</time></trkpt><trkpt lat="40.908359016561164" lon="0.5213108773295817"><ele>76.60000000000001</ele><time>2026-05-03T13:20:12Z</time></trkpt><trkpt lat="40.90835586599551" lon="0.5213973507722597"><ele>75.4</ele><time>2026-05-03T13:20:13Z</time></trkpt><trkpt lat="40.908416043157914" lon="0.5215351612625302"><ele>74.2</ele><time>2026-05-03T13:20:15Z</time></trkpt><trkpt lat="40.90844701842474" lon="0.5216725598711005"><ele>73.0</ele><time>2026-05-03T13:20:17Z</time></trkpt><trkpt lat="40.90837001205697" lon="0.5217713811284352"><ele>73.0</ele><time>2026-05-03T13:20:19Z</time></trkpt><trkpt lat="40.90827639313831" lon="0.5218256459474931"><ele>73.0</ele><time>2026-05-03T13:20:21Z</time></trkpt><trkpt lat="40.908214974204185" lon="0.5217958954487277"><ele>73.0</ele><time>2026-05-03T13:20:22Z</time></trkpt><trkpt lat="40.908162765975334" lon="0.5217338657550361"><ele>73.0</ele><time>2026-05-03T13:20:23Z</time></trkpt><trkpt lat="40.908058068330575" lon="0.5217142696144625"><ele>73.0</ele><time>2026-05-03T13:20:25Z</time></trkpt><trkpt lat="40.90795612187741" lon="0.5218652659487678"><ele>73.0</ele><time>2026-05-03T13:20:27Z</time></trkpt><trkpt lat="40.907891281802414" lon="0.521958786926712"><ele>73.0</ele><time>2026-05-03T13:20:28Z</time></trkpt><trkpt lat="40.907816068814626" lon="0.5220274177908569"><ele>73.0</ele><time>2026-05-03T13:20:29Z</time></trkpt><trkpt lat="40.90774823935502" lon="0.5220685292271628"><ele>73.0</ele><time>2026-05-03T13:20:30Z</time></trkpt><trkpt lat="40.90768398954292" lon="0.5220993389262586"><ele>73.0</ele><time>2026-05-03T13:20:31Z</time></trkpt><trkpt lat="40.9075865560452" lon="0.5221408572791413"><ele>73.0</ele><time>2026-05-03T13:20:32Z</time></trkpt><trkpt lat="40.907482163729995" lon="0.5222210821125531"><ele>74.4</ele><time>2026-05-03T13:20:33Z</time></trkpt><trkpt lat="40.90738578922059" lon="0.5223284058483776"><ele>75.8</ele><time>2026-05-03T13:20:34Z</time></trkpt><trkpt lat="40.90730216830175" lon="0.5224218709211046"><ele>77.2</ele><time>2026-05-03T13:20:35Z</time></trkpt><trkpt lat="40.907215641812314" lon="0.522503928459983"><ele>78.6</ele><time>2026-05-03T13:20:36Z</time></trkpt><trkpt lat="40.90713495504973" lon="0.52256494642309"><ele>80.0</ele><time>2026-05-03T13:20:37Z</time></trkpt><trkpt lat="40.907062471301714" lon="0.5226112051130812"><ele>80.0</ele><time>2026-05-03T13:20:38Z</time></trkpt><trkpt lat="40.907003202754474" lon="0.52266926445229"><ele>80.0</ele><time>2026-05-03T13:20:39Z</time></trkpt><trkpt lat="40.9069206603193" lon="0.5227733350095406"><ele>80.0</ele><time>2026-05-03T13:20:41Z</time></trkpt><trkpt lat="40.906870775277085" lon="0.522930107285558"><ele>80.0</ele><time>2026-05-03T13:20:43Z</time></trkpt><trkpt lat="40.90685616729699" lon="0.5230267059216179"><ele>80.0</ele><time>2026-05-03T13:20:44Z</time></trkpt><trkpt lat="40.906841015373914" lon="0.523124290760979"><ele>80.5</ele><time>2026-05-03T13:20:45Z</time></trkpt><trkpt lat="40.90681787040423" lon="0.5232159470405471"><ele>81.0</ele><time>2026-05-03T13:20:46Z</time></trkpt><trkpt lat="40.90678115202454" lon="0.5232886085110191"><ele>81.5</ele><time>2026-05-03T13:20:47Z</time></trkpt><trkpt lat="40.90667280328989" lon="0.5233518715521519"><ele>82.0</ele><time>2026-05-03T13:20:49Z</time></trkpt><trkpt lat="40.90662675429459" lon="0.5234188711235072"><ele>82.5</ele><time>2026-05-03T13:20:50Z</time></trkpt><trkpt lat="40.906590502729394" lon="0.5234889364631129"><ele>83.0</ele><time>2026-05-03T13:20:51Z</time></trkpt><trkpt lat="40.90655855750626" lon="0.5235633521681751"><ele>81.80000000000001</ele><time>2026-05-03T13:20:52Z</time></trkpt><trkpt lat="40.9065263137527" lon="0.523653181801386"><ele>80.60000000000001</ele><time>2026-05-03T13:20:53Z</time></trkpt><trkpt lat="40.90650624969339" lon="0.5237580697465771"><ele>79.4</ele><time>2026-05-03T13:20:54Z</time></trkpt><trkpt lat="40.90648815026206" lon="0.5238896970781031"><ele>78.2</ele><time>2026-05-03T13:20:54.999Z</time></trkpt><trkpt lat="40.906470649071395" lon="0.5240370993895956"><ele>77.0</ele><time>2026-05-03T13:20:55.999Z</time></trkpt><trkpt lat="40.90645496434889" lon="0.5241692189910688"><ele>77.0</ele><time>2026-05-03T13:20:56.999Z</time></trkpt><trkpt lat="40.90643440897419" lon="0.5242856234150093"><ele>77.0</ele><time>2026-05-03T13:20:57.999Z</time></trkpt><trkpt lat="40.906401994934406" lon="0.5243871174482778"><ele>77.0</ele><time>2026-05-03T13:20:58.999Z</time></trkpt><trkpt lat="40.906356128412476" lon="0.5244775735315639"><ele>77.0</ele><time>2026-05-03T13:20:59.999Z</time></trkpt><trkpt lat="40.90629552717525" lon="0.524569140349193"><ele>77.0</ele><time>2026-05-03T13:21:00.999Z</time></trkpt><trkpt lat="40.90622305813273" lon="0.5246732750084053"><ele>78.0</ele><time>2026-05-03T13:21:01.999Z</time></trkpt><trkpt lat="40.90615735007572" lon="0.5247721152083877"><ele>79.0</ele><time>2026-05-03T13:21:02.999Z</time></trkpt><trkpt lat="40.9060897193528" lon="0.524868415044307"><ele>80.0</ele><time>2026-05-03T13:21:03.999Z</time></trkpt><trkpt lat="40.90600230891745" lon="0.5249693782409727"><ele>81.0</ele><time>2026-05-03T13:21:04.999Z</time></trkpt><trkpt lat="40.905916069561755" lon="0.5250651818448189"><ele>82.0</ele><time>2026-05-03T13:21:05.999Z</time></trkpt><trkpt lat="40.905841226616495" lon="0.5251560204025023"><ele>76.6</ele><time>2026-05-03T13:21:06.999Z</time></trkpt><trkpt lat="40.905767933238195" lon="0.525240890583266"><ele>71.19999999999999</ele><time>2026-05-03T13:21:07.999Z</time></trkpt><trkpt lat="40.90569635061449" lon="0.5253236920593434"><ele>65.8</ele><time>2026-05-03T13:21:08.999Z</time></trkpt><trkpt lat="40.90562403420395" lon="0.5254002886374272"><ele>60.4</ele><time>2026-05-03T13:21:09.999Z</time></trkpt><trkpt lat="40.90553739966414" lon="0.5254725332650466"><ele>55.0</ele><time>2026-05-03T13:21:10.999Z</time></trkpt><trkpt lat="40.90546688188671" lon="0.5255328567239641"><ele>54.4</ele><time>2026-05-03T13:21:11.999Z</time></trkpt><trkpt lat="40.90536371779344" lon="0.5255528413991706"><ele>53.8</ele><time>2026-05-03T13:21:12.999Z</time></trkpt><trkpt lat="40.905268592620494" lon="0.5255738499856577"><ele>53.2</ele><time>2026-05-03T13:21:13.999Z</time></trkpt><trkpt lat="40.90515280916221" lon="0.5256113200051434"><ele>52.6</ele><time>2026-05-03T13:21:14.999Z</time></trkpt><trkpt lat="40.90505785517599" lon="0.5256161135319639"><ele>52.0</ele><time>2026-05-03T13:21:15.999Z</time></trkpt><trkpt lat="40.90496206663902" lon="0.525620046538708"><ele>50.49999999999999</ele><time>2026-05-03T13:21:16.999Z</time></trkpt><trkpt lat="40.9048776225796" lon="0.5256204539769764"><ele>49.0</ele><time>2026-05-03T13:21:17.999Z</time></trkpt><trkpt lat="40.90480430348034" lon="0.5256101962050593"><ele>47.5</ele><time>2026-05-03T13:21:18.999Z</time></trkpt><trkpt lat="40.90473898330867" lon="0.5255947830679563"><ele>46.0</ele><time>2026-05-03T13:21:19.999Z</time></trkpt><trkpt lat="40.90468492418858" lon="0.5255480887636168"><ele>44.5</ele><time>2026-05-03T13:21:20.999Z</time></trkpt><trkpt lat="40.904594220026645" lon="0.5255120306367849"><ele>43.0</ele><time>2026-05-03T13:21:22.999Z</time></trkpt><trkpt lat="40.90452473396665" lon="0.5255394165419605"><ele>43.0</ele><time>2026-05-03T13:21:23.999Z</time></trkpt><trkpt lat="40.904461944511255" lon="0.525594886689649"><ele>43.0</ele><time>2026-05-03T13:21:24.999Z</time></trkpt><trkpt lat="40.90440490339691" lon="0.5256447212855425"><ele>43.0</ele><time>2026-05-03T13:21:25.999Z</time></trkpt><trkpt lat="40.90434330152812" lon="0.5256949611989366"><ele>43.0</ele><time>2026-05-03T13:21:26.999Z</time></trkpt><trkpt lat="40.90431281835157" lon="0.5257955987179959"><ele>43.0</ele><time>2026-05-03T13:21:28Z</time></trkpt><trkpt lat="40.90423296455018" lon="0.5258936090672058"><ele>43.0</ele><time>2026-05-03T13:21:30Z</time></trkpt><trkpt lat="40.90416569865124" lon="0.5258984235658323"><ele>40.833333333333336</ele><time>2026-05-03T13:21:31Z</time></trkpt><trkpt lat="40.90408497190956" lon="0.5258956581213559"><ele>38.66666666666667</ele><time>2026-05-03T13:21:32Z</time></trkpt><trkpt lat="40.90400945425743" lon="0.5258964586033096"><ele>36.5</ele><time>2026-05-03T13:21:33Z</time></trkpt><trkpt lat="40.903944896812526" lon="0.5258745444310122"><ele>34.333333333333336</ele><time>2026-05-03T13:21:34Z</time></trkpt><trkpt lat="40.90387339695493" lon="0.5258756314591073"><ele>32.166666666666664</ele><time>2026-05-03T13:21:35Z</time></trkpt><trkpt lat="40.90380936812122" lon="0.5258668946490599"><ele>30.0</ele><time>2026-05-03T13:21:36Z</time></trkpt><trkpt lat="40.90370637053553" lon="0.5258318136011378"><ele>30.0</ele><time>2026-05-03T13:21:38Z</time></trkpt><trkpt lat="40.90364018108096" lon="0.52566287557805"><ele>30.0</ele><time>2026-05-03T13:21:40Z</time></trkpt><trkpt lat="40.903637194810045" lon="0.5255476601314698"><ele>30.0</ele><time>2026-05-03T13:21:41Z</time></trkpt><trkpt lat="40.9036717843231" lon="0.5253986108330139"><ele>30.0</ele><time>2026-05-03T13:21:42Z</time></trkpt><trkpt lat="40.90371638089095" lon="0.5252311977784474"><ele>29.333333333333332</ele><time>2026-05-03T13:21:43Z</time></trkpt><trkpt lat="40.90376492834687" lon="0.5250930649055424"><ele>28.666666666666664</ele><time>2026-05-03T13:21:44Z</time></trkpt><trkpt lat="40.90381044168589" lon="0.5250062609517885"><ele>28.0</ele><time>2026-05-03T13:21:45Z</time></trkpt><trkpt lat="40.90386510884875" lon="0.5249221318893939"><ele>27.333333333333332</ele><time>2026-05-03T13:21:46Z</time></trkpt><trkpt lat="40.9039335329631" lon="0.5248749841542119"><ele>26.666666666666664</ele><time>2026-05-03T13:21:47Z</time></trkpt><trkpt lat="40.90400172895475" lon="0.5248383052052495"><ele>26.0</ele><time>2026-05-03T13:21:48Z</time></trkpt><trkpt lat="40.90404598889564" lon="0.5247652900829282"><ele>25.999999999999996</ele><time>2026-05-03T13:21:49Z</time></trkpt><trkpt lat="40.904063552161" lon="0.5246691343532165"><ele>26.0</ele><time>2026-05-03T13:21:50Z</time></trkpt><trkpt lat="40.90406949559441" lon="0.5245619882096095"><ele>26.0</ele><time>2026-05-03T13:21:51Z</time></trkpt><trkpt lat="40.90408271574085" lon="0.5244403378482922"><ele>26.0</ele><time>2026-05-03T13:21:52Z</time></trkpt><trkpt lat="40.9040936654594" lon="0.5243256147997981"><ele>25.999999999999996</ele><time>2026-05-03T13:21:53Z</time></trkpt><trkpt lat="40.904110675427454" lon="0.5242116962639047"><ele>26.0</ele><time>2026-05-03T13:21:54Z</time></trkpt><trkpt lat="40.90412502142309" lon="0.5241081363245983"><ele>25.6</ele><time>2026-05-03T13:21:55Z</time></trkpt><trkpt lat="40.90415404314378" lon="0.5239764753106946"><ele>25.200000000000003</ele><time>2026-05-03T13:21:56Z</time></trkpt><trkpt lat="40.904174599931686" lon="0.5238465161109455"><ele>24.799999999999997</ele><time>2026-05-03T13:21:57Z</time></trkpt><trkpt lat="40.90419510684437" lon="0.52372765289231"><ele>24.4</ele><time>2026-05-03T13:21:58Z</time></trkpt><trkpt lat="40.904220373591386" lon="0.5236035939306874"><ele>24.0</ele><time>2026-05-03T13:21:59Z</time></trkpt><trkpt lat="40.904226495351935" lon="0.5235097117373959"><ele>24.0</ele><time>2026-05-03T13:22:00Z</time></trkpt><trkpt lat="40.90420337708975" lon="0.523397821463208"><ele>24.0</ele><time>2026-05-03T13:22:02Z</time></trkpt><trkpt lat="40.90414004872303" lon="0.5233574097945779"><ele>24.0</ele><time>2026-05-03T13:22:04Z</time></trkpt><trkpt lat="40.9040063793805" lon="0.5234224912904499"><ele>24.0</ele><time>2026-05-03T13:22:06Z</time></trkpt><trkpt lat="40.90391515084717" lon="0.5234724094689601"><ele>24.0</ele><time>2026-05-03T13:22:07Z</time></trkpt><trkpt lat="40.90381603911846" lon="0.5235462395029923"><ele>24.0</ele><time>2026-05-03T13:22:08Z</time></trkpt><trkpt lat="40.90369470650762" lon="0.5236429356144423"><ele>24.0</ele><time>2026-05-03T13:22:09Z</time></trkpt><trkpt lat="40.903586679252896" lon="0.5237432791458109"><ele>24.0</ele><time>2026-05-03T13:22:10Z</time></trkpt><trkpt lat="40.90349482471873" lon="0.5238401550319278"><ele>24.0</ele><time>2026-05-03T13:22:11Z</time></trkpt><trkpt lat="40.903412210426815" lon="0.5239178629576119"><ele>24.0</ele><time>2026-05-03T13:22:12Z</time></trkpt><trkpt lat="40.90334182327547" lon="0.5240038618625941"><ele>24.0</ele><time>2026-05-03T13:22:13Z</time></trkpt><trkpt lat="40.90328051853606" lon="0.524096683067252"><ele>24.0</ele><time>2026-05-03T13:22:14Z</time></trkpt><trkpt lat="40.90321169328433" lon="0.5242151280528164"><ele>24.0</ele><time>2026-05-03T13:22:15Z</time></trkpt><trkpt lat="40.90313095396903" lon="0.5243916713891268"><ele>24.666666666666664</ele><time>2026-05-03T13:22:16Z</time></trkpt><trkpt lat="40.90303997061565" lon="0.5246015194448186"><ele>25.333333333333332</ele><time>2026-05-03T13:22:17Z</time></trkpt><trkpt lat="40.902936313895985" lon="0.5248372785888789"><ele>26.0</ele><time>2026-05-03T13:22:18Z</time></trkpt><trkpt lat="40.902843552973614" lon="0.5250397934492929"><ele>26.0</ele><time>2026-05-03T13:22:19Z</time></trkpt><trkpt lat="40.90275311560635" lon="0.525204847946133"><ele>26.0</ele><time>2026-05-03T13:22:20Z</time></trkpt><trkpt lat="40.902677219609274" lon="0.5253615913022005"><ele>26.0</ele><time>2026-05-03T13:22:21Z</time></trkpt><trkpt lat="40.90260210556855" lon="0.5255293471648621"><ele>26.0</ele><time>2026-05-03T13:22:22Z</time></trkpt><trkpt lat="40.90252789543724" lon="0.5257405680317787"><ele>25.666666666666664</ele><time>2026-05-03T13:22:23Z</time></trkpt><trkpt lat="40.90246457357525" lon="0.5259428353257799"><ele>25.333333333333336</ele><time>2026-05-03T13:22:24Z</time></trkpt><trkpt lat="40.90239348006873" lon="0.5261680009384468"><ele>25.0</ele><time>2026-05-03T13:22:25Z</time></trkpt><trkpt lat="40.90232799514139" lon="0.5263722165183791"><ele>25.75</ele><time>2026-05-03T13:22:26Z</time></trkpt><trkpt lat="40.90227159813453" lon="0.5265632710191709"><ele>26.5</ele><time>2026-05-03T13:22:27Z</time></trkpt><trkpt lat="40.90222787541056" lon="0.526732066493595"><ele>27.25</ele><time>2026-05-03T13:22:28Z</time></trkpt><trkpt lat="40.9021777113959" lon="0.5269155670921095"><ele>28.0</ele><time>2026-05-03T13:22:29Z</time></trkpt><trkpt lat="40.902141504846846" lon="0.527105297393446"><ele>30.599999999999998</ele><time>2026-05-03T13:22:30Z</time></trkpt><trkpt lat="40.902121072515605" lon="0.5272675506438333"><ele>33.199999999999996</ele><time>2026-05-03T13:22:31Z</time></trkpt><trkpt lat="40.90209999741666" lon="0.5274051274688933"><ele>35.8</ele><time>2026-05-03T13:22:32Z</time></trkpt><trkpt lat="40.90206686035677" lon="0.5275342781024244"><ele>38.4</ele><time>2026-05-03T13:22:33Z</time></trkpt><trkpt lat="40.90203001475885" lon="0.52766129530738"><ele>41.0</ele><time>2026-05-03T13:22:34Z</time></trkpt><trkpt lat="40.90197841882378" lon="0.5277813253111159"><ele>41.0</ele><time>2026-05-03T13:22:35Z</time></trkpt><trkpt lat="40.901905021362474" lon="0.5278731449140005"><ele>41.0</ele><time>2026-05-03T13:22:36Z</time></trkpt><trkpt lat="40.90182409977033" lon="0.5279577023986999"><ele>41.0</ele><time>2026-05-03T13:22:37Z</time></trkpt><trkpt lat="40.901708680454966" lon="0.5280502158399167"><ele>41.0</ele><time>2026-05-03T13:22:38Z</time></trkpt><trkpt lat="40.90157663653436" lon="0.5281633510460181"><ele>39.199999999999996</ele><time>2026-05-03T13:22:39Z</time></trkpt><trkpt lat="40.901511712521334" lon="0.5282615439597367"><ele>37.4</ele><time>2026-05-03T13:22:40Z</time></trkpt><trkpt lat="40.901459096275886" lon="0.5283935983149015"><ele>35.6</ele><time>2026-05-03T13:22:41Z</time></trkpt><trkpt lat="40.90139400981179" lon="0.5284964657023224"><ele>33.8</ele><time>2026-05-03T13:22:42Z</time></trkpt><trkpt lat="40.90130686490968" lon="0.5285802757672357"><ele>32.0</ele><time>2026-05-03T13:22:43Z</time></trkpt><trkpt lat="40.90122683198758" lon="0.5286885852214422"><ele>34.5</ele><time>2026-05-03T13:22:44Z</time></trkpt><trkpt lat="40.90117136443229" lon="0.5288219000232581"><ele>37.0</ele><time>2026-05-03T13:22:45Z</time></trkpt><trkpt lat="40.90111743545737" lon="0.5289200450869203"><ele>39.5</ele><time>2026-05-03T13:22:46Z</time></trkpt><trkpt lat="40.901029267372905" lon="0.5290352389860483"><ele>42.0</ele><time>2026-05-03T13:22:47Z</time></trkpt><trkpt lat="40.90092201845563" lon="0.5291317725367135"><ele>40.75</ele><time>2026-05-03T13:22:48Z</time></trkpt><trkpt lat="40.900815141937215" lon="0.5292344505088469"><ele>39.5</ele><time>2026-05-03T13:22:48.999Z</time></trkpt><trkpt lat="40.90071560037019" lon="0.5293638612981262"><ele>38.25</ele><time>2026-05-03T13:22:49.999Z</time></trkpt><trkpt lat="40.90063182928674" lon="0.5295286377166193"><ele>37.0</ele><time>2026-05-03T13:22:50.999Z</time></trkpt><trkpt lat="40.900539905954275" lon="0.5297143866966886"><ele>37.0</ele><time>2026-05-03T13:22:51.999Z</time></trkpt><trkpt lat="40.90042354386213" lon="0.5299304999081902"><ele>37.0</ele><time>2026-05-03T13:22:52.999Z</time></trkpt><trkpt lat="40.90031538640133" lon="0.5301276724728966"><ele>37.0</ele><time>2026-05-03T13:22:53.999Z</time></trkpt><trkpt lat="40.900218416491946" lon="0.5303111110067145"><ele>37.0</ele><time>2026-05-03T13:22:54.999Z</time></trkpt><trkpt lat="40.90010894822065" lon="0.530499680936878"><ele>37.0</ele><time>2026-05-03T13:22:55.999Z</time></trkpt><trkpt lat="40.90000748182584" lon="0.530646566946405"><ele>37.0</ele><time>2026-05-03T13:22:56.999Z</time></trkpt><trkpt lat="40.89992364671503" lon="0.5307849472738616"><ele>37.0</ele><time>2026-05-03T13:22:57.999Z</time></trkpt><trkpt lat="40.899840819435695" lon="0.5309095538600643"><ele>37.0</ele><time>2026-05-03T13:22:58.999Z</time></trkpt><trkpt lat="40.89974363366352" lon="0.5310440452777321"><ele>37.0</ele><time>2026-05-03T13:22:59.999Z</time></trkpt><trkpt lat="40.89964045679947" lon="0.5311698647706452"><ele>37.0</ele><time>2026-05-03T13:23:00.999Z</time></trkpt><trkpt lat="40.8995143365589" lon="0.5312949963501656"><ele>36.0</ele><time>2026-05-03T13:23:01.999Z</time></trkpt><trkpt lat="40.89937891194918" lon="0.5314215980451845"><ele>35.0</ele><time>2026-05-03T13:23:02.999Z</time></trkpt><trkpt lat="40.89921012863023" lon="0.531566598450896"><ele>34.0</ele><time>2026-05-03T13:23:03.999Z</time></trkpt><trkpt lat="40.89903218352808" lon="0.5317254459498157"><ele>34.0</ele><time>2026-05-03T13:23:04.999Z</time></trkpt><trkpt lat="40.898883450257735" lon="0.5318520058092361"><ele>34.0</ele><time>2026-05-03T13:23:05.999Z</time></trkpt><trkpt lat="40.89875174682762" lon="0.5319651207411142"><ele>34.0</ele><time>2026-05-03T13:23:06.999Z</time></trkpt><trkpt lat="40.898635799281536" lon="0.5320544998884363"><ele>35.0</ele><time>2026-05-03T13:23:07.999Z</time></trkpt><trkpt lat="40.898524583220514" lon="0.5321559360468757"><ele>36.0</ele><time>2026-05-03T13:23:08.999Z</time></trkpt><trkpt lat="40.89842266363024" lon="0.5322406170191839"><ele>37.0</ele><time>2026-05-03T13:23:09.999Z</time></trkpt><trkpt lat="40.89832917453031" lon="0.5322918648613858"><ele>38.0</ele><time>2026-05-03T13:23:10.999Z</time></trkpt><trkpt lat="40.89822976986894" lon="0.5323352328827103"><ele>38.0</ele><time>2026-05-03T13:23:11.999Z</time></trkpt><trkpt lat="40.898145309535586" lon="0.5323617589261398"><ele>38.0</ele><time>2026-05-03T13:23:12.999Z</time></trkpt><trkpt lat="40.89806342893458" lon="0.5323792725768868"><ele>38.0</ele><time>2026-05-03T13:23:13.999Z</time></trkpt><trkpt lat="40.89798470828831" lon="0.532358861521695"><ele>38.0</ele><time>2026-05-03T13:23:14.999Z</time></trkpt><trkpt lat="40.89790023833445" lon="0.5323391899747378"><ele>38.0</ele><time>2026-05-03T13:23:15.999Z</time></trkpt><trkpt lat="40.897829211467005" lon="0.5322855275326902"><ele>38.0</ele><time>2026-05-03T13:23:16.999Z</time></trkpt><trkpt lat="40.89775520967371" lon="0.532212872975496"><ele>38.0</ele><time>2026-05-03T13:23:17.999Z</time></trkpt><trkpt lat="40.89768516814117" lon="0.5321098128918557"><ele>38.0</ele><time>2026-05-03T13:23:18.999Z</time></trkpt><trkpt lat="40.89760683402647" lon="0.5319812671527269"><ele>38.0</ele><time>2026-05-03T13:23:19.999Z</time></trkpt><trkpt lat="40.89754675546186" lon="0.5318692328259993"><ele>38.0</ele><time>2026-05-03T13:23:20.999Z</time></trkpt><trkpt lat="40.89750198458678" lon="0.5317764895319903"><ele>38.0</ele><time>2026-05-03T13:23:21.999Z</time></trkpt><trkpt lat="40.89744881855692" lon="0.5316919714407762"><ele>39.166666666666664</ele><time>2026-05-03T13:23:22.999Z</time></trkpt><trkpt lat="40.897393171818926" lon="0.5316379878052111"><ele>40.33333333333333</ele><time>2026-05-03T13:23:23.999Z</time></trkpt><trkpt lat="40.897325769245825" lon="0.5315879236915145"><ele>41.5</ele><time>2026-05-03T13:23:24.999Z</time></trkpt><trkpt lat="40.89725669391772" lon="0.5315362096434849"><ele>42.666666666666664</ele><time>2026-05-03T13:23:25.999Z</time></trkpt><trkpt lat="40.89717323521813" lon="0.5315060604111984"><ele>43.833333333333336</ele><time>2026-05-03T13:23:26.999Z</time></trkpt><trkpt lat="40.897099712321655" lon="0.5314708112845018"><ele>45.0</ele><time>2026-05-03T13:23:27.999Z</time></trkpt><trkpt lat="40.89701618960034" lon="0.5314786370357134"><ele>45.0</ele><time>2026-05-03T13:23:28.999Z</time></trkpt><trkpt lat="40.8969513004628" lon="0.5314460325619657"><ele>45.0</ele><time>2026-05-03T13:23:30.999Z</time></trkpt><trkpt lat="40.89689080927704" lon="0.5314975816660078"><ele>45.0</ele><time>2026-05-03T13:23:32.999Z</time></trkpt><trkpt lat="40.89693979606601" lon="0.5316395942026765"><ele>45.0</ele><time>2026-05-03T13:23:35Z</time></trkpt><trkpt lat="40.897005115861226" lon="0.5317102691409582"><ele>45.0</ele><time>2026-05-03T13:23:36Z</time></trkpt><trkpt lat="40.89705889633416" lon="0.5318201397770742"><ele>45.0</ele><time>2026-05-03T13:23:37Z</time></trkpt><trkpt lat="40.89709834966892" lon="0.5319144822178123"><ele>45.0</ele><time>2026-05-03T13:23:38Z</time></trkpt><trkpt lat="40.897145388724574" lon="0.5319903471131204"><ele>45.0</ele><time>2026-05-03T13:23:39Z</time></trkpt><trkpt lat="40.89709286316148" lon="0.53211228329518"><ele>45.0</ele><time>2026-05-03T13:23:42Z</time></trkpt><trkpt lat="40.89701768963307" lon="0.5320021511963534"><ele>45.0</ele><time>2026-05-03T13:23:44Z</time></trkpt><trkpt lat="40.896942046371514" lon="0.5319009387312941"><ele>45.0</ele><time>2026-05-03T13:23:46Z</time></trkpt><trkpt lat="40.896888297659515" lon="0.5318095185600308"><ele>45.0</ele><time>2026-05-03T13:23:47Z</time></trkpt><trkpt lat="40.89683762294591" lon="0.5317368923447562"><ele>45.0</ele><time>2026-05-03T13:23:48Z</time></trkpt><trkpt lat="40.89677845895903" lon="0.531680920898266"><ele>45.0</ele><time>2026-05-03T13:23:49Z</time></trkpt><trkpt lat="40.896704903183604" lon="0.5316352200720351"><ele>45.0</ele><time>2026-05-03T13:23:50Z</time></trkpt><trkpt lat="40.89662164599488" lon="0.5316374217930595"><ele>45.0</ele><time>2026-05-03T13:23:51Z</time></trkpt><trkpt lat="40.89649305981048" lon="0.5316443809663894"><ele>45.0</ele><time>2026-05-03T13:23:53Z</time></trkpt><trkpt lat="40.89640890542862" lon="0.5316653935314406"><ele>46.8</ele><time>2026-05-03T13:23:54Z</time></trkpt><trkpt lat="40.89633496579992" lon="0.5317095078797281"><ele>48.6</ele><time>2026-05-03T13:23:55Z</time></trkpt><trkpt lat="40.89626125981196" lon="0.531780135719634"><ele>50.400000000000006</ele><time>2026-05-03T13:23:56Z</time></trkpt><trkpt lat="40.896155886519594" lon="0.5318927073344055"><ele>52.2</ele><time>2026-05-03T13:23:57Z</time></trkpt><trkpt lat="40.896088793590756" lon="0.5319948228384449"><ele>54.0</ele><time>2026-05-03T13:23:58Z</time></trkpt><trkpt lat="40.89603337174756" lon="0.5320774633128333"><ele>56.2</ele><time>2026-05-03T13:23:59Z</time></trkpt><trkpt lat="40.89598541119721" lon="0.5321638431930079"><ele>58.400000000000006</ele><time>2026-05-03T13:24:00Z</time></trkpt><trkpt lat="40.89595256071017" lon="0.5322527633775493"><ele>60.6</ele><time>2026-05-03T13:24:01Z</time></trkpt><trkpt lat="40.895945180758865" lon="0.5323598686462155"><ele>62.8</ele><time>2026-05-03T13:24:02Z</time></trkpt><trkpt lat="40.89592840169458" lon="0.5324728062446963"><ele>65.0</ele><time>2026-05-03T13:24:03Z</time></trkpt><trkpt lat="40.89583256793134" lon="0.5326306289666383"><ele>65.0</ele><time>2026-05-03T13:24:05Z</time></trkpt><trkpt lat="40.895756994356084" lon="0.5327004599012712"><ele>65.0</ele><time>2026-05-03T13:24:06Z</time></trkpt><trkpt lat="40.89568801647677" lon="0.5328079047689462"><ele>65.0</ele><time>2026-05-03T13:24:07Z</time></trkpt><trkpt lat="40.895624526466364" lon="0.5329341303773699"><ele>65.0</ele><time>2026-05-03T13:24:08Z</time></trkpt><trkpt lat="40.89555746116382" lon="0.533044695025191"><ele>65.0</ele><time>2026-05-03T13:24:09Z</time></trkpt><trkpt lat="40.89547101310336" lon="0.5331274462214494"><ele>68.33333333333334</ele><time>2026-05-03T13:24:10Z</time></trkpt><trkpt lat="40.89538626267946" lon="0.5331977665754613"><ele>71.66666666666667</ele><time>2026-05-03T13:24:11Z</time></trkpt><trkpt lat="40.8953136015913" lon="0.533277822707535"><ele>75.0</ele><time>2026-05-03T13:24:12Z</time></trkpt><trkpt lat="40.89527424139346" lon="0.5333523316940117"><ele>78.33333333333333</ele><time>2026-05-03T13:24:13Z</time></trkpt><trkpt lat="40.89523415610931" lon="0.5334360128707949"><ele>81.66666666666666</ele><time>2026-05-03T13:24:14Z</time></trkpt><trkpt lat="40.89521312246576" lon="0.5335346107984872"><ele>85.0</ele><time>2026-05-03T13:24:15Z</time></trkpt><trkpt lat="40.895165385152865" lon="0.5336269469288484"><ele>84.4</ele><time>2026-05-03T13:24:16Z</time></trkpt><trkpt lat="40.895079126364585" lon="0.533698344319302"><ele>83.8</ele><time>2026-05-03T13:24:17Z</time></trkpt><trkpt lat="40.89498609967117" lon="0.5337540615594639"><ele>83.19999999999999</ele><time>2026-05-03T13:24:18Z</time></trkpt><trkpt lat="40.89489480176754" lon="0.5338174161109759"><ele>82.6</ele><time>2026-05-03T13:24:19Z</time></trkpt><trkpt lat="40.8948369298642" lon="0.5338848238690185"><ele>82.0</ele><time>2026-05-03T13:24:20Z</time></trkpt><trkpt lat="40.894798620706986" lon="0.5339648755824831"><ele>82.0</ele><time>2026-05-03T13:24:21Z</time></trkpt><trkpt lat="40.89476747526842" lon="0.534039535178615"><ele>82.0</ele><time>2026-05-03T13:24:22Z</time></trkpt><trkpt lat="40.894763712405386" lon="0.5341986345822997"><ele>82.0</ele><time>2026-05-03T13:24:24Z</time></trkpt><trkpt lat="40.89476715311944" lon="0.5343378601573721"><ele>82.0</ele><time>2026-05-03T13:24:25Z</time></trkpt><trkpt lat="40.894781423032796" lon="0.5345130759113826"><ele>82.0</ele><time>2026-05-03T13:24:26Z</time></trkpt><trkpt lat="40.89478258182865" lon="0.5346337708533813"><ele>82.0</ele><time>2026-05-03T13:24:27Z</time></trkpt><trkpt lat="40.89478461072062" lon="0.5347332285801285"><ele>82.0</ele><time>2026-05-03T13:24:28Z</time></trkpt><trkpt lat="40.894788274890715" lon="0.5348626112815531"><ele>82.0</ele><time>2026-05-03T13:24:30Z</time></trkpt><trkpt lat="40.89485428997509" lon="0.5348982223262659"><ele>82.0</ele><time>2026-05-03T13:24:33Z</time></trkpt><trkpt lat="40.89493176730944" lon="0.5347930452024063"><ele>82.0</ele><time>2026-05-03T13:24:35Z</time></trkpt><trkpt lat="40.894954056941046" lon="0.5346918741328989"><ele>82.0</ele><time>2026-05-03T13:24:36Z</time></trkpt><trkpt lat="40.89499287011197" lon="0.5345507678210212"><ele>82.0</ele><time>2026-05-03T13:24:37Z</time></trkpt><trkpt lat="40.89504571639791" lon="0.5344041818799279"><ele>82.0</ele><time>2026-05-03T13:24:38Z</time></trkpt><trkpt lat="40.89510174033123" lon="0.5342914505553993"><ele>82.0</ele><time>2026-05-03T13:24:39Z</time></trkpt><trkpt lat="40.89514561911151" lon="0.534179583654911"><ele>82.0</ele><time>2026-05-03T13:24:40Z</time></trkpt><trkpt lat="40.895202173579186" lon="0.5340979284903763"><ele>82.0</ele><time>2026-05-03T13:24:41Z</time></trkpt><trkpt lat="40.895263855130075" lon="0.534026867174175"><ele>82.6</ele><time>2026-05-03T13:24:42Z</time></trkpt><trkpt lat="40.89534600348746" lon="0.5339393942271901"><ele>83.19999999999999</ele><time>2026-05-03T13:24:43Z</time></trkpt><trkpt lat="40.89543601529362" lon="0.5338974651720156"><ele>83.8</ele><time>2026-05-03T13:24:44Z</time></trkpt><trkpt lat="40.89552118727084" lon="0.5338372198338881"><ele>84.4</ele><time>2026-05-03T13:24:45Z</time></trkpt><trkpt lat="40.895611010638326" lon="0.5337305692013599"><ele>85.0</ele><time>2026-05-03T13:24:46Z</time></trkpt><trkpt lat="40.89570061079261" lon="0.5336242321137266"><ele>85.0</ele><time>2026-05-03T13:24:47Z</time></trkpt><trkpt lat="40.89579917385673" lon="0.5335320035857289"><ele>85.0</ele><time>2026-05-03T13:24:48Z</time></trkpt><trkpt lat="40.895906464375315" lon="0.5334167453902356"><ele>85.0</ele><time>2026-05-03T13:24:49Z</time></trkpt><trkpt lat="40.89598847793534" lon="0.5333100282004235"><ele>85.0</ele><time>2026-05-03T13:24:50Z</time></trkpt><trkpt lat="40.89607815315978" lon="0.533207823780007"><ele>86.66666666666666</ele><time>2026-05-03T13:24:51Z</time></trkpt><trkpt lat="40.896169193813684" lon="0.5331347882007722"><ele>88.33333333333333</ele><time>2026-05-03T13:24:52Z</time></trkpt><trkpt lat="40.89625010970107" lon="0.5330794379552805"><ele>90.0</ele><time>2026-05-03T13:24:53Z</time></trkpt><trkpt lat="40.896326832600565" lon="0.5330496877498412"><ele>91.66666666666667</ele><time>2026-05-03T13:24:54Z</time></trkpt><trkpt lat="40.896390048748174" lon="0.533075833774741"><ele>93.33333333333334</ele><time>2026-05-03T13:24:55Z</time></trkpt><trkpt lat="40.896452865513474" lon="0.5331051250553192"><ele>95.0</ele><time>2026-05-03T13:24:56Z</time></trkpt><trkpt lat="40.89654176058329" lon="0.5331282740777097"><ele>95.0</ele><time>2026-05-03T13:24:57Z</time></trkpt><trkpt lat="40.896624323140216" lon="0.5331469937542574"><ele>95.0</ele><time>2026-05-03T13:24:58Z</time></trkpt><trkpt lat="40.896694072980104" lon="0.5331499660777662"><ele>95.0</ele><time>2026-05-03T13:24:58.999Z</time></trkpt><trkpt lat="40.89677633795959" lon="0.5331985090739731"><ele>95.0</ele><time>2026-05-03T13:25:00.999Z</time></trkpt><trkpt lat="40.8967450295314" lon="0.5333351252780986"><ele>95.0</ele><time>2026-05-03T13:25:02.999Z</time></trkpt><trkpt lat="40.89662566091657" lon="0.5333588047948059"><ele>95.0</ele><time>2026-05-03T13:25:04.999Z</time></trkpt><trkpt lat="40.89654361726814" lon="0.5333270325885682"><ele>95.0</ele><time>2026-05-03T13:25:05.999Z</time></trkpt><trkpt lat="40.89646343894885" lon="0.5333024753936791"><ele>95.0</ele><time>2026-05-03T13:25:06.999Z</time></trkpt><trkpt lat="40.89635237794626" lon="0.5332907900212994"><ele>95.0</ele><time>2026-05-03T13:25:08.999Z</time></trkpt><trkpt lat="40.89631157340514" lon="0.5333841918310531"><ele>95.0</ele><time>2026-05-03T13:25:10.999Z</time></trkpt><trkpt lat="40.896385032145" lon="0.5334949472623661"><ele>95.0</ele><time>2026-05-03T13:25:12.999Z</time></trkpt><trkpt lat="40.89648439914674" lon="0.5335743378310729"><ele>95.0</ele><time>2026-05-03T13:25:14.999Z</time></trkpt><trkpt lat="40.89651388719677" lon="0.5336533045324837"><ele>95.0</ele><time>2026-05-03T13:25:15.999Z</time></trkpt><trkpt lat="40.89651370065259" lon="0.5337684879335215"><ele>95.0</ele><time>2026-05-03T13:25:16.999Z</time></trkpt><trkpt lat="40.89651954371475" lon="0.5339195264980263"><ele>95.0</ele><time>2026-05-03T13:25:17.999Z</time></trkpt><trkpt lat="40.89652821134079" lon="0.5341074297206301"><ele>96.75</ele><time>2026-05-03T13:25:18.999Z</time></trkpt><trkpt lat="40.896543098936085" lon="0.534272228570845"><ele>98.5</ele><time>2026-05-03T13:25:19.999Z</time></trkpt><trkpt lat="40.89656226642621" lon="0.5344434588884754"><ele>100.25</ele><time>2026-05-03T13:25:20.999Z</time></trkpt><trkpt lat="40.896583067796726" lon="0.5346284471018073"><ele>102.0</ele><time>2026-05-03T13:25:21.999Z</time></trkpt><trkpt lat="40.89658893715877" lon="0.5347748031162054"><ele>103.8</ele><time>2026-05-03T13:25:22.999Z</time></trkpt><trkpt lat="40.89660862559846" lon="0.5349078251674558"><ele>105.6</ele><time>2026-05-03T13:25:23.999Z</time></trkpt><trkpt lat="40.896608945757244" lon="0.5350199624419724"><ele>107.39999999999999</ele><time>2026-05-03T13:25:24.999Z</time></trkpt><trkpt lat="40.896594018427" lon="0.5351062549129533"><ele>109.19999999999999</ele><time>2026-05-03T13:25:25.999Z</time></trkpt><trkpt lat="40.896521870219615" lon="0.5352165036356111"><ele>111.0</ele><time>2026-05-03T13:25:27.999Z</time></trkpt><trkpt lat="40.896445547073775" lon="0.5353792573951116"><ele>110.83333333333333</ele><time>2026-05-03T13:25:29.999Z</time></trkpt><trkpt lat="40.89642335535003" lon="0.5354656338974609"><ele>110.66666666666666</ele><time>2026-05-03T13:25:30.999Z</time></trkpt><trkpt lat="40.89643522131313" lon="0.535555861584338"><ele>110.5</ele><time>2026-05-03T13:25:31.999Z</time></trkpt><trkpt lat="40.89648369896447" lon="0.5356113719254884"><ele>110.33333333333333</ele><time>2026-05-03T13:25:32.999Z</time></trkpt><trkpt lat="40.89658763961747" lon="0.5356576771177602"><ele>110.16666666666666</ele><time>2026-05-03T13:25:34.999Z</time></trkpt><trkpt lat="40.89660427724378" lon="0.535775112027151"><ele>110.0</ele><time>2026-05-03T13:25:36.999Z</time></trkpt><trkpt lat="40.89650473920781" lon="0.5358865431416778"><ele>109.99999999999999</ele><time>2026-05-03T13:25:38.999Z</time></trkpt><trkpt lat="40.89645338239329" lon="0.5359566120432021"><ele>110.0</ele><time>2026-05-03T13:25:40Z</time></trkpt><trkpt lat="40.89640630765592" lon="0.5360298614135295"><ele>110.0</ele><time>2026-05-03T13:25:41Z</time></trkpt><trkpt lat="40.89636339795163" lon="0.5361071182676862"><ele>110.0</ele><time>2026-05-03T13:25:42Z</time></trkpt><trkpt lat="40.89631473106398" lon="0.5361857918836631"><ele>109.99999999999999</ele><time>2026-05-03T13:25:43Z</time></trkpt><trkpt lat="40.896270855205714" lon="0.5362800502072536"><ele>110.0</ele><time>2026-05-03T13:25:44Z</time></trkpt><trkpt lat="40.89623924694136" lon="0.5363678944008031"><ele>111.4</ele><time>2026-05-03T13:25:45Z</time></trkpt><trkpt lat="40.896196318586625" lon="0.5364430963266973"><ele>112.8</ele><time>2026-05-03T13:25:46Z</time></trkpt><trkpt lat="40.89612485949986" lon="0.5365469571225906"><ele>114.19999999999999</ele><time>2026-05-03T13:25:47Z</time></trkpt><trkpt lat="40.89605155798885" lon="0.5366618909430683"><ele>115.6</ele><time>2026-05-03T13:25:48Z</time></trkpt><trkpt lat="40.895976317982196" lon="0.5367696123008014"><ele>117.0</ele><time>2026-05-03T13:25:49Z</time></trkpt><trkpt lat="40.895910971516656" lon="0.5368355932862737"><ele>120.66666666666666</ele><time>2026-05-03T13:25:50Z</time></trkpt><trkpt lat="40.895821744670044" lon="0.536922841593581"><ele>124.33333333333333</ele><time>2026-05-03T13:25:51Z</time></trkpt><trkpt lat="40.89568574900929" lon="0.5370548954339371"><ele>128.0</ele><time>2026-05-03T13:25:52Z</time></trkpt><trkpt lat="40.89552550092488" lon="0.5371905762211676"><ele>128.0</ele><time>2026-05-03T13:25:53Z</time></trkpt><trkpt lat="40.89540401283764" lon="0.5373267983753247"><ele>128.0</ele><time>2026-05-03T13:25:54Z</time></trkpt><trkpt lat="40.89529330040941" lon="0.5374392612500364"><ele>128.0</ele><time>2026-05-03T13:25:55Z</time></trkpt><trkpt lat="40.89519445764049" lon="0.5375558268823833"><ele>128.0</ele><time>2026-05-03T13:25:56Z</time></trkpt><trkpt lat="40.89510965793312" lon="0.5376513358163194"><ele>129.4</ele><time>2026-05-03T13:25:57Z</time></trkpt><trkpt lat="40.8950297168065" lon="0.5377384943643102"><ele>130.8</ele><time>2026-05-03T13:25:58Z</time></trkpt><trkpt lat="40.89496902507069" lon="0.5378187837625698"><ele>132.2</ele><time>2026-05-03T13:25:59Z</time></trkpt><trkpt lat="40.89492632317915" lon="0.5379046973575905"><ele>133.6</ele><time>2026-05-03T13:26:00Z</time></trkpt><trkpt lat="40.894837195586085" lon="0.538016625199308"><ele>135.0</ele><time>2026-05-03T13:26:02Z</time></trkpt><trkpt lat="40.89477642794451" lon="0.538063488883168"><ele>135.0</ele><time>2026-05-03T13:26:03Z</time></trkpt><trkpt lat="40.894708453801286" lon="0.5380863005379996"><ele>135.0</ele><time>2026-05-03T13:26:04Z</time></trkpt><trkpt lat="40.89464300573667" lon="0.5381110551134101"><ele>135.0</ele><time>2026-05-03T13:26:05Z</time></trkpt><trkpt lat="40.89458905571777" lon="0.5381626940499944"><ele>135.0</ele><time>2026-05-03T13:26:06Z</time></trkpt><trkpt lat="40.894557757786174" lon="0.5382402337933833"><ele>135.0</ele><time>2026-05-03T13:26:07Z</time></trkpt><trkpt lat="40.89451913351766" lon="0.5383614970978751"><ele>135.0</ele><time>2026-05-03T13:26:08Z</time></trkpt><trkpt lat="40.89448689092559" lon="0.5384550094735204"><ele>135.0</ele><time>2026-05-03T13:26:09Z</time></trkpt><trkpt lat="40.89446123530876" lon="0.5385405676792304"><ele>135.0</ele><time>2026-05-03T13:26:10Z</time></trkpt><trkpt lat="40.894479907246534" lon="0.5386811773885123"><ele>135.0</ele><time>2026-05-03T13:26:12Z</time></trkpt><trkpt lat="40.89462251516184" lon="0.5387197040251096"><ele>135.0</ele><time>2026-05-03T13:26:15Z</time></trkpt><trkpt lat="40.894652904721724" lon="0.5388698088979992"><ele>135.0</ele><time>2026-05-03T13:26:17Z</time></trkpt><trkpt lat="40.89461435199703" lon="0.5389535823364751"><ele>135.0</ele><time>2026-05-03T13:26:18Z</time></trkpt><trkpt lat="40.89455279963993" lon="0.5390281282710335"><ele>137.0</ele><time>2026-05-03T13:26:19Z</time></trkpt><trkpt lat="40.894461639087204" lon="0.5391149741896999"><ele>139.0</ele><time>2026-05-03T13:26:20Z</time></trkpt><trkpt lat="40.89435421845823" lon="0.5392178434717628"><ele>141.0</ele><time>2026-05-03T13:26:21Z</time></trkpt><trkpt lat="40.89426845708239" lon="0.5393288992073083"><ele>143.0</ele><time>2026-05-03T13:26:22Z</time></trkpt><trkpt lat="40.894192655750395" lon="0.53945404463569"><ele>144.0</ele><time>2026-05-03T13:26:23Z</time></trkpt><trkpt lat="40.89412833092477" lon="0.5395980184944966"><ele>145.0</ele><time>2026-05-03T13:26:24Z</time></trkpt><trkpt lat="40.894078431035126" lon="0.5397245045523825"><ele>146.0</ele><time>2026-05-03T13:26:25Z</time></trkpt><trkpt lat="40.89403712629326" lon="0.5398257698556005"><ele>147.0</ele><time>2026-05-03T13:26:26Z</time></trkpt><trkpt lat="40.893977361140514" lon="0.5399010976081665"><ele>148.0</ele><time>2026-05-03T13:26:27Z</time></trkpt><trkpt lat="40.893888182030935" lon="0.5399845215110858"><ele>148.0</ele><time>2026-05-03T13:26:28Z</time></trkpt><trkpt lat="40.893773296256306" lon="0.5400949198011651"><ele>148.0</ele><time>2026-05-03T13:26:29Z</time></trkpt><trkpt lat="40.89366590559452" lon="0.5402123457195512"><ele>148.0</ele><time>2026-05-03T13:26:30Z</time></trkpt><trkpt lat="40.89358805822132" lon="0.5403092590138627"><ele>148.0</ele><time>2026-05-03T13:26:31Z</time></trkpt><trkpt lat="40.89351950092763" lon="0.5403958282813052"><ele>149.0</ele><time>2026-05-03T13:26:32Z</time></trkpt><trkpt lat="40.89346317704911" lon="0.540481565293715"><ele>150.0</ele><time>2026-05-03T13:26:33Z</time></trkpt><trkpt lat="40.89341850642271" lon="0.5405841140644833"><ele>151.0</ele><time>2026-05-03T13:26:34Z</time></trkpt><trkpt lat="40.89338282590106" lon="0.5407076297960786"><ele>152.0</ele><time>2026-05-03T13:26:35Z</time></trkpt><trkpt lat="40.89336120526244" lon="0.5408544703531086"><ele>153.0</ele><time>2026-05-03T13:26:36Z</time></trkpt><trkpt lat="40.893349387676146" lon="0.5410415161825687"><ele>155.0</ele><time>2026-05-03T13:26:37Z</time></trkpt><trkpt lat="40.89333983159842" lon="0.541231306823036"><ele>157.0</ele><time>2026-05-03T13:26:38Z</time></trkpt><trkpt lat="40.89332924709801" lon="0.5413655441520419"><ele>159.0</ele><time>2026-05-03T13:26:39Z</time></trkpt><trkpt lat="40.89331923143404" lon="0.5414940527913992"><ele>161.0</ele><time>2026-05-03T13:26:40Z</time></trkpt><trkpt lat="40.89331215912088" lon="0.5415875957839332"><ele>163.0</ele><time>2026-05-03T13:26:41Z</time></trkpt><trkpt lat="40.89328878382763" lon="0.5416809015397366"><ele>163.0</ele><time>2026-05-03T13:26:42Z</time></trkpt><trkpt lat="40.89323856317867" lon="0.5417749489994983"><ele>163.0</ele><time>2026-05-03T13:26:43Z</time></trkpt><trkpt lat="40.89316528183197" lon="0.5418865270499553"><ele>163.0</ele><time>2026-05-03T13:26:44Z</time></trkpt><trkpt lat="40.8930773745674" lon="0.5420446632298981"><ele>163.0</ele><time>2026-05-03T13:26:44.999Z</time></trkpt><trkpt lat="40.89300510322201" lon="0.5421816025623593"><ele>163.75</ele><time>2026-05-03T13:26:45.999Z</time></trkpt><trkpt lat="40.89295252188775" lon="0.5423000909160666"><ele>164.5</ele><time>2026-05-03T13:26:46.999Z</time></trkpt><trkpt lat="40.892873278326704" lon="0.5423982244123686"><ele>165.25</ele><time>2026-05-03T13:26:47.999Z</time></trkpt><trkpt lat="40.892776070427026" lon="0.542530365427816"><ele>166.0</ele><time>2026-05-03T13:26:48.999Z</time></trkpt><trkpt lat="40.89268870688969" lon="0.542630595025065"><ele>166.0</ele><time>2026-05-03T13:26:49.999Z</time></trkpt><trkpt lat="40.89261673554751" lon="0.5427384972034696"><ele>166.0</ele><time>2026-05-03T13:26:50.999Z</time></trkpt><trkpt lat="40.8925525445707" lon="0.5428370229027717"><ele>166.0</ele><time>2026-05-03T13:26:51.999Z</time></trkpt><trkpt lat="40.89250573259042" lon="0.5429310284097665"><ele>166.0</ele><time>2026-05-03T13:26:52.999Z</time></trkpt><trkpt lat="40.89246668850017" lon="0.5430514353537396"><ele>166.0</ele><time>2026-05-03T13:26:53.999Z</time></trkpt><trkpt lat="40.89243258443716" lon="0.5431713043772605"><ele>165.4</ele><time>2026-05-03T13:26:54.999Z</time></trkpt><trkpt lat="40.892404081177574" lon="0.5432836500818563"><ele>164.8</ele><time>2026-05-03T13:26:55.999Z</time></trkpt><trkpt lat="40.89238221453391" lon="0.5433916148040977"><ele>164.20000000000002</ele><time>2026-05-03T13:26:56.999Z</time></trkpt><trkpt lat="40.892363398873755" lon="0.5435155177156307"><ele>163.60000000000002</ele><time>2026-05-03T13:26:57.999Z</time></trkpt><trkpt lat="40.892331851127" lon="0.5436858218718444"><ele>163.0</ele><time>2026-05-03T13:26:58.999Z</time></trkpt><trkpt lat="40.8923035621198" lon="0.543838339884852"><ele>164.5</ele><time>2026-05-03T13:26:59.999Z</time></trkpt><trkpt lat="40.892278864852884" lon="0.543958945775162"><ele>166.0</ele><time>2026-05-03T13:27:00.999Z</time></trkpt><trkpt lat="40.892231894925594" lon="0.5440694484683573"><ele>167.5</ele><time>2026-05-03T13:27:01.999Z</time></trkpt><trkpt lat="40.89215058810537" lon="0.5441900806656987"><ele>169.0</ele><time>2026-05-03T13:27:02.999Z</time></trkpt><trkpt lat="40.89204271551612" lon="0.5443347403550215"><ele>169.0</ele><time>2026-05-03T13:27:03.999Z</time></trkpt><trkpt lat="40.891951601892465" lon="0.5444540207942437"><ele>169.0</ele><time>2026-05-03T13:27:04.999Z</time></trkpt><trkpt lat="40.891853739612486" lon="0.544603648533012"><ele>169.0</ele><time>2026-05-03T13:27:05.999Z</time></trkpt><trkpt lat="40.891760744207645" lon="0.5447370344307281"><ele>169.0</ele><time>2026-05-03T13:27:06.999Z</time></trkpt><trkpt lat="40.891679865496386" lon="0.5448616247098537"><ele>169.79999999999998</ele><time>2026-05-03T13:27:07.999Z</time></trkpt><trkpt lat="40.891598974128534" lon="0.5449665644031155"><ele>170.6</ele><time>2026-05-03T13:27:08.999Z</time></trkpt><trkpt lat="40.89152182093584" lon="0.545035183047057"><ele>171.4</ele><time>2026-05-03T13:27:09.999Z</time></trkpt><trkpt lat="40.8914489537382" lon="0.5451116718745547"><ele>172.2</ele><time>2026-05-03T13:27:10.999Z</time></trkpt><trkpt lat="40.89138901190219" lon="0.5451950087271298"><ele>173.0</ele><time>2026-05-03T13:27:11.999Z</time></trkpt><trkpt lat="40.8913335560318" lon="0.5452977476453595"><ele>174.66666666666666</ele><time>2026-05-03T13:27:12.999Z</time></trkpt><trkpt lat="40.891261999646446" lon="0.545455983229228"><ele>176.33333333333334</ele><time>2026-05-03T13:27:13.999Z</time></trkpt><trkpt lat="40.891186604013136" lon="0.5456565216039451"><ele>178.0</ele><time>2026-05-03T13:27:14.999Z</time></trkpt><trkpt lat="40.891105439467594" lon="0.5458912650691563"><ele>178.0</ele><time>2026-05-03T13:27:15.999Z</time></trkpt><trkpt lat="40.89101970853387" lon="0.5461491554028391"><ele>178.0</ele><time>2026-05-03T13:27:16.999Z</time></trkpt><trkpt lat="40.890945941113465" lon="0.5463890035048725"><ele>178.0</ele><time>2026-05-03T13:27:17.999Z</time></trkpt><trkpt lat="40.89089461062254" lon="0.5465638771700843"><ele>178.0</ele><time>2026-05-03T13:27:18.999Z</time></trkpt><trkpt lat="40.89084686251743" lon="0.5467251574131823"><ele>178.0</ele><time>2026-05-03T13:27:19.999Z</time></trkpt><trkpt lat="40.89077742636871" lon="0.5468424217004003"><ele>178.0</ele><time>2026-05-03T13:27:20.999Z</time></trkpt><trkpt lat="40.89073873566938" lon="0.546936646696075"><ele>178.0</ele><time>2026-05-03T13:27:21.999Z</time></trkpt><trkpt lat="40.89071203698418" lon="0.5470411174606201"><ele>178.0</ele><time>2026-05-03T13:27:22.999Z</time></trkpt><trkpt lat="40.89070649540378" lon="0.5471449351339526"><ele>179.0</ele><time>2026-05-03T13:27:23.999Z</time></trkpt><trkpt lat="40.89070198409073" lon="0.547252127813604"><ele>180.0</ele><time>2026-05-03T13:27:24.999Z</time></trkpt><trkpt lat="40.89069668427675" lon="0.5473909376196117"><ele>181.0</ele><time>2026-05-03T13:27:25.999Z</time></trkpt><trkpt lat="40.8906909682876" lon="0.547555311026336"><ele>182.0</ele><time>2026-05-03T13:27:26.999Z</time></trkpt><trkpt lat="40.89068622275766" lon="0.5476799349777568"><ele>183.0</ele><time>2026-05-03T13:27:27.999Z</time></trkpt><trkpt lat="40.890680207520276" lon="0.5478021119247399"><ele>184.2</ele><time>2026-05-03T13:27:28.999Z</time></trkpt><trkpt lat="40.89067298411013" lon="0.5479114643284362"><ele>185.4</ele><time>2026-05-03T13:27:29.999Z</time></trkpt><trkpt lat="40.89066718482368" lon="0.548031735941497"><ele>186.6</ele><time>2026-05-03T13:27:30.999Z</time></trkpt><trkpt lat="40.890641910788595" lon="0.5481734329303543"><ele>187.79999999999998</ele><time>2026-05-03T13:27:31.999Z</time></trkpt><trkpt lat="40.89062763705706" lon="0.5482921231932719"><ele>189.0</ele><time>2026-05-03T13:27:32.999Z</time></trkpt><trkpt lat="40.890597668588136" lon="0.5483947600058934"><ele>189.0</ele><time>2026-05-03T13:27:33.999Z</time></trkpt><trkpt lat="40.89057808261449" lon="0.5484980990363661"><ele>189.0</ele><time>2026-05-03T13:27:34.999Z</time></trkpt><trkpt lat="40.89056271133362" lon="0.5485957866429401"><ele>189.0</ele><time>2026-05-03T13:27:35.999Z</time></trkpt><trkpt lat="40.890551501259026" lon="0.5487196585538265"><ele>189.0</ele><time>2026-05-03T13:27:36.999Z</time></trkpt><trkpt lat="40.890547189047396" lon="0.548865386750741"><ele>189.0</ele><time>2026-05-03T13:27:37.999Z</time></trkpt><trkpt lat="40.890552472634496" lon="0.5490319381820706"><ele>189.39999999999998</ele><time>2026-05-03T13:27:38.999Z</time></trkpt><trkpt lat="40.890571890881304" lon="0.5492198064376042"><ele>189.8</ele><time>2026-05-03T13:27:39.999Z</time></trkpt><trkpt lat="40.890592517421304" lon="0.5493708810039055"><ele>190.2</ele><time>2026-05-03T13:27:40.999Z</time></trkpt><trkpt lat="40.890587828833844" lon="0.5495010841079387"><ele>190.60000000000002</ele><time>2026-05-03T13:27:41.999Z</time></trkpt><trkpt lat="40.89060103070597" lon="0.5496103098180481"><ele>191.0</ele><time>2026-05-03T13:27:42.999Z</time></trkpt><trkpt lat="40.890597488006826" lon="0.5497118989261472"><ele>191.5</ele><time>2026-05-03T13:27:43.999Z</time></trkpt><trkpt lat="40.89059762025206" lon="0.549867579470264"><ele>192.0</ele><time>2026-05-03T13:27:46Z</time></trkpt><trkpt lat="40.89059724416031" lon="0.5499589698421822"><ele>192.5</ele><time>2026-05-03T13:27:47Z</time></trkpt><trkpt lat="40.89059223113984" lon="0.5500613596957997"><ele>193.0</ele><time>2026-05-03T13:27:48Z</time></trkpt><trkpt lat="40.890582677096795" lon="0.5501698373847773"><ele>193.50000000000003</ele><time>2026-05-03T13:27:49Z</time></trkpt><trkpt lat="40.89053802859018" lon="0.5502838496443394"><ele>194.0</ele><time>2026-05-03T13:27:50Z</time></trkpt><trkpt lat="40.89050664007476" lon="0.5504103992370566"><ele>194.79999999999998</ele><time>2026-05-03T13:27:51Z</time></trkpt><trkpt lat="40.89045265757458" lon="0.550535841861122"><ele>195.6</ele><time>2026-05-03T13:27:52Z</time></trkpt><trkpt lat="40.89040323881738" lon="0.5506702672347993"><ele>196.4</ele><time>2026-05-03T13:27:53Z</time></trkpt><trkpt lat="40.890371784962944" lon="0.5507945654019035"><ele>197.2</ele><time>2026-05-03T13:27:54Z</time></trkpt><trkpt lat="40.89033452294834" lon="0.5509237812040109"><ele>198.0</ele><time>2026-05-03T13:27:55Z</time></trkpt><trkpt lat="40.890291851817835" lon="0.5510411053630775"><ele>198.0</ele><time>2026-05-03T13:27:56Z</time></trkpt><trkpt lat="40.890259690163" lon="0.5511689147233011"><ele>198.0</ele><time>2026-05-03T13:27:57Z</time></trkpt><trkpt lat="40.89022978259058" lon="0.551281612293278"><ele>198.0</ele><time>2026-05-03T13:27:58Z</time></trkpt><trkpt lat="40.890198982564755" lon="0.5513866682381142"><ele>198.0</ele><time>2026-05-03T13:27:59Z</time></trkpt><trkpt lat="40.89015591450051" lon="0.551482503398548"><ele>198.0</ele><time>2026-05-03T13:28:00Z</time></trkpt><trkpt lat="40.890092512310034" lon="0.5515663388034037"><ele>198.16666666666666</ele><time>2026-05-03T13:28:01Z</time></trkpt><trkpt lat="40.8900162512278" lon="0.5516377287959328"><ele>198.33333333333331</ele><time>2026-05-03T13:28:02Z</time></trkpt><trkpt lat="40.8899359670932" lon="0.5516672530832396"><ele>198.5</ele><time>2026-05-03T13:28:03Z</time></trkpt><trkpt lat="40.88988159263543" lon="0.5517397169019426"><ele>198.66666666666666</ele><time>2026-05-03T13:28:04Z</time></trkpt><trkpt lat="40.889828200811195" lon="0.5517904493082272"><ele>198.83333333333331</ele><time>2026-05-03T13:28:05Z</time></trkpt><trkpt lat="40.88982217250459" lon="0.5518803876936037"><ele>199.0</ele><time>2026-05-03T13:28:06Z</time></trkpt><trkpt lat="40.88985065418237" lon="0.5520405763898758"><ele>198.99999999999997</ele><time>2026-05-03T13:28:08Z</time></trkpt><trkpt lat="40.88988076924092" lon="0.552116607732211"><ele>199.0</ele><time>2026-05-03T13:28:09Z</time></trkpt><trkpt lat="40.889909154368546" lon="0.5522217115869384"><ele>199.0</ele><time>2026-05-03T13:28:10Z</time></trkpt><trkpt lat="40.88992526123852" lon="0.5523513547896425"><ele>199.0</ele><time>2026-05-03T13:28:11Z</time></trkpt><trkpt lat="40.889948709254604" lon="0.5524651558942844"><ele>198.99999999999997</ele><time>2026-05-03T13:28:12Z</time></trkpt><trkpt lat="40.88996880571633" lon="0.5525565608335414"><ele>199.0</ele><time>2026-05-03T13:28:13Z</time></trkpt><trkpt lat="40.889991003553824" lon="0.5526464359617747"><ele>198.99999999999997</ele><time>2026-05-03T13:28:14Z</time></trkpt><trkpt lat="40.89001559897081" lon="0.5527306432983767"><ele>199.0</ele><time>2026-05-03T13:28:15Z</time></trkpt><trkpt lat="40.890037557317605" lon="0.5528153631617371"><ele>199.0</ele><time>2026-05-03T13:28:16Z</time></trkpt><trkpt lat="40.890064688039566" lon="0.5529075968491439"><ele>199.0</ele><time>2026-05-03T13:28:17Z</time></trkpt><trkpt lat="40.890085297368024" lon="0.5529885295862271"><ele>198.99999999999997</ele><time>2026-05-03T13:28:18Z</time></trkpt><trkpt lat="40.8901195119122" lon="0.5531079470638894"><ele>199.0</ele><time>2026-05-03T13:28:20Z</time></trkpt><trkpt lat="40.89013547511631" lon="0.5532748238420224"><ele>200.99999999999997</ele><time>2026-05-03T13:28:22Z</time></trkpt><trkpt lat="40.89012327677006" lon="0.5533658167809505"><ele>203.0</ele><time>2026-05-03T13:28:23Z</time></trkpt><trkpt lat="40.890107204944016" lon="0.5534937432362672"><ele>205.0</ele><time>2026-05-03T13:28:25Z</time></trkpt><trkpt lat="40.890106644448245" lon="0.553578245775035"><ele>207.0</ele><time>2026-05-03T13:28:28Z</time></trkpt><trkpt lat="40.890130268096485" lon="0.5536838121203084"><ele>208.99999999999997</ele><time>2026-05-03T13:28:42Z</time></trkpt><trkpt lat="40.890172806150815" lon="0.5537816456862961"><ele>211.0</ele><time>2026-05-03T13:28:43Z</time></trkpt><trkpt lat="40.89022288787321" lon="0.5538753687985587"><ele>212.0</ele><time>2026-05-03T13:28:44Z</time></trkpt><trkpt lat="40.89025091116907" lon="0.5539868350513634"><ele>213.0</ele><time>2026-05-03T13:28:45Z</time></trkpt><trkpt lat="40.89027205817579" lon="0.5541195332785676"><ele>214.0</ele><time>2026-05-03T13:28:46Z</time></trkpt><trkpt lat="40.890260870972504" lon="0.5542849394584546"><ele>215.0</ele><time>2026-05-03T13:28:47Z</time></trkpt><trkpt lat="40.89025812957697" lon="0.5544617052140415"><ele>215.25</ele><time>2026-05-03T13:28:48Z</time></trkpt><trkpt lat="40.890256553254204" lon="0.5546382185274676"><ele>215.5</ele><time>2026-05-03T13:28:49Z</time></trkpt><trkpt lat="40.89027282099347" lon="0.5547959187942315"><ele>215.75</ele><time>2026-05-03T13:28:50Z</time></trkpt><trkpt lat="40.89026389699353" lon="0.5549327129320508"><ele>216.0</ele><time>2026-05-03T13:28:51Z</time></trkpt><trkpt lat="40.89025955041814" lon="0.5550677568156084"><ele>216.0</ele><time>2026-05-03T13:28:52Z</time></trkpt><trkpt lat="40.890237067568734" lon="0.5552174082900696"><ele>216.00000000000003</ele><time>2026-05-03T13:28:53Z</time></trkpt><trkpt lat="40.890223149191165" lon="0.555351060164445"><ele>216.00000000000003</ele><time>2026-05-03T13:28:54Z</time></trkpt><trkpt lat="40.890223940387855" lon="0.5554565297567706"><ele>216.0</ele><time>2026-05-03T13:28:55Z</time></trkpt><trkpt lat="40.89022939386348" lon="0.5555508850497642"><ele>216.0</ele><time>2026-05-03T13:28:56Z</time></trkpt><trkpt lat="40.890221358792935" lon="0.555706605094091"><ele>214.0</ele><time>2026-05-03T13:28:57.999Z</time></trkpt><trkpt lat="40.89017454436984" lon="0.5558766027742922"><ele>212.0</ele><time>2026-05-03T13:28:59.999Z</time></trkpt><trkpt lat="40.890117699491796" lon="0.5560115399819968"><ele>210.0</ele><time>2026-05-03T13:29:00.999Z</time></trkpt><trkpt lat="40.89006527172158" lon="0.5561842984999001"><ele>208.0</ele><time>2026-05-03T13:29:01.999Z</time></trkpt><trkpt lat="40.890033220564966" lon="0.556353540786767"><ele>207.60000000000002</ele><time>2026-05-03T13:29:02.999Z</time></trkpt><trkpt lat="40.89001317485358" lon="0.5564941667491206"><ele>207.20000000000002</ele><time>2026-05-03T13:29:03.999Z</time></trkpt><trkpt lat="40.889989862478934" lon="0.5566051156008024"><ele>206.8</ele><time>2026-05-03T13:29:04.999Z</time></trkpt><trkpt lat="40.889985611429694" lon="0.5567070987699687"><ele>206.4</ele><time>2026-05-03T13:29:05.999Z</time></trkpt><trkpt lat="40.88997261079897" lon="0.5567984907516578"><ele>206.0</ele><time>2026-05-03T13:29:06.999Z</time></trkpt><trkpt lat="40.889991108104724" lon="0.5569601554232877"><ele>206.00000000000003</ele><time>2026-05-03T13:29:08.999Z</time></trkpt><trkpt lat="40.89003453644412" lon="0.5570329498738282"><ele>206.0</ele><time>2026-05-03T13:29:09.999Z</time></trkpt><trkpt lat="40.89007093213438" lon="0.5571085062224587"><ele>206.0</ele><time>2026-05-03T13:29:10.999Z</time></trkpt><trkpt lat="40.890061816998646" lon="0.5572628937362424"><ele>206.0</ele><time>2026-05-03T13:29:12.999Z</time></trkpt><trkpt lat="40.89005825714761" lon="0.5573683048344982"><ele>206.00000000000003</ele><time>2026-05-03T13:29:13.999Z</time></trkpt><trkpt lat="40.890021531834115" lon="0.5574983993470894"><ele>206.0</ele><time>2026-05-03T13:29:14.999Z</time></trkpt><trkpt lat="40.890001994098554" lon="0.5576304278886066"><ele>208.0</ele><time>2026-05-03T13:29:15.999Z</time></trkpt><trkpt lat="40.890000500252754" lon="0.5577417647445396"><ele>210.0</ele><time>2026-05-03T13:29:16.999Z</time></trkpt><trkpt lat="40.890005624530545" lon="0.5578922275156049"><ele>212.0</ele><time>2026-05-03T13:29:17.999Z</time></trkpt><trkpt lat="40.8899903097334" lon="0.5580754478212457"><ele>214.0</ele><time>2026-05-03T13:29:18.999Z</time></trkpt><trkpt lat="40.88997945309249" lon="0.5582436658337918"><ele>215.49999999999997</ele><time>2026-05-03T13:29:19.999Z</time></trkpt><trkpt lat="40.889971641155" lon="0.5583769423014947"><ele>217.0</ele><time>2026-05-03T13:29:20.999Z</time></trkpt><trkpt lat="40.889978090718195" lon="0.5584935485532717"><ele>218.5</ele><time>2026-05-03T13:29:21.999Z</time></trkpt><trkpt lat="40.89000531066223" lon="0.5585963812998721"><ele>220.0</ele><time>2026-05-03T13:29:22.999Z</time></trkpt><trkpt lat="40.890027838291175" lon="0.5587013792813541"><ele>221.49999999999997</ele><time>2026-05-03T13:29:23.999Z</time></trkpt><trkpt lat="40.89009639786823" lon="0.5587780706949895"><ele>223.0</ele><time>2026-05-03T13:29:24.999Z</time></trkpt><trkpt lat="40.89013599365675" lon="0.5588451028115113"><ele>227.5</ele><time>2026-05-03T13:29:25.999Z</time></trkpt><trkpt lat="40.890236424342675" lon="0.5589048033498961"><ele>232.0</ele><time>2026-05-03T13:29:27.999Z</time></trkpt><trkpt lat="40.89036126794841" lon="0.558841218844938"><ele>236.5</ele><time>2026-05-03T13:29:29.999Z</time></trkpt><trkpt lat="40.89046602911367" lon="0.5587816037787052"><ele>241.0</ele><time>2026-05-03T13:29:30.999Z</time></trkpt><trkpt lat="40.89055745496397" lon="0.5587228975442784"><ele>240.0</ele><time>2026-05-03T13:29:31.999Z</time></trkpt><trkpt lat="40.89062411061385" lon="0.5586917188197567"><ele>239.00000000000003</ele><time>2026-05-03T13:29:32.999Z</time></trkpt><trkpt lat="40.89070774260198" lon="0.5586846741844427"><ele>238.00000000000003</ele><time>2026-05-03T13:29:33.999Z</time></trkpt><trkpt lat="40.890820311215755" lon="0.558692902229338"><ele>237.0</ele><time>2026-05-03T13:29:34.999Z</time></trkpt><trkpt lat="40.890922477092204" lon="0.5586995122438771"><ele>236.0</ele><time>2026-05-03T13:29:35.999Z</time></trkpt><trkpt lat="40.89100394808484" lon="0.5587017729029423"><ele>236.00000000000003</ele><time>2026-05-03T13:29:36.999Z</time></trkpt><trkpt lat="40.89106882688202" lon="0.5587224642684986"><ele>236.0</ele><time>2026-05-03T13:29:37.999Z</time></trkpt><trkpt lat="40.891152413180826" lon="0.5588200495338194"><ele>236.0</ele><time>2026-05-03T13:29:39.999Z</time></trkpt><trkpt lat="40.89116669176605" lon="0.5589090016326885"><ele>236.0</ele><time>2026-05-03T13:29:40.999Z</time></trkpt><trkpt lat="40.89120356854583" lon="0.5590192234242434"><ele>236.00000000000003</ele><time>2026-05-03T13:29:41.999Z</time></trkpt><trkpt lat="40.891236166830666" lon="0.5591471524294808"><ele>236.0</ele><time>2026-05-03T13:29:42.999Z</time></trkpt><trkpt lat="40.89127508933978" lon="0.559284628043584"><ele>236.00000000000003</ele><time>2026-05-03T13:29:43.999Z</time></trkpt><trkpt lat="40.891319737384904" lon="0.5594092817452149"><ele>236.0</ele><time>2026-05-03T13:29:44.999Z</time></trkpt><trkpt lat="40.89135392945372" lon="0.5594982429977712"><ele>236.0</ele><time>2026-05-03T13:29:45.999Z</time></trkpt><trkpt lat="40.89138965506279" lon="0.5595784451860287"><ele>236.0</ele><time>2026-05-03T13:29:46.999Z</time></trkpt><trkpt lat="40.891452883652505" lon="0.5596613912845974"><ele>236.00000000000003</ele><time>2026-05-03T13:29:47.999Z</time></trkpt><trkpt lat="40.89152197274547" lon="0.5597204895597632"><ele>236.0</ele><time>2026-05-03T13:29:48.999Z</time></trkpt><trkpt lat="40.89158489873453" lon="0.5597735149874411"><ele>236.0</ele><time>2026-05-03T13:29:49.999Z</time></trkpt><trkpt lat="40.89166240143041" lon="0.5598933779672947"><ele>236.0</ele><time>2026-05-03T13:29:52Z</time></trkpt><trkpt lat="40.891692218059454" lon="0.5600020093110244"><ele>236.0</ele><time>2026-05-03T13:29:53Z</time></trkpt><trkpt lat="40.89173225668704" lon="0.5601526568815756"><ele>236.0</ele><time>2026-05-03T13:29:54Z</time></trkpt><trkpt lat="40.89177757165659" lon="0.5603118680789679"><ele>239.20000000000002</ele><time>2026-05-03T13:29:55Z</time></trkpt><trkpt lat="40.891828322932035" lon="0.5604437669320705"><ele>242.40000000000003</ele><time>2026-05-03T13:29:56Z</time></trkpt><trkpt lat="40.891876873168904" lon="0.56056406101058"><ele>245.6</ele><time>2026-05-03T13:29:57Z</time></trkpt><trkpt lat="40.89192794275573" lon="0.5606678051372566"><ele>248.8</ele><time>2026-05-03T13:29:58Z</time></trkpt><trkpt lat="40.891970761797616" lon="0.5607744753959918"><ele>252.0</ele><time>2026-05-03T13:29:59Z</time></trkpt><trkpt lat="40.892035317935594" lon="0.5608888606948845"><ele>252.0</ele><time>2026-05-03T13:30:00Z</time></trkpt><trkpt lat="40.89210049601001" lon="0.5609980430926722"><ele>252.0</ele><time>2026-05-03T13:30:01Z</time></trkpt><trkpt lat="40.89214430029333" lon="0.5610807957866001"><ele>252.0</ele><time>2026-05-03T13:30:02Z</time></trkpt><trkpt lat="40.892211747367895" lon="0.5611388160225353"><ele>252.0</ele><time>2026-05-03T13:30:03Z</time></trkpt><trkpt lat="40.89227424523545" lon="0.5611988183509213"><ele>252.0</ele><time>2026-05-03T13:30:04Z</time></trkpt><trkpt lat="40.89233764292684" lon="0.5612691915879611"><ele>252.0</ele><time>2026-05-03T13:30:05Z</time></trkpt><trkpt lat="40.89240206615307" lon="0.5613324272875961"><ele>251.0</ele><time>2026-05-03T13:30:06Z</time></trkpt><trkpt lat="40.892470040998234" lon="0.5614032527753472"><ele>250.0</ele><time>2026-05-03T13:30:07Z</time></trkpt><trkpt lat="40.89250882978728" lon="0.5614697826616697"><ele>249.0</ele><time>2026-05-03T13:30:08Z</time></trkpt><trkpt lat="40.89252830221067" lon="0.5615555002425855"><ele>248.0</ele><time>2026-05-03T13:30:09Z</time></trkpt><trkpt lat="40.89255897107341" lon="0.5616822398587373"><ele>247.0</ele><time>2026-05-03T13:30:10Z</time></trkpt><trkpt lat="40.89258174343072" lon="0.5617987858429544"><ele>246.0</ele><time>2026-05-03T13:30:11Z</time></trkpt><trkpt lat="40.892595376325836" lon="0.5618949579077993"><ele>246.0</ele><time>2026-05-03T13:30:12Z</time></trkpt><trkpt lat="40.89259023378601" lon="0.5619904842638129"><ele>246.00000000000003</ele><time>2026-05-03T13:30:13Z</time></trkpt><trkpt lat="40.892581760000965" lon="0.5621135571763496"><ele>246.00000000000003</ele><time>2026-05-03T13:30:14Z</time></trkpt><trkpt lat="40.892590694631416" lon="0.5622675201952433"><ele>246.0</ele><time>2026-05-03T13:30:15Z</time></trkpt><trkpt lat="40.892607303878314" lon="0.5624040823803083"><ele>246.0</ele><time>2026-05-03T13:30:16Z</time></trkpt><trkpt lat="40.892619490763444" lon="0.5624864950809146"><ele>249.16666666666666</ele><time>2026-05-03T13:30:17Z</time></trkpt><trkpt lat="40.89265874135506" lon="0.5626263877011781"><ele>252.33333333333331</ele><time>2026-05-03T13:30:19Z</time></trkpt><trkpt lat="40.8927015497593" lon="0.5626928807571453"><ele>255.5</ele><time>2026-05-03T13:30:20Z</time></trkpt><trkpt lat="40.892796002220734" lon="0.5627855713823827"><ele>258.66666666666663</ele><time>2026-05-03T13:30:22Z</time></trkpt><trkpt lat="40.892842581394895" lon="0.5628417247043009"><ele>261.8333333333333</ele><time>2026-05-03T13:30:23Z</time></trkpt><trkpt lat="40.89289254443431" lon="0.5629309281870756"><ele>265.0</ele><time>2026-05-03T13:30:24Z</time></trkpt><trkpt lat="40.892942034491384" lon="0.5630347190308076"><ele>268.66666666666663</ele><time>2026-05-03T13:30:25Z</time></trkpt><trkpt lat="40.892998521524085" lon="0.5631367930175797"><ele>272.3333333333333</ele><time>2026-05-03T13:30:26Z</time></trkpt><trkpt lat="40.8930587554619" lon="0.5632204099559254"><ele>276.0</ele><time>2026-05-03T13:30:27Z</time></trkpt><trkpt lat="40.89311367520171" lon="0.563274396464826"><ele>279.6666666666667</ele><time>2026-05-03T13:30:28Z</time></trkpt><trkpt lat="40.893170595676615" lon="0.5633305045174481"><ele>283.33333333333337</ele><time>2026-05-03T13:30:29Z</time></trkpt><trkpt lat="40.89325146802343" lon="0.5633901981983916"><ele>287.0</ele><time>2026-05-03T13:30:30Z</time></trkpt><trkpt lat="40.89332080680484" lon="0.563438783933196"><ele>287.0</ele><time>2026-05-03T13:30:31Z</time></trkpt><trkpt lat="40.893385235282096" lon="0.5634526027881982"><ele>287.0</ele><time>2026-05-03T13:30:32Z</time></trkpt><trkpt lat="40.89347062849407" lon="0.5634332576587173"><ele>287.0</ele><time>2026-05-03T13:30:33Z</time></trkpt><trkpt lat="40.89353088033969" lon="0.5633951053262334"><ele>287.0</ele><time>2026-05-03T13:30:34Z</time></trkpt><trkpt lat="40.893615011409274" lon="0.5636126758638516"><ele>287.0</ele><time>2026-05-03T13:30:40Z</time></trkpt><trkpt lat="40.8935797729466" lon="0.5637048168970196"><ele>285.8</ele><time>2026-05-03T13:30:41Z</time></trkpt><trkpt lat="40.8935533623849" lon="0.5638244942935203"><ele>284.6</ele><time>2026-05-03T13:30:42Z</time></trkpt><trkpt lat="40.893581646665176" lon="0.5639570235081802"><ele>283.40000000000003</ele><time>2026-05-03T13:30:44Z</time></trkpt><trkpt lat="40.89360886247797" lon="0.5641350452847506"><ele>282.2</ele><time>2026-05-03T13:30:46Z</time></trkpt><trkpt lat="40.89364576966982" lon="0.5642741591561092"><ele>281.0</ele><time>2026-05-03T13:30:47Z</time></trkpt><trkpt lat="40.89370182444701" lon="0.5644278164974204"><ele>283.8</ele><time>2026-05-03T13:30:48Z</time></trkpt><trkpt lat="40.89376155687009" lon="0.5645653750390082"><ele>286.6</ele><time>2026-05-03T13:30:49Z</time></trkpt><trkpt lat="40.893822443214255" lon="0.5646700206854932"><ele>289.4</ele><time>2026-05-03T13:30:50Z</time></trkpt><trkpt lat="40.893899623483286" lon="0.564765325541913"><ele>292.2</ele><time>2026-05-03T13:30:51Z</time></trkpt><trkpt lat="40.893968177555024" lon="0.5648343264355624"><ele>295.0</ele><time>2026-05-03T13:30:52Z</time></trkpt><trkpt lat="40.89402185059596" lon="0.5648954988206903"><ele>295.0</ele><time>2026-05-03T13:30:53Z</time></trkpt><trkpt lat="40.894060115624335" lon="0.5650276958468068"><ele>295.0</ele><time>2026-05-03T13:30:55Z</time></trkpt><trkpt lat="40.894055918563694" lon="0.5651201362006919"><ele>295.0</ele><time>2026-05-03T13:30:56Z</time></trkpt><trkpt lat="40.89405102350413" lon="0.5652248335194286"><ele>295.0</ele><time>2026-05-03T13:30:57Z</time></trkpt><trkpt lat="40.894058792766266" lon="0.5653466149461233"><ele>295.0</ele><time>2026-05-03T13:30:58Z</time></trkpt><trkpt lat="40.894100964588986" lon="0.5654762275522437"><ele>295.8</ele><time>2026-05-03T13:30:59Z</time></trkpt><trkpt lat="40.89415853914892" lon="0.5656049558692183"><ele>296.6</ele><time>2026-05-03T13:31:00Z</time></trkpt><trkpt lat="40.894212871903804" lon="0.5657185488275983"><ele>297.4</ele><time>2026-05-03T13:31:01Z</time></trkpt><trkpt lat="40.89424825282314" lon="0.5658137560139929"><ele>298.2</ele><time>2026-05-03T13:31:02Z</time></trkpt><trkpt lat="40.894301733793455" lon="0.5659303957813192"><ele>299.0</ele><time>2026-05-03T13:31:03Z</time></trkpt><trkpt lat="40.894321952961796" lon="0.5660509533423613"><ele>299.0</ele><time>2026-05-03T13:31:04Z</time></trkpt><trkpt lat="40.894357638895734" lon="0.5661538232025614"><ele>299.0</ele><time>2026-05-03T13:31:05Z</time></trkpt><trkpt lat="40.89441058052998" lon="0.5662660032021375"><ele>299.0</ele><time>2026-05-03T13:31:06Z</time></trkpt><trkpt lat="40.89446133540216" lon="0.5663601290753794"><ele>299.0</ele><time>2026-05-03T13:31:07Z</time></trkpt><trkpt lat="40.89451926548922" lon="0.5664478751292116"><ele>299.0</ele><time>2026-05-03T13:31:08Z</time></trkpt><trkpt lat="40.89458861783685" lon="0.5665442886308808"><ele>303.2</ele><time>2026-05-03T13:31:08.999Z</time></trkpt><trkpt lat="40.89465437712779" lon="0.5666260394833605"><ele>307.4</ele><time>2026-05-03T13:31:09.999Z</time></trkpt><trkpt lat="40.894734493093104" lon="0.5666807884420325"><ele>311.6</ele><time>2026-05-03T13:31:10.999Z</time></trkpt><trkpt lat="40.89483357934043" lon="0.566723326653159"><ele>315.8</ele><time>2026-05-03T13:31:11.999Z</time></trkpt><trkpt lat="40.89492380114574" lon="0.5667341947144977"><ele>320.0</ele><time>2026-05-03T13:31:12.999Z</time></trkpt><trkpt lat="40.89503356937047" lon="0.5667542033126437"><ele>322.0</ele><time>2026-05-03T13:31:14.999Z</time></trkpt><trkpt lat="40.89511165009103" lon="0.566793716897051"><ele>324.0</ele><time>2026-05-03T13:31:16.999Z</time></trkpt><trkpt lat="40.89517990412133" lon="0.5668483867829558"><ele>326.0</ele><time>2026-05-03T13:31:17.999Z</time></trkpt><trkpt lat="40.895252345796315" lon="0.5669349018626506"><ele>328.0</ele><time>2026-05-03T13:31:18.999Z</time></trkpt><trkpt lat="40.895343618256994" lon="0.5670191985553154"><ele>330.0</ele><time>2026-05-03T13:31:19.999Z</time></trkpt><trkpt lat="40.8954184768861" lon="0.5670757142618731"><ele>330.0</ele><time>2026-05-03T13:31:20.999Z</time></trkpt><trkpt lat="40.895483881912774" lon="0.5671033039549347"><ele>330.0</ele><time>2026-05-03T13:31:21.999Z</time></trkpt><trkpt lat="40.895565303983936" lon="0.5671161350264843"><ele>330.0</ele><time>2026-05-03T13:31:22.999Z</time></trkpt><trkpt lat="40.8956508752928" lon="0.567128130233676"><ele>330.0</ele><time>2026-05-03T13:31:23.999Z</time></trkpt><trkpt lat="40.89575530565154" lon="0.5670995465577695"><ele>330.0</ele><time>2026-05-03T13:31:25.999Z</time></trkpt><trkpt lat="40.89581532940107" lon="0.5670534220234205"><ele>330.0</ele><time>2026-05-03T13:31:26.999Z</time></trkpt><trkpt lat="40.89587069440692" lon="0.5670116073751622"><ele>331.5</ele><time>2026-05-03T13:31:27.999Z</time></trkpt><trkpt lat="40.89595520341587" lon="0.5670534663657952"><ele>333.0</ele><time>2026-05-03T13:31:29.999Z</time></trkpt><trkpt lat="40.8959817739715" lon="0.567129658615625"><ele>334.5</ele><time>2026-05-03T13:31:30.999Z</time></trkpt><trkpt lat="40.895990268521864" lon="0.5672181712160701"><ele>336.0</ele><time>2026-05-03T13:31:31.999Z</time></trkpt><trkpt lat="40.896007193016246" lon="0.5673509937533158"><ele>337.5</ele><time>2026-05-03T13:31:32.999Z</time></trkpt><trkpt lat="40.896031736329086" lon="0.5675094662714237"><ele>339.0</ele><time>2026-05-03T13:31:33.999Z</time></trkpt><trkpt lat="40.89607253191742" lon="0.5676275338707383"><ele>339.0</ele><time>2026-05-03T13:31:34.999Z</time></trkpt><trkpt lat="40.89611509795044" lon="0.5677248522232482"><ele>339.0</ele><time>2026-05-03T13:31:35.999Z</time></trkpt><trkpt lat="40.896179946922636" lon="0.5678211172996678"><ele>339.0</ele><time>2026-05-03T13:31:36.999Z</time></trkpt><trkpt lat="40.8962650579222" lon="0.5679186648937473"><ele>339.0</ele><time>2026-05-03T13:31:37.999Z</time></trkpt><trkpt lat="40.89634295285947" lon="0.5679918823555287"><ele>339.0</ele><time>2026-05-03T13:31:38.999Z</time></trkpt><trkpt lat="40.8964250034432" lon="0.5680436339913414"><ele>341.2</ele><time>2026-05-03T13:31:39.999Z</time></trkpt><trkpt lat="40.89651832123858" lon="0.5680870314349464"><ele>343.4</ele><time>2026-05-03T13:31:40.999Z</time></trkpt><trkpt lat="40.896603759443785" lon="0.5681361553452257"><ele>345.6</ele><time>2026-05-03T13:31:41.999Z</time></trkpt><trkpt lat="40.89666495752684" lon="0.5681875126902833"><ele>347.8</ele><time>2026-05-03T13:31:42.999Z</time></trkpt><trkpt lat="40.8967760874752" lon="0.5682429224234145"><ele>350.0</ele><time>2026-05-03T13:31:44.999Z</time></trkpt><trkpt lat="40.89691854749022" lon="0.5682296774934568"><ele>353.2</ele><time>2026-05-03T13:31:46.999Z</time></trkpt><trkpt lat="40.89702608699511" lon="0.5681844497291547"><ele>356.4</ele><time>2026-05-03T13:31:47.999Z</time></trkpt><trkpt lat="40.89713610654429" lon="0.5681400232509894"><ele>359.6</ele><time>2026-05-03T13:31:48.999Z</time></trkpt><trkpt lat="40.89721517783109" lon="0.568090499693941"><ele>362.8</ele><time>2026-05-03T13:31:49.999Z</time></trkpt><trkpt lat="40.897284812189696" lon="0.5680579717758947"><ele>366.0</ele><time>2026-05-03T13:31:50.999Z</time></trkpt><trkpt lat="40.897404452956266" lon="0.5680901014366214"><ele>366.0</ele><time>2026-05-03T13:31:52.999Z</time></trkpt><trkpt lat="40.897483769359425" lon="0.5681634337565815"><ele>366.0</ele><time>2026-05-03T13:31:53.999Z</time></trkpt><trkpt lat="40.89758528133836" lon="0.5682419949135225"><ele>366.0</ele><time>2026-05-03T13:31:54.999Z</time></trkpt><trkpt lat="40.897690520691505" lon="0.5682814837295707"><ele>366.0</ele><time>2026-05-03T13:31:55.999Z</time></trkpt><trkpt lat="40.89778251457819" lon="0.5682887891786333"><ele>366.0</ele><time>2026-05-03T13:31:56.999Z</time></trkpt><trkpt lat="40.897846261661165" lon="0.5682857961177907"><ele>365.0</ele><time>2026-05-03T13:31:58Z</time></trkpt><trkpt lat="40.89793561562795" lon="0.5683001696204056"><ele>364.0</ele><time>2026-05-03T13:32:00Z</time></trkpt><trkpt lat="40.89801602370433" lon="0.5683701586495262"><ele>363.0</ele><time>2026-05-03T13:32:02Z</time></trkpt><trkpt lat="40.89808387914412" lon="0.5684707095661291"><ele>362.0</ele><time>2026-05-03T13:32:03Z</time></trkpt><trkpt lat="40.898173644169965" lon="0.5685909803266989"><ele>361.0</ele><time>2026-05-03T13:32:04Z</time></trkpt><trkpt lat="40.89825705841959" lon="0.5686857824340217"><ele>360.3333333333333</ele><time>2026-05-03T13:32:05Z</time></trkpt><trkpt lat="40.89832539241779" lon="0.5687590313987058"><ele>359.66666666666663</ele><time>2026-05-03T13:32:06Z</time></trkpt><trkpt lat="40.89839408423395" lon="0.5688203640242202"><ele>359.0</ele><time>2026-05-03T13:32:07Z</time></trkpt><trkpt lat="40.89843620673835" lon="0.5688933701559158"><ele>358.3333333333333</ele><time>2026-05-03T13:32:08Z</time></trkpt><trkpt lat="40.89845726129612" lon="0.5689746546106516"><ele>357.6666666666667</ele><time>2026-05-03T13:32:09Z</time></trkpt><trkpt lat="40.898457789049004" lon="0.5691358415543089"><ele>357.0</ele><time>2026-05-03T13:32:11Z</time></trkpt><trkpt lat="40.89847106805446" lon="0.569242404645292"><ele>357.0</ele><time>2026-05-03T13:32:12Z</time></trkpt><trkpt lat="40.89848770566328" lon="0.569346891062996"><ele>357.0</ele><time>2026-05-03T13:32:13Z</time></trkpt><trkpt lat="40.89849802495424" lon="0.5694510343650692"><ele>357.0</ele><time>2026-05-03T13:32:14Z</time></trkpt><trkpt lat="40.898515835781716" lon="0.5695736737994408"><ele>357.0</ele><time>2026-05-03T13:32:15Z</time></trkpt><trkpt lat="40.89854208796912" lon="0.5696956225498712"><ele>357.0</ele><time>2026-05-03T13:32:16Z</time></trkpt><trkpt lat="40.898569289575306" lon="0.5698147941275521"><ele>357.0</ele><time>2026-05-03T13:32:17Z</time></trkpt><trkpt lat="40.89860491228815" lon="0.5699272500182971"><ele>359.8</ele><time>2026-05-03T13:32:18Z</time></trkpt><trkpt lat="40.898640477535274" lon="0.5700255323785811"><ele>362.6</ele><time>2026-05-03T13:32:19Z</time></trkpt><trkpt lat="40.89867095100336" lon="0.570104449035137"><ele>365.40000000000003</ele><time>2026-05-03T13:32:20Z</time></trkpt><trkpt lat="40.898703065858925" lon="0.5701907477410327"><ele>368.20000000000005</ele><time>2026-05-03T13:32:21Z</time></trkpt><trkpt lat="40.89876902206609" lon="0.5703238043402247"><ele>371.0</ele><time>2026-05-03T13:32:23Z</time></trkpt><trkpt lat="40.89887330584595" lon="0.5704028199512929"><ele>371.0</ele><time>2026-05-03T13:32:25Z</time></trkpt><trkpt lat="40.898946742260726" lon="0.5704349221185575"><ele>371.0</ele><time>2026-05-03T13:32:26Z</time></trkpt><trkpt lat="40.89906817318281" lon="0.570422628116908"><ele>371.0</ele><time>2026-05-03T13:32:27Z</time></trkpt><trkpt lat="40.899159199144215" lon="0.5703913940863354"><ele>371.0</ele><time>2026-05-03T13:32:28Z</time></trkpt><trkpt lat="40.899222419112256" lon="0.5703417404885981"><ele>371.0</ele><time>2026-05-03T13:32:29Z</time></trkpt><trkpt lat="40.89928381446125" lon="0.5702705725856061"><ele>371.0</ele><time>2026-05-03T13:32:30Z</time></trkpt><trkpt lat="40.89933210832847" lon="0.5702129010450241"><ele>371.83333333333337</ele><time>2026-05-03T13:32:31Z</time></trkpt><trkpt lat="40.89944334871002" lon="0.5701716787997019"><ele>372.6666666666667</ele><time>2026-05-03T13:32:33Z</time></trkpt><trkpt lat="40.89950728094883" lon="0.5701897691944195"><ele>373.5</ele><time>2026-05-03T13:32:34Z</time></trkpt><trkpt lat="40.89956520488522" lon="0.5702532549049874"><ele>374.3333333333333</ele><time>2026-05-03T13:32:35Z</time></trkpt><trkpt lat="40.89961768719387" lon="0.5703422219676504"><ele>375.16666666666663</ele><time>2026-05-03T13:32:36Z</time></trkpt><trkpt lat="40.89965722840988" lon="0.570439022171021"><ele>376.0</ele><time>2026-05-03T13:32:37Z</time></trkpt><trkpt lat="40.89969546238912" lon="0.5705119040713605"><ele>376.0</ele><time>2026-05-03T13:32:38Z</time></trkpt><trkpt lat="40.8997413842427" lon="0.5705768318878018"><ele>376.0</ele><time>2026-05-03T13:32:39Z</time></trkpt><trkpt lat="40.89978533560138" lon="0.5706415655475822"><ele>376.0</ele><time>2026-05-03T13:32:40Z</time></trkpt><trkpt lat="40.899822583537045" lon="0.5707102754719184"><ele>376.0</ele><time>2026-05-03T13:32:41Z</time></trkpt><trkpt lat="40.89984814623773" lon="0.5707938365558344"><ele>376.0</ele><time>2026-05-03T13:32:42Z</time></trkpt><trkpt lat="40.89988143013883" lon="0.5709067341591558"><ele>376.0</ele><time>2026-05-03T13:32:43Z</time></trkpt><trkpt lat="40.89990388040853" lon="0.5710287312373111"><ele>376.0</ele><time>2026-05-03T13:32:44Z</time></trkpt><trkpt lat="40.899920156389804" lon="0.5711535909126244"><ele>376.0</ele><time>2026-05-03T13:32:45Z</time></trkpt><trkpt lat="40.89994097543267" lon="0.5712599930457078"><ele>376.0</ele><time>2026-05-03T13:32:46Z</time></trkpt><trkpt lat="40.89999686298747" lon="0.5713990350672679"><ele>376.0</ele><time>2026-05-03T13:32:47Z</time></trkpt><trkpt lat="40.900056298143376" lon="0.571527098422043"><ele>376.0</ele><time>2026-05-03T13:32:48Z</time></trkpt><trkpt lat="40.90011257508817" lon="0.5716170324302946"><ele>378.4</ele><time>2026-05-03T13:32:49Z</time></trkpt><trkpt lat="40.90017535136115" lon="0.5716935142801051"><ele>380.8</ele><time>2026-05-03T13:32:50Z</time></trkpt><trkpt lat="40.90023093534002" lon="0.571800343199229"><ele>383.2</ele><time>2026-05-03T13:32:51Z</time></trkpt><trkpt lat="40.90028353630527" lon="0.5719253566645489"><ele>385.59999999999997</ele><time>2026-05-03T13:32:52Z</time></trkpt><trkpt lat="40.90033014595296" lon="0.5720682802959194"><ele>388.0</ele><time>2026-05-03T13:32:53Z</time></trkpt><trkpt lat="40.900374794495505" lon="0.5722101973721222"><ele>388.0</ele><time>2026-05-03T13:32:54Z</time></trkpt><trkpt lat="40.9004131021347" lon="0.5723668559373384"><ele>388.0</ele><time>2026-05-03T13:32:55Z</time></trkpt><trkpt lat="40.900432856546026" lon="0.5724964600668174"><ele>388.0</ele><time>2026-05-03T13:32:56Z</time></trkpt><trkpt lat="40.900446686260224" lon="0.5726220018519441"><ele>388.0</ele><time>2026-05-03T13:32:57Z</time></trkpt><trkpt lat="40.90048581436258" lon="0.5727729305525356"><ele>388.0</ele><time>2026-05-03T13:32:58Z</time></trkpt><trkpt lat="40.90054759766177" lon="0.5729726835025042"><ele>391.75</ele><time>2026-05-03T13:32:59Z</time></trkpt><trkpt lat="40.90060417057082" lon="0.5731450993989645"><ele>395.5</ele><time>2026-05-03T13:33:00Z</time></trkpt><trkpt lat="40.90065174244843" lon="0.5732871845611875"><ele>399.25</ele><time>2026-05-03T13:33:01Z</time></trkpt><trkpt lat="40.90068915085912" lon="0.5734072263939356"><ele>403.0</ele><time>2026-05-03T13:33:02Z</time></trkpt><trkpt lat="40.900725913512225" lon="0.5735339211658909"><ele>403.0</ele><time>2026-05-03T13:33:03Z</time></trkpt><trkpt lat="40.90076193272373" lon="0.5736620257664493"><ele>403.0</ele><time>2026-05-03T13:33:04Z</time></trkpt><trkpt lat="40.9008002839087" lon="0.5737741194398994"><ele>403.0</ele><time>2026-05-03T13:33:05Z</time></trkpt><trkpt lat="40.90084287160899" lon="0.5738764566531859"><ele>403.0</ele><time>2026-05-03T13:33:06Z</time></trkpt><trkpt lat="40.900880810978094" lon="0.5739958144301788"><ele>403.0</ele><time>2026-05-03T13:33:07Z</time></trkpt><trkpt lat="40.90088501231364" lon="0.5741060810464983"><ele>404.83333333333337</ele><time>2026-05-03T13:33:08Z</time></trkpt><trkpt lat="40.90088020078933" lon="0.5742154691124982"><ele>406.6666666666667</ele><time>2026-05-03T13:33:09Z</time></trkpt><trkpt lat="40.90088270670232" lon="0.5743343518659018"><ele>408.5</ele><time>2026-05-03T13:33:10Z</time></trkpt><trkpt lat="40.90090501827237" lon="0.574440518889796"><ele>410.33333333333337</ele><time>2026-05-03T13:33:11Z</time></trkpt><trkpt lat="40.90093903866711" lon="0.5745246473795966"><ele>412.1666666666667</ele><time>2026-05-03T13:33:12Z</time></trkpt><trkpt lat="40.900992078812564" lon="0.5745925991163547"><ele>414.0</ele><time>2026-05-03T13:33:13Z</time></trkpt><trkpt lat="40.90104710218299" lon="0.5746643239079262"><ele>408.4</ele><time>2026-05-03T13:33:14Z</time></trkpt><trkpt lat="40.90109883597568" lon="0.5747544905175546"><ele>402.79999999999995</ele><time>2026-05-03T13:33:15Z</time></trkpt><trkpt lat="40.90115295919686" lon="0.574859889422696"><ele>397.20000000000005</ele><time>2026-05-03T13:33:16Z</time></trkpt><trkpt lat="40.90118065399477" lon="0.5749522837740714"><ele>391.6</ele><time>2026-05-03T13:33:17Z</time></trkpt><trkpt lat="40.901200779585615" lon="0.5751217700998521"><ele>386.0</ele><time>2026-05-03T13:33:18.999Z</time></trkpt><trkpt lat="40.90116173252477" lon="0.5752066515943723"><ele>386.0</ele><time>2026-05-03T13:33:19.999Z</time></trkpt><trkpt lat="40.9011180625199" lon="0.5753108047330739"><ele>386.0</ele><time>2026-05-03T13:33:20.999Z</time></trkpt><trkpt lat="40.90108616774794" lon="0.5754050707397549"><ele>386.0</ele><time>2026-05-03T13:33:21.999Z</time></trkpt><trkpt lat="40.90109231339153" lon="0.5755134571488191"><ele>386.0</ele><time>2026-05-03T13:33:22.999Z</time></trkpt><trkpt lat="40.90111057088418" lon="0.5756468260222742"><ele>386.0</ele><time>2026-05-03T13:33:23.999Z</time></trkpt><trkpt lat="40.90113354962502" lon="0.5757944060933563"><ele>387.8333333333333</ele><time>2026-05-03T13:33:24.999Z</time></trkpt><trkpt lat="40.90115198883281" lon="0.5759228111040874"><ele>389.66666666666663</ele><time>2026-05-03T13:33:25.999Z</time></trkpt><trkpt lat="40.901195804787115" lon="0.5760239856948042"><ele>391.5</ele><time>2026-05-03T13:33:26.999Z</time></trkpt><trkpt lat="40.90124370901456" lon="0.576124608094456"><ele>393.33333333333337</ele><time>2026-05-03T13:33:27.999Z</time></trkpt><trkpt lat="40.90127131194768" lon="0.5762200022485255"><ele>395.1666666666667</ele><time>2026-05-03T13:33:28.999Z</time></trkpt><trkpt lat="40.90128751260852" lon="0.5763353097910789"><ele>397.0</ele><time>2026-05-03T13:33:29.999Z</time></trkpt><trkpt lat="40.90127617785468" lon="0.5764563930209259"><ele>399.6</ele><time>2026-05-03T13:33:30.999Z</time></trkpt><trkpt lat="40.90127980437774" lon="0.5765819590578144"><ele>402.20000000000005</ele><time>2026-05-03T13:33:31.999Z</time></trkpt><trkpt lat="40.90128119918354" lon="0.57670062058259"><ele>404.8</ele><time>2026-05-03T13:33:32.999Z</time></trkpt><trkpt lat="40.901269060876416" lon="0.5768046668922701"><ele>407.4</ele><time>2026-05-03T13:33:33.999Z</time></trkpt><trkpt lat="40.901238147677084" lon="0.5769371034026285"><ele>410.0</ele><time>2026-05-03T13:33:34.999Z</time></trkpt><trkpt lat="40.90120362014605" lon="0.5770928248643532"><ele>412.0</ele><time>2026-05-03T13:33:35.999Z</time></trkpt><trkpt lat="40.90117306629797" lon="0.5772070496066515"><ele>414.0</ele><time>2026-05-03T13:33:36.999Z</time></trkpt><trkpt lat="40.901164829376995" lon="0.5773489373292368"><ele>416.0</ele><time>2026-05-03T13:33:37.999Z</time></trkpt><trkpt lat="40.901165814395554" lon="0.5774708099380053"><ele>418.0</ele><time>2026-05-03T13:33:38.999Z</time></trkpt><trkpt lat="40.90118062395924" lon="0.5776026598387132"><ele>420.0</ele><time>2026-05-03T13:33:39.999Z</time></trkpt><trkpt lat="40.90118392143348" lon="0.5777258391959191"><ele>420.0</ele><time>2026-05-03T13:33:40.999Z</time></trkpt><trkpt lat="40.90118341838822" lon="0.5778438248601828"><ele>420.0</ele><time>2026-05-03T13:33:41.999Z</time></trkpt><trkpt lat="40.90120618794765" lon="0.5779259110525197"><ele>420.0</ele><time>2026-05-03T13:33:42.999Z</time></trkpt><trkpt lat="40.90123817972759" lon="0.5780099170741302"><ele>420.0</ele><time>2026-05-03T13:33:43.999Z</time></trkpt><trkpt lat="40.90128563559884" lon="0.5780859122424258"><ele>420.0</ele><time>2026-05-03T13:33:44.999Z</time></trkpt><trkpt lat="40.90133948717292" lon="0.5781334121536786"><ele>420.0</ele><time>2026-05-03T13:33:45.999Z</time></trkpt><trkpt lat="40.901462093848124" lon="0.5781537805199932"><ele>417.2</ele><time>2026-05-03T13:33:47.999Z</time></trkpt><trkpt lat="40.9015614163128" lon="0.578139529962806"><ele>414.4</ele><time>2026-05-03T13:33:48.999Z</time></trkpt><trkpt lat="40.90167236351993" lon="0.5781884704131369"><ele>411.6</ele><time>2026-05-03T13:33:50.999Z</time></trkpt><trkpt lat="40.90171028169583" lon="0.5782744056404102"><ele>408.8</ele><time>2026-05-03T13:33:51.999Z</time></trkpt><trkpt lat="40.90172986935299" lon="0.5783886452933168"><ele>406.0</ele><time>2026-05-03T13:33:52.999Z</time></trkpt><trkpt lat="40.901764414639445" lon="0.5785348098639681"><ele>405.83333333333337</ele><time>2026-05-03T13:33:53.999Z</time></trkpt><trkpt lat="40.90179153570004" lon="0.5786858114639422"><ele>405.6666666666667</ele><time>2026-05-03T13:33:54.999Z</time></trkpt><trkpt lat="40.90180158013486" lon="0.5788109896604078"><ele>405.5</ele><time>2026-05-03T13:33:55.999Z</time></trkpt><trkpt lat="40.901808989630084" lon="0.5789170887698947"><ele>405.33333333333337</ele><time>2026-05-03T13:33:56.999Z</time></trkpt><trkpt lat="40.90180350470842" lon="0.5790133947876864"><ele>405.1666666666667</ele><time>2026-05-03T13:33:57.999Z</time></trkpt><trkpt lat="40.901765915752684" lon="0.5791029970612523"><ele>405.0</ele><time>2026-05-03T13:33:58.999Z</time></trkpt><trkpt lat="40.901702078596465" lon="0.5791966627556008"><ele>415.25</ele><time>2026-05-03T13:33:59.999Z</time></trkpt><trkpt lat="40.90161027126457" lon="0.5793124776519023"><ele>425.5</ele><time>2026-05-03T13:34:00.999Z</time></trkpt><trkpt lat="40.90152129798436" lon="0.5794398705936624"><ele>435.75</ele><time>2026-05-03T13:34:01.999Z</time></trkpt><trkpt lat="40.9014661629361" lon="0.5795654003650044"><ele>446.0</ele><time>2026-05-03T13:34:02.999Z</time></trkpt><trkpt lat="40.901429452615425" lon="0.5796962977160255"><ele>445.99999999999994</ele><time>2026-05-03T13:34:04Z</time></trkpt><trkpt lat="40.90141380458051" lon="0.5798155395698041"><ele>446.0</ele><time>2026-05-03T13:34:05Z</time></trkpt><trkpt lat="40.90138197092661" lon="0.5799041581610378"><ele>446.0</ele><time>2026-05-03T13:34:06Z</time></trkpt><trkpt lat="40.901324394481556" lon="0.5799632190627845"><ele>446.0</ele><time>2026-05-03T13:34:07Z</time></trkpt><trkpt lat="40.901284552479765" lon="0.5801018802241761"><ele>445.99999999999994</ele><time>2026-05-03T13:34:09Z</time></trkpt><trkpt lat="40.90132323169741" lon="0.5801773744299356"><ele>446.0</ele><time>2026-05-03T13:34:10Z</time></trkpt><trkpt lat="40.901363121712066" lon="0.5802530127278903"><ele>446.0</ele><time>2026-05-03T13:34:11Z</time></trkpt><trkpt lat="40.901392240181956" lon="0.580341458313233"><ele>446.0</ele><time>2026-05-03T13:34:12Z</time></trkpt><trkpt lat="40.9014018021147" lon="0.5804379614951755"><ele>446.0</ele><time>2026-05-03T13:34:13Z</time></trkpt><trkpt lat="40.90138320315219" lon="0.5805523830172525"><ele>446.0</ele><time>2026-05-03T13:34:14Z</time></trkpt><trkpt lat="40.90136827097693" lon="0.5806930525999459"><ele>446.0</ele><time>2026-05-03T13:34:15Z</time></trkpt><trkpt lat="40.90134732102557" lon="0.5808466892486225"><ele>445.16666666666663</ele><time>2026-05-03T13:34:16Z</time></trkpt><trkpt lat="40.90132656102798" lon="0.5809839676702476"><ele>444.3333333333333</ele><time>2026-05-03T13:34:17Z</time></trkpt><trkpt lat="40.90131181699292" lon="0.581098243736298"><ele>443.5</ele><time>2026-05-03T13:34:18Z</time></trkpt><trkpt lat="40.9012961679463" lon="0.5811860739289619"><ele>442.66666666666663</ele><time>2026-05-03T13:34:19Z</time></trkpt><trkpt lat="40.9012641726983" lon="0.5812830820423059"><ele>441.8333333333333</ele><time>2026-05-03T13:34:20Z</time></trkpt><trkpt lat="40.901226919267735" lon="0.5813505688325779"><ele>441.0</ele><time>2026-05-03T13:34:21Z</time></trkpt><trkpt lat="40.90123673103743" lon="0.5814342925313501"><ele>443.0</ele><time>2026-05-03T13:34:22Z</time></trkpt><trkpt lat="40.90128730652462" lon="0.581512839370808"><ele>445.0</ele><time>2026-05-03T13:34:23Z</time></trkpt><trkpt lat="40.90136963570865" lon="0.5816041504216596"><ele>447.0</ele><time>2026-05-03T13:34:24Z</time></trkpt><trkpt lat="40.90143902092709" lon="0.5816755884577801"><ele>449.0</ele><time>2026-05-03T13:34:25Z</time></trkpt><trkpt lat="40.901507970992654" lon="0.5817432567225069"><ele>451.0</ele><time>2026-05-03T13:34:26Z</time></trkpt><trkpt lat="40.90157197933547" lon="0.5818020206528778"><ele>453.0</ele><time>2026-05-03T13:34:27Z</time></trkpt><trkpt lat="40.90162306445625" lon="0.5818652341343205"><ele>454.4</ele><time>2026-05-03T13:34:28Z</time></trkpt><trkpt lat="40.901650235810635" lon="0.5820228793626016"><ele>455.79999999999995</ele><time>2026-05-03T13:34:30Z</time></trkpt><trkpt lat="40.90165397389727" lon="0.582126924603288"><ele>457.2</ele><time>2026-05-03T13:34:31Z</time></trkpt><trkpt lat="40.901650348822955" lon="0.5822183507409091"><ele>458.6</ele><time>2026-05-03T13:34:32Z</time></trkpt><trkpt lat="40.90166153952102" lon="0.5823533926053234"><ele>460.0</ele><time>2026-05-03T13:34:34Z</time></trkpt><trkpt lat="40.90166845099903" lon="0.5824548335460994"><ele>460.00000000000006</ele><time>2026-05-03T13:34:36Z</time></trkpt><trkpt lat="40.901568188744974" lon="0.5825136825198247"><ele>460.0</ele><time>2026-05-03T13:36:39Z</time></trkpt><trkpt lat="40.90160126063797" lon="0.5825852452254212"><ele>460.0</ele><time>2026-05-03T13:36:43Z</time></trkpt><trkpt lat="40.90163805382767" lon="0.5826636327278988"><ele>460.0</ele><time>2026-05-03T13:36:47Z</time></trkpt><trkpt lat="40.90167204546084" lon="0.5827349281217905"><ele>460.00000000000006</ele><time>2026-05-03T13:36:51Z</time></trkpt><trkpt lat="40.90169365255846" lon="0.5828293336470928"><ele>460.0</ele><time>2026-05-03T13:36:56Z</time></trkpt><trkpt lat="40.90175797260447" lon="0.5829208095379516"><ele>458.2857142857142</ele><time>2026-05-03T13:37:52.999Z</time></trkpt><trkpt lat="40.901813334897426" lon="0.5828742909174028"><ele>456.57142857142856</ele><time>2026-05-03T13:38:08.999Z</time></trkpt><trkpt lat="40.90184082053336" lon="0.5827878873133274"><ele>454.85714285714283</ele><time>2026-05-03T13:39:03Z</time></trkpt><trkpt lat="40.90191153991147" lon="0.5827519310070634"><ele>453.1428571428571</ele><time>2026-05-03T13:39:15Z</time></trkpt><trkpt lat="40.90189977242222" lon="0.5828438996312172"><ele>451.42857142857144</ele><time>2026-05-03T13:39:34.999Z</time></trkpt><trkpt lat="40.901894579083994" lon="0.5829357312274266"><ele>449.7142857142857</ele><time>2026-05-03T13:39:42.999Z</time></trkpt><trkpt lat="40.90191250513053" lon="0.583015665896513"><ele>448.0</ele><time>2026-05-03T13:39:51.999Z</time></trkpt><trkpt lat="40.90197223244517" lon="0.5830597670096734"><ele>448.0</ele><time>2026-05-03T13:39:56.999Z</time></trkpt><trkpt lat="40.90201890543435" lon="0.5831184922727164"><ele>448.0</ele><time>2026-05-03T13:40:03.999Z</time></trkpt><trkpt lat="40.90206080054416" lon="0.5831913821664358"><ele>448.0</ele><time>2026-05-03T13:40:12.999Z</time></trkpt><trkpt lat="40.902119023536535" lon="0.5832378400008464"><ele>448.0</ele><time>2026-05-03T13:40:24Z</time></trkpt><trkpt lat="40.902058514389225" lon="0.5831920770377802"><ele>448.0</ele><time>2026-05-03T13:42:21.999Z</time></trkpt><trkpt lat="40.9019913085582" lon="0.583184002361365"><ele>448.0</ele><time>2026-05-03T13:42:35Z</time></trkpt><trkpt lat="40.90195173814511" lon="0.5831078058624342"><ele>448.0</ele><time>2026-05-03T13:42:45Z</time></trkpt><trkpt lat="40.901891160757835" lon="0.5830599577585512"><ele>448.0</ele><time>2026-05-03T13:42:53Z</time></trkpt><trkpt lat="40.9018542105072" lon="0.582990558653314"><ele>448.0</ele><time>2026-05-03T13:43:02Z</time></trkpt><trkpt lat="40.90180007814358" lon="0.5829358223151301"><ele>448.0</ele><time>2026-05-03T13:43:09Z</time></trkpt><trkpt lat="40.90173232924639" lon="0.5829079625561638"><ele>448.0</ele><time>2026-05-03T13:43:18Z</time></trkpt><trkpt lat="40.901661554247106" lon="0.5828735286152182"><ele>448.0</ele><time>2026-05-03T13:43:24Z</time></trkpt><trkpt lat="40.90167905553039" lon="0.5827913748496496"><ele>448.0</ele><time>2026-05-03T13:43:35.999Z</time></trkpt><trkpt lat="40.9016221262641" lon="0.5827526280582761"><ele>448.0</ele><time>2026-05-03T13:43:44.999Z</time></trkpt><trkpt lat="40.90164893001533" lon="0.5826629812083762"><ele>449.7142857142857</ele><time>2026-05-03T13:43:50.999Z</time></trkpt><trkpt lat="40.901656694849656" lon="0.5825728730340459"><ele>451.42857142857144</ele><time>2026-05-03T13:43:56.999Z</time></trkpt><trkpt lat="40.901634522217044" lon="0.5824885968574989"><ele>453.1428571428571</ele><time>2026-05-03T13:44:05.999Z</time></trkpt><trkpt lat="40.901601824890584" lon="0.5825601146053401"><ele>454.85714285714283</ele><time>2026-05-03T13:46:54Z</time></trkpt><trkpt lat="40.90153868928964" lon="0.5826292118217447"><ele>456.57142857142856</ele><time>2026-05-03T13:46:59Z</time></trkpt><trkpt lat="40.901495230204624" lon="0.5826980964855669"><ele>458.2857142857142</ele><time>2026-05-03T13:47:02Z</time></trkpt><trkpt lat="40.90144465804746" lon="0.582755060503147"><ele>459.99999999999994</ele><time>2026-05-03T13:47:05Z</time></trkpt><trkpt lat="40.90137139290622" lon="0.5828119285421937"><ele>458.8571428571428</ele><time>2026-05-03T13:47:08Z</time></trkpt><trkpt lat="40.90130653973734" lon="0.5828617493343957"><ele>457.71428571428567</ele><time>2026-05-03T13:47:11Z</time></trkpt><trkpt lat="40.90125701003388" lon="0.5829291092352518"><ele>456.57142857142856</ele><time>2026-05-03T13:47:15Z</time></trkpt><trkpt lat="40.901214163333485" lon="0.5829961799687263"><ele>455.4285714285714</ele><time>2026-05-03T13:47:19Z</time></trkpt><trkpt lat="40.901250645128286" lon="0.5830658387440099"><ele>454.2857142857142</ele><time>2026-05-03T13:47:25Z</time></trkpt><trkpt lat="40.90131669043436" lon="0.5831034458902061"><ele>453.14285714285717</ele><time>2026-05-03T13:47:35Z</time></trkpt><trkpt lat="40.901384232692834" lon="0.5831391345326379"><ele>452.0</ele><time>2026-05-03T13:47:41Z</time></trkpt><trkpt lat="40.90146047277761" lon="0.5831708006747199"><ele>451.99999999999994</ele><time>2026-05-03T13:47:45.999Z</time></trkpt><trkpt lat="40.90154382611872" lon="0.5831667564646646"><ele>452.0</ele><time>2026-05-03T13:47:48.999Z</time></trkpt><trkpt lat="40.90160679075901" lon="0.5831552709227852"><ele>452.0</ele><time>2026-05-03T13:47:52.999Z</time></trkpt><trkpt lat="40.90167590824259" lon="0.5831244743608605"><ele>452.0</ele><time>2026-05-03T13:47:55.999Z</time></trkpt><trkpt lat="40.90174503837158" lon="0.5831074400712613"><ele>451.99999999999994</ele><time>2026-05-03T13:48:00.999Z</time></trkpt><trkpt lat="40.90180047599317" lon="0.5831536339690685"><ele>452.0</ele><time>2026-05-03T13:48:03.999Z</time></trkpt><trkpt lat="40.901856083417435" lon="0.5832626025984757"><ele>451.42857142857144</ele><time>2026-05-03T13:48:07.999Z</time></trkpt><trkpt lat="40.9018800399959" lon="0.5833406763769804"><ele>450.85714285714283</ele><time>2026-05-03T13:48:11.999Z</time></trkpt><trkpt lat="40.901913427669115" lon="0.5834310528173089"><ele>450.2857142857143</ele><time>2026-05-03T13:48:14.999Z</time></trkpt><trkpt lat="40.9019344407463" lon="0.5835138614072747"><ele>449.7142857142857</ele><time>2026-05-03T13:48:19.999Z</time></trkpt><trkpt lat="40.90200804819884" lon="0.5835233391962877"><ele>449.1428571428571</ele><time>2026-05-03T13:48:25.999Z</time></trkpt><trkpt lat="40.90206194542251" lon="0.5835707384066011"><ele>448.57142857142856</ele><time>2026-05-03T13:48:33.999Z</time></trkpt><trkpt lat="40.902122462209704" lon="0.583529028798595"><ele>448.0</ele><time>2026-05-03T13:48:38.999Z</time></trkpt><trkpt lat="40.902324375553704" lon="0.5835006809991837"><ele>448.0</ele><time>2026-05-03T13:49:01Z</time></trkpt><trkpt lat="40.90241575746184" lon="0.5835231013174526"><ele>448.0</ele><time>2026-05-03T13:49:05Z</time></trkpt><trkpt lat="40.90251170758671" lon="0.5835397256651694"><ele>448.0</ele><time>2026-05-03T13:49:10Z</time></trkpt><trkpt lat="40.90265724085061" lon="0.5837217841789668"><ele>448.0</ele><time>2026-05-03T13:49:21Z</time></trkpt><trkpt lat="40.90267821527437" lon="0.5838042024144889"><ele>445.83333333333337</ele><time>2026-05-03T13:49:25Z</time></trkpt><trkpt lat="40.9026820245002" lon="0.5838978798847232"><ele>443.6666666666667</ele><time>2026-05-03T13:49:52Z</time></trkpt><trkpt lat="40.902746774965976" lon="0.5839899127992791"><ele>441.5</ele><time>2026-05-03T13:51:35Z</time></trkpt><trkpt lat="40.90267770897035" lon="0.5839072490437227"><ele>439.33333333333337</ele><time>2026-05-03T13:55:38Z</time></trkpt><trkpt lat="40.902658872668866" lon="0.5838170445221831"><ele>437.1666666666667</ele><time>2026-05-03T13:56:55.999Z</time></trkpt><trkpt lat="40.90267476384748" lon="0.5839029459926947"><ele>435.0</ele><time>2026-05-03T13:58:09Z</time></trkpt><trkpt lat="40.902648424117146" lon="0.5838191760875718"><ele>435.00000000000006</ele><time>2026-05-03T13:59:03.999Z</time></trkpt><trkpt lat="40.90266105797642" lon="0.5837133937693932"><ele>435.0</ele><time>2026-05-03T13:59:09.999Z</time></trkpt><trkpt lat="40.9026282804854" lon="0.5836405616937058"><ele>435.0</ele><time>2026-05-03T13:59:41Z</time></trkpt><trkpt lat="40.90259803153773" lon="0.5835644595239244"><ele>435.0</ele><time>2026-05-03T13:59:51Z</time></trkpt><trkpt lat="40.902535654221964" lon="0.5835278067093844"><ele>435.0</ele><time>2026-05-03T13:59:54Z</time></trkpt><trkpt lat="40.90245121512245" lon="0.583530030935249"><ele>435.00000000000006</ele><time>2026-05-03T14:00:08Z</time></trkpt><trkpt lat="40.902379147303755" lon="0.5835026699982437"><ele>435.0</ele><time>2026-05-03T14:00:13Z</time></trkpt><trkpt lat="40.90228933388496" lon="0.5835289931836113"><ele>436.8571428571429</ele><time>2026-05-03T14:00:18Z</time></trkpt><trkpt lat="40.90222653731327" lon="0.5835366277739106"><ele>438.7142857142857</ele><time>2026-05-03T14:00:23Z</time></trkpt><trkpt lat="40.90216339318158" lon="0.5835444464778814"><ele>440.57142857142856</ele><time>2026-05-03T14:00:28Z</time></trkpt><trkpt lat="40.902098016111275" lon="0.583580313732723"><ele>442.42857142857144</ele><time>2026-05-03T14:00:32Z</time></trkpt><trkpt lat="40.90203317476204" lon="0.583571517335921"><ele>444.2857142857143</ele><time>2026-05-03T14:00:46.999Z</time></trkpt><trkpt lat="40.90197042628517" lon="0.5835391337736372"><ele>446.14285714285717</ele><time>2026-05-03T14:01:01.999Z</time></trkpt><trkpt lat="40.901891665788774" lon="0.5834839047374843"><ele>448.0</ele><time>2026-05-03T14:01:08.999Z</time></trkpt><trkpt lat="40.901882626428" lon="0.5833878921819746"><ele>448.00000000000006</ele><time>2026-05-03T14:01:10.999Z</time></trkpt><trkpt lat="40.901862007938476" lon="0.5832854825964651"><ele>448.0</ele><time>2026-05-03T14:01:13.999Z</time></trkpt><trkpt lat="40.9018214227278" lon="0.5831932448090238"><ele>448.0</ele><time>2026-05-03T14:01:15.999Z</time></trkpt><trkpt lat="40.90176852245798" lon="0.5831433963774256"><ele>448.0</ele><time>2026-05-03T14:01:18.999Z</time></trkpt><trkpt lat="40.901687725478865" lon="0.5831547622989244"><ele>448.00000000000006</ele><time>2026-05-03T14:01:22Z</time></trkpt><trkpt lat="40.90161506786862" lon="0.5831995608988431"><ele>448.0</ele><time>2026-05-03T14:01:27Z</time></trkpt><trkpt lat="40.901549087140815" lon="0.5831948116539463"><ele>448.6666666666667</ele><time>2026-05-03T14:01:30Z</time></trkpt><trkpt lat="40.90146300085571" lon="0.583192853090374"><ele>449.33333333333337</ele><time>2026-05-03T14:01:33Z</time></trkpt><trkpt lat="40.9014042124489" lon="0.5831430110460311"><ele>450.0</ele><time>2026-05-03T14:01:37Z</time></trkpt><trkpt lat="40.90133281681425" lon="0.5831267590089457"><ele>450.66666666666663</ele><time>2026-05-03T14:04:34Z</time></trkpt><trkpt lat="40.90126205855488" lon="0.5830871583611857"><ele>451.3333333333333</ele><time>2026-05-03T14:04:37Z</time></trkpt><trkpt lat="40.90120770953272" lon="0.5830176341865823"><ele>452.0</ele><time>2026-05-03T14:04:42Z</time></trkpt><trkpt lat="40.90125347082875" lon="0.582930344782049"><ele>452.0</ele><time>2026-05-03T14:04:45Z</time></trkpt><trkpt lat="40.901317623821626" lon="0.5828863775116188"><ele>452.0</ele><time>2026-05-03T14:15:38Z</time></trkpt><trkpt lat="40.9013598042871" lon="0.5828115443715214"><ele>452.0</ele><time>2026-05-03T14:15:48Z</time></trkpt><trkpt lat="40.90141310213113" lon="0.5827564977365486"><ele>452.0</ele><time>2026-05-03T14:15:49.999Z</time></trkpt><trkpt lat="40.90145149714963" lon="0.582680315144501"><ele>452.0</ele><time>2026-05-03T14:15:51.999Z</time></trkpt><trkpt lat="40.90151513017533" lon="0.5826376986356941"><ele>452.0</ele><time>2026-05-03T14:15:53.999Z</time></trkpt><trkpt lat="40.90155693536196" lon="0.5825667036152243"><ele>452.0</ele><time>2026-05-03T14:15:55.999Z</time></trkpt><trkpt lat="40.90160990407825" lon="0.5825113644587765"><ele>452.20000000000005</ele><time>2026-05-03T14:15:57.999Z</time></trkpt><trkpt lat="40.90164072702383" lon="0.5823804208944106"><ele>452.40000000000003</ele><time>2026-05-03T14:16:00.999Z</time></trkpt><trkpt lat="40.90166297578874" lon="0.5822797825779072"><ele>452.59999999999997</ele><time>2026-05-03T14:16:01.999Z</time></trkpt><trkpt lat="40.901646398431545" lon="0.5821669023904127"><ele>452.79999999999995</ele><time>2026-05-03T14:16:03Z</time></trkpt><trkpt lat="40.90163357724437" lon="0.5820366137740819"><ele>453.0</ele><time>2026-05-03T14:16:04Z</time></trkpt><trkpt lat="40.90162909791097" lon="0.5819239486784319"><ele>453.0</ele><time>2026-05-03T14:16:05Z</time></trkpt><trkpt lat="40.9016077769581" lon="0.5818437962600856"><ele>453.0</ele><time>2026-05-03T14:16:06Z</time></trkpt><trkpt lat="40.901536485892606" lon="0.5817406240289974"><ele>453.0</ele><time>2026-05-03T14:16:08Z</time></trkpt><trkpt lat="40.90146644338952" lon="0.5816774900914021"><ele>453.0</ele><time>2026-05-03T14:16:09Z</time></trkpt><trkpt lat="40.90138493621858" lon="0.5815982951898224"><ele>453.0</ele><time>2026-05-03T14:16:10Z</time></trkpt><trkpt lat="40.90132488418884" lon="0.5815261340026164"><ele>453.0</ele><time>2026-05-03T14:16:11Z</time></trkpt><trkpt lat="40.901276696126665" lon="0.5814597893820973"><ele>453.0</ele><time>2026-05-03T14:16:12Z</time></trkpt><trkpt lat="40.90122969391005" lon="0.581331770886484"><ele>452.99999999999994</ele><time>2026-05-03T14:16:14Z</time></trkpt><trkpt lat="40.901282100119055" lon="0.5811949342097766"><ele>452.99999999999994</ele><time>2026-05-03T14:16:16Z</time></trkpt><trkpt lat="40.90132175080064" lon="0.5810333280873113"><ele>453.0</ele><time>2026-05-03T14:16:18Z</time></trkpt><trkpt lat="40.90133713807318" lon="0.5809154175373287"><ele>453.0</ele><time>2026-05-03T14:16:19Z</time></trkpt><trkpt lat="40.901353230530525" lon="0.5808039643504921"><ele>451.8333333333333</ele><time>2026-05-03T14:16:20Z</time></trkpt><trkpt lat="40.90136640590324" lon="0.5807035800311996"><ele>450.66666666666663</ele><time>2026-05-03T14:16:21Z</time></trkpt><trkpt lat="40.90137366940478" lon="0.5806147298639646"><ele>449.5</ele><time>2026-05-03T14:16:22Z</time></trkpt><trkpt lat="40.90137987584863" lon="0.5805267780466675"><ele>448.3333333333333</ele><time>2026-05-03T14:16:23Z</time></trkpt><trkpt lat="40.901395863118225" lon="0.5804426890098949"><ele>447.16666666666663</ele><time>2026-05-03T14:16:24Z</time></trkpt><trkpt lat="40.901395817488165" lon="0.5802943338408322"><ele>446.0</ele><time>2026-05-03T14:16:26Z</time></trkpt><trkpt lat="40.90135531706415" lon="0.5801598681365892"><ele>446.0</ele><time>2026-05-03T14:16:28Z</time></trkpt><trkpt lat="40.90133082563405" lon="0.580075177390996"><ele>446.0</ele><time>2026-05-03T14:16:29Z</time></trkpt><trkpt lat="40.90133776397447" lon="0.5799317373064184"><ele>446.0</ele><time>2026-05-03T14:16:31Z</time></trkpt><trkpt lat="40.90141341724766" lon="0.5798680426129244"><ele>446.0</ele><time>2026-05-03T14:16:33Z</time></trkpt><trkpt lat="40.901456966360804" lon="0.5797322109379084"><ele>446.0</ele><time>2026-05-03T14:16:35Z</time></trkpt><trkpt lat="40.90151105947195" lon="0.5795740148141107"><ele>446.49999999999994</ele><time>2026-05-03T14:16:37Z</time></trkpt><trkpt lat="40.90154999122146" lon="0.579496661379595"><ele>447.0</ele><time>2026-05-03T14:16:38Z</time></trkpt><trkpt lat="40.90159049770688" lon="0.5793843059992749"><ele>447.5</ele><time>2026-05-03T14:16:39Z</time></trkpt><trkpt lat="40.901645893445824" lon="0.5793147636599865"><ele>448.0</ele><time>2026-05-03T14:16:40Z</time></trkpt><trkpt lat="40.90169566844738" lon="0.5792483222765125"><ele>448.49999999999994</ele><time>2026-05-03T14:16:41Z</time></trkpt><trkpt lat="40.90174608925047" lon="0.5791722839069372"><ele>449.0</ele><time>2026-05-03T14:16:42Z</time></trkpt><trkpt lat="40.90178459737863" lon="0.5791045434326857"><ele>440.4</ele><time>2026-05-03T14:16:43Z</time></trkpt><trkpt lat="40.90182699492106" lon="0.578951379096698"><ele>431.79999999999995</ele><time>2026-05-03T14:16:45Z</time></trkpt><trkpt lat="40.901816397599276" lon="0.5787720955896466"><ele>423.20000000000005</ele><time>2026-05-03T14:16:47Z</time></trkpt><trkpt lat="40.90180055328049" lon="0.5786656750619127"><ele>414.6</ele><time>2026-05-03T14:16:48Z</time></trkpt><trkpt lat="40.90178050371363" lon="0.5785661790461049"><ele>406.0</ele><time>2026-05-03T14:16:49Z</time></trkpt><trkpt lat="40.9017516148243" lon="0.5784641949275879"><ele>413.0</ele><time>2026-05-03T14:16:50Z</time></trkpt><trkpt lat="40.90172384834356" lon="0.5783796290611051"><ele>420.0</ele><time>2026-05-03T14:16:51Z</time></trkpt><trkpt lat="40.90169347362931" lon="0.5782941950840033"><ele>427.0</ele><time>2026-05-03T14:16:52Z</time></trkpt><trkpt lat="40.901605376571894" lon="0.5781696320114491"><ele>434.0</ele><time>2026-05-03T14:16:54Z</time></trkpt><trkpt lat="40.901507361488584" lon="0.5781358443542496"><ele>441.0</ele><time>2026-05-03T14:16:56Z</time></trkpt><trkpt lat="40.901389502366904" lon="0.5781475467180065"><ele>441.0</ele><time>2026-05-03T14:16:58Z</time></trkpt><trkpt lat="40.90127908977009" lon="0.5780782646924101"><ele>441.0</ele><time>2026-05-03T14:17:00Z</time></trkpt><trkpt lat="40.901207021222426" lon="0.577953657528017"><ele>441.0</ele><time>2026-05-03T14:17:02Z</time></trkpt><trkpt lat="40.90119277565724" lon="0.5778614539904346"><ele>441.0</ele><time>2026-05-03T14:17:03Z</time></trkpt><trkpt lat="40.90117394989338" lon="0.5777679162345214"><ele>441.0</ele><time>2026-05-03T14:17:04Z</time></trkpt><trkpt lat="40.9011699335275" lon="0.5776703801909295"><ele>437.5</ele><time>2026-05-03T14:17:05Z</time></trkpt><trkpt lat="40.90115958334902" lon="0.5775742488115628"><ele>434.0</ele><time>2026-05-03T14:17:06Z</time></trkpt><trkpt lat="40.901177630226385" lon="0.5774725790597734"><ele>430.5</ele><time>2026-05-03T14:17:07Z</time></trkpt><trkpt lat="40.90117360146003" lon="0.5773557195243396"><ele>427.0</ele><time>2026-05-03T14:17:08Z</time></trkpt><trkpt lat="40.90117563808073" lon="0.577244350280475"><ele>423.5</ele><time>2026-05-03T14:17:09Z</time></trkpt><trkpt lat="40.90119128437476" lon="0.5771364473992809"><ele>420.0</ele><time>2026-05-03T14:17:10Z</time></trkpt><trkpt lat="40.901215660974096" lon="0.5770386598136276"><ele>418.3333333333333</ele><time>2026-05-03T14:17:11Z</time></trkpt><trkpt lat="40.90123814293624" lon="0.5769380758269153"><ele>416.66666666666663</ele><time>2026-05-03T14:17:12Z</time></trkpt><trkpt lat="40.90125690469314" lon="0.5768551122775301"><ele>415.0</ele><time>2026-05-03T14:17:13Z</time></trkpt><trkpt lat="40.90127491414646" lon="0.5767684806413907"><ele>413.3333333333333</ele><time>2026-05-03T14:17:14Z</time></trkpt><trkpt lat="40.90128829806054" lon="0.5766137688393346"><ele>411.66666666666663</ele><time>2026-05-03T14:17:16Z</time></trkpt><trkpt lat="40.90129188372685" lon="0.5765261100928162"><ele>410.0</ele><time>2026-05-03T14:17:17Z</time></trkpt><trkpt lat="40.90129087673079" lon="0.5764240526559627"><ele>409.99999999999994</ele><time>2026-05-03T14:17:18Z</time></trkpt><trkpt lat="40.90128872265873" lon="0.5763254163396826"><ele>410.0</ele><time>2026-05-03T14:17:19Z</time></trkpt><trkpt lat="40.901280385634365" lon="0.5762400502786236"><ele>410.0</ele><time>2026-05-03T14:17:20Z</time></trkpt><trkpt lat="40.90125993064224" lon="0.5761549090265968"><ele>410.0</ele><time>2026-05-03T14:17:21Z</time></trkpt><trkpt lat="40.90123515836983" lon="0.5760682501138453"><ele>409.99999999999994</ele><time>2026-05-03T14:17:22Z</time></trkpt><trkpt lat="40.90120587827273" lon="0.5759894639280827"><ele>410.0</ele><time>2026-05-03T14:17:23Z</time></trkpt><trkpt lat="40.901152677592705" lon="0.5758208366586373"><ele>407.8333333333333</ele><time>2026-05-03T14:17:25Z</time></trkpt><trkpt lat="40.90114250644424" lon="0.5757286624187711"><ele>405.66666666666663</ele><time>2026-05-03T14:17:26Z</time></trkpt><trkpt lat="40.90112820929821" lon="0.575630082730035"><ele>403.5</ele><time>2026-05-03T14:17:27Z</time></trkpt><trkpt lat="40.901125325423166" lon="0.5755305017828476"><ele>401.33333333333337</ele><time>2026-05-03T14:17:28Z</time></trkpt><trkpt lat="40.90112383263175" lon="0.5753650485215039"><ele>399.1666666666667</ele><time>2026-05-03T14:17:30Z</time></trkpt><trkpt lat="40.90115083344858" lon="0.5752552276588985"><ele>397.0</ele><time>2026-05-03T14:17:32Z</time></trkpt><trkpt lat="40.90119872530889" lon="0.5751493463830658"><ele>395.1666666666667</ele><time>2026-05-03T14:17:34Z</time></trkpt><trkpt lat="40.90120937454649" lon="0.5750107550418578"><ele>393.33333333333337</ele><time>2026-05-03T14:17:36Z</time></trkpt><trkpt lat="40.901187979032" lon="0.5749264074661252"><ele>391.5</ele><time>2026-05-03T14:17:37Z</time></trkpt><trkpt lat="40.901165136077616" lon="0.574845065432321"><ele>389.66666666666663</ele><time>2026-05-03T14:17:38Z</time></trkpt><trkpt lat="40.90112891652906" lon="0.5747519119129507"><ele>387.8333333333333</ele><time>2026-05-03T14:17:39Z</time></trkpt><trkpt lat="40.901082987333375" lon="0.5746708374002139"><ele>386.0</ele><time>2026-05-03T14:17:40Z</time></trkpt><trkpt lat="40.90103050091547" lon="0.5746002432098347"><ele>385.99999999999994</ele><time>2026-05-03T14:17:40.999Z</time></trkpt><trkpt lat="40.90096967453036" lon="0.5745235361644867"><ele>386.0</ele><time>2026-05-03T14:17:41.999Z</time></trkpt><trkpt lat="40.90092458756672" lon="0.5744462177047028"><ele>386.0</ele><time>2026-05-03T14:17:42.999Z</time></trkpt><trkpt lat="40.900880828866974" lon="0.5743438237236276"><ele>386.0</ele><time>2026-05-03T14:17:43.999Z</time></trkpt><trkpt lat="40.900872313297114" lon="0.574227338048037"><ele>385.99999999999994</ele><time>2026-05-03T14:17:44.999Z</time></trkpt><trkpt lat="40.90088337730082" lon="0.5741440043032157"><ele>386.0</ele><time>2026-05-03T14:17:45.999Z</time></trkpt><trkpt lat="40.9008759510583" lon="0.5739897403254343"><ele>388.8333333333333</ele><time>2026-05-03T14:17:47.999Z</time></trkpt><trkpt lat="40.900857377787084" lon="0.573897343976986"><ele>391.66666666666663</ele><time>2026-05-03T14:17:48.999Z</time></trkpt><trkpt lat="40.900827688352805" lon="0.5737961328045745"><ele>394.5</ele><time>2026-05-03T14:17:49.999Z</time></trkpt><trkpt lat="40.90078486557872" lon="0.5736990653763238"><ele>397.33333333333337</ele><time>2026-05-03T14:17:50.999Z</time></trkpt><trkpt lat="40.900747244633315" lon="0.5735985303685963"><ele>400.1666666666667</ele><time>2026-05-03T14:17:51.999Z</time></trkpt><trkpt lat="40.90072109557977" lon="0.573496303963941"><ele>403.0</ele><time>2026-05-03T14:17:52.999Z</time></trkpt><trkpt lat="40.900693002640274" lon="0.5733750073370194"><ele>403.0</ele><time>2026-05-03T14:17:53.999Z</time></trkpt><trkpt lat="40.90065876776916" lon="0.57325181775341"><ele>403.0</ele><time>2026-05-03T14:17:54.999Z</time></trkpt><trkpt lat="40.900619076408496" lon="0.5731128665164429"><ele>403.0</ele><time>2026-05-03T14:17:55.999Z</time></trkpt><trkpt lat="40.900576362660544" lon="0.5729922953376196"><ele>403.0</ele><time>2026-05-03T14:17:56.999Z</time></trkpt><trkpt lat="40.90053566496157" lon="0.5728697196854493"><ele>403.0</ele><time>2026-05-03T14:17:57.999Z</time></trkpt><trkpt lat="40.90049699513558" lon="0.5727493175741677"><ele>400.0</ele><time>2026-05-03T14:17:58.999Z</time></trkpt><trkpt lat="40.90046374341947" lon="0.5726294763992109"><ele>397.0</ele><time>2026-05-03T14:17:59.999Z</time></trkpt><trkpt lat="40.900437882309404" lon="0.5725153668521908"><ele>394.0</ele><time>2026-05-03T14:18:00.999Z</time></trkpt><trkpt lat="40.900416164270695" lon="0.5724008592614186"><ele>391.0</ele><time>2026-05-03T14:18:01.999Z</time></trkpt><trkpt lat="40.90040144753649" lon="0.5722825769539647"><ele>388.0</ele><time>2026-05-03T14:18:02.999Z</time></trkpt><trkpt lat="40.90037675485295" lon="0.5721653070631036"><ele>388.0</ele><time>2026-05-03T14:18:03.999Z</time></trkpt><trkpt lat="40.90034393879693" lon="0.5720657234928301"><ele>388.0</ele><time>2026-05-03T14:18:04.999Z</time></trkpt><trkpt lat="40.90030125152592" lon="0.5719521685449241"><ele>388.0</ele><time>2026-05-03T14:18:05.999Z</time></trkpt><trkpt lat="40.90026392787362" lon="0.5718513328971359"><ele>388.0</ele><time>2026-05-03T14:18:06.999Z</time></trkpt><trkpt lat="40.90022974917092" lon="0.5717587399622341"><ele>388.0</ele><time>2026-05-03T14:18:07.999Z</time></trkpt><trkpt lat="40.900150667173314" lon="0.5716101110936369"><ele>387.59999999999997</ele><time>2026-05-03T14:18:10Z</time></trkpt><trkpt lat="40.90009933200285" lon="0.571534714049896"><ele>387.2</ele><time>2026-05-03T14:18:11Z</time></trkpt><trkpt lat="40.900046779713676" lon="0.5714573695179972"><ele>386.8</ele><time>2026-05-03T14:18:12Z</time></trkpt><trkpt lat="40.90000137238509" lon="0.5713680597158161"><ele>386.4</ele><time>2026-05-03T14:18:13Z</time></trkpt><trkpt lat="40.89995176127209" lon="0.5712373638430069"><ele>386.0</ele><time>2026-05-03T14:18:14Z</time></trkpt><trkpt lat="40.89991474852843" lon="0.57111073662704"><ele>384.0</ele><time>2026-05-03T14:18:15Z</time></trkpt><trkpt lat="40.899900014598174" lon="0.5709953061793276"><ele>382.0</ele><time>2026-05-03T14:18:16Z</time></trkpt><trkpt lat="40.89989588962082" lon="0.5708985296729492"><ele>380.0</ele><time>2026-05-03T14:18:17Z</time></trkpt><trkpt lat="40.89985055539469" lon="0.5707523517678206"><ele>378.0</ele><time>2026-05-03T14:18:19Z</time></trkpt><trkpt lat="40.89977870165664" lon="0.5706184481968284"><ele>376.0</ele><time>2026-05-03T14:18:21Z</time></trkpt><trkpt lat="40.89973531659591" lon="0.5705446901695017"><ele>376.0</ele><time>2026-05-03T14:18:22Z</time></trkpt><trkpt lat="40.89968848765512" lon="0.5704711388065422"><ele>376.0</ele><time>2026-05-03T14:18:23Z</time></trkpt><trkpt lat="40.89964608492245" lon="0.5704039060499737"><ele>376.0</ele><time>2026-05-03T14:18:24Z</time></trkpt><trkpt lat="40.89959025607989" lon="0.5702910400814953"><ele>376.0</ele><time>2026-05-03T14:18:26Z</time></trkpt><trkpt lat="40.89953301871169" lon="0.5702204438112725"><ele>376.0</ele><time>2026-05-03T14:18:30Z</time></trkpt><trkpt lat="40.899436357223784" lon="0.5701801685698508"><ele>376.0</ele><time>2026-05-03T14:18:33Z</time></trkpt><trkpt lat="40.89932860881676" lon="0.5702150662123593"><ele>376.20000000000005</ele><time>2026-05-03T14:18:35Z</time></trkpt><trkpt lat="40.899236695401186" lon="0.5703060006550923"><ele>376.40000000000003</ele><time>2026-05-03T14:18:37Z</time></trkpt><trkpt lat="40.89913682254295" lon="0.5703844008687099"><ele>376.6</ele><time>2026-05-03T14:18:39Z</time></trkpt><trkpt lat="40.89906651059235" lon="0.5704111266723433"><ele>376.8</ele><time>2026-05-03T14:18:40Z</time></trkpt><trkpt lat="40.89898680307961" lon="0.570420781646981"><ele>377.0</ele><time>2026-05-03T14:18:41Z</time></trkpt><trkpt lat="40.89890122507554" lon="0.5704055623811796"><ele>377.0</ele><time>2026-05-03T14:18:42Z</time></trkpt><trkpt lat="40.89883638847347" lon="0.5703780371109965"><ele>377.0</ele><time>2026-05-03T14:18:43Z</time></trkpt><trkpt lat="40.89875749951981" lon="0.5702876679286205"><ele>377.0</ele><time>2026-05-03T14:18:45Z</time></trkpt><trkpt lat="40.8987322309208" lon="0.5702113188890918"><ele>377.0</ele><time>2026-05-03T14:18:47Z</time></trkpt><trkpt lat="40.898655536915996" lon="0.5700297914406048"><ele>377.0</ele><time>2026-05-03T14:19:04Z</time></trkpt><trkpt lat="40.89860295196182" lon="0.5698866027769767"><ele>376.0</ele><time>2026-05-03T14:19:05Z</time></trkpt><trkpt lat="40.89857134621197" lon="0.5697625042755925"><ele>375.0</ele><time>2026-05-03T14:19:06Z</time></trkpt><trkpt lat="40.89854508228519" lon="0.56965774204286"><ele>374.0</ele><time>2026-05-03T14:19:07Z</time></trkpt><trkpt lat="40.89852412437703" lon="0.5695640185355023"><ele>373.0</ele><time>2026-05-03T14:19:08Z</time></trkpt><trkpt lat="40.89851261288728" lon="0.5694807916343252"><ele>372.0</ele><time>2026-05-03T14:19:09Z</time></trkpt><trkpt lat="40.89850346902536" lon="0.5693677959416652"><ele>371.0</ele><time>2026-05-03T14:19:10Z</time></trkpt><trkpt lat="40.898481777455835" lon="0.5692569839768887"><ele>370.8</ele><time>2026-05-03T14:19:11Z</time></trkpt><trkpt lat="40.89847726667165" lon="0.569165719718903"><ele>370.6</ele><time>2026-05-03T14:19:12Z</time></trkpt><trkpt lat="40.89845610161013" lon="0.5689970539338237"><ele>370.4</ele><time>2026-05-03T14:19:14Z</time></trkpt><trkpt lat="40.898428802799465" lon="0.5688510556826288"><ele>370.2</ele><time>2026-05-03T14:19:16Z</time></trkpt><trkpt lat="40.89839156567205" lon="0.5687814679649895"><ele>370.0</ele><time>2026-05-03T14:19:17Z</time></trkpt><trkpt lat="40.89827261459508" lon="0.5686463027099469"><ele>368.2</ele><time>2026-05-03T14:19:19Z</time></trkpt><trkpt lat="40.898178090094625" lon="0.5685598768227895"><ele>366.4</ele><time>2026-05-03T14:19:20Z</time></trkpt><trkpt lat="40.89809861626471" lon="0.568463117706858"><ele>364.6</ele><time>2026-05-03T14:19:21Z</time></trkpt><trkpt lat="40.89803925650823" lon="0.5683864850625392"><ele>362.8</ele><time>2026-05-03T14:19:22Z</time></trkpt><trkpt lat="40.897996972675564" lon="0.5683229515256043"><ele>361.0</ele><time>2026-05-03T14:19:23Z</time></trkpt><trkpt lat="40.897909335290926" lon="0.5682553276504769"><ele>361.0</ele><time>2026-05-03T14:19:25Z</time></trkpt><trkpt lat="40.89781801730145" lon="0.5682558958268783"><ele>361.0</ele><time>2026-05-03T14:19:27Z</time></trkpt><trkpt lat="40.89775349177706" lon="0.5682476622549486"><ele>361.0</ele><time>2026-05-03T14:19:28Z</time></trkpt><trkpt lat="40.89767844614933" lon="0.5682342731586153"><ele>361.0</ele><time>2026-05-03T14:19:29Z</time></trkpt><trkpt lat="40.897593321682464" lon="0.5682175214632662"><ele>361.0</ele><time>2026-05-03T14:19:30Z</time></trkpt><trkpt lat="40.89751569811676" lon="0.5681699575664292"><ele>361.0</ele><time>2026-05-03T14:19:31Z</time></trkpt><trkpt lat="40.897454672456746" lon="0.568127933507382"><ele>361.8333333333333</ele><time>2026-05-03T14:19:32Z</time></trkpt><trkpt lat="40.897400834506605" lon="0.5680845370383324"><ele>362.66666666666663</ele><time>2026-05-03T14:19:33Z</time></trkpt><trkpt lat="40.89731557624113" lon="0.5680363236401036"><ele>363.5</ele><time>2026-05-03T14:19:35Z</time></trkpt><trkpt lat="40.89721045626945" lon="0.5680486931253839"><ele>364.3333333333333</ele><time>2026-05-03T14:19:37Z</time></trkpt><trkpt lat="40.89714681439056" lon="0.5680846595321544"><ele>365.1666666666667</ele><time>2026-05-03T14:19:38Z</time></trkpt><trkpt lat="40.897084366028835" lon="0.5681262650925683"><ele>366.0</ele><time>2026-05-03T14:19:39Z</time></trkpt><trkpt lat="40.89701707297461" lon="0.5681613603116369"><ele>366.0</ele><time>2026-05-03T14:19:40Z</time></trkpt><trkpt lat="40.89695040128564" lon="0.5681848864170559"><ele>366.0</ele><time>2026-05-03T14:19:41Z</time></trkpt><trkpt lat="40.896826475331366" lon="0.5682176384765403"><ele>366.0</ele><time>2026-05-03T14:19:43Z</time></trkpt><trkpt lat="40.89670882319688" lon="0.5681863136121347"><ele>366.0</ele><time>2026-05-03T14:19:45Z</time></trkpt><trkpt lat="40.89660697158786" lon="0.5680934158847514"><ele>366.0</ele><time>2026-05-03T14:19:47Z</time></trkpt><trkpt lat="40.89655156842893" lon="0.5680498854400964"><ele>363.7142857142857</ele><time>2026-05-03T14:19:48Z</time></trkpt><trkpt lat="40.89648810542699" lon="0.5680097166426246"><ele>361.42857142857144</ele><time>2026-05-03T14:19:49Z</time></trkpt><trkpt lat="40.896417998022656" lon="0.5679827067748822"><ele>359.1428571428571</ele><time>2026-05-03T14:19:50Z</time></trkpt><trkpt lat="40.89634556382636" lon="0.5679449042746737"><ele>356.8571428571429</ele><time>2026-05-03T14:19:51Z</time></trkpt><trkpt lat="40.896282196616404" lon="0.5678938986218167"><ele>354.57142857142856</ele><time>2026-05-03T14:19:52Z</time></trkpt><trkpt lat="40.896229164807664" lon="0.5678269286483797"><ele>352.2857142857143</ele><time>2026-05-03T14:19:53Z</time></trkpt><trkpt lat="40.89617955665438" lon="0.5677554898996025"><ele>350.0</ele><time>2026-05-03T14:19:54Z</time></trkpt><trkpt lat="40.89613950804472" lon="0.5676875116833684"><ele>348.1666666666667</ele><time>2026-05-03T14:19:55Z</time></trkpt><trkpt lat="40.89610170548215" lon="0.5676149634513136"><ele>346.33333333333337</ele><time>2026-05-03T14:19:55.999Z</time></trkpt><trkpt lat="40.896067190940784" lon="0.5675286577944313"><ele>344.5</ele><time>2026-05-03T14:19:56.999Z</time></trkpt><trkpt lat="40.89604086111567" lon="0.5674386031002313"><ele>342.6666666666667</ele><time>2026-05-03T14:19:57.999Z</time></trkpt><trkpt lat="40.896016979416984" lon="0.56734769543916"><ele>340.8333333333333</ele><time>2026-05-03T14:19:58.999Z</time></trkpt><trkpt lat="40.89599904414618" lon="0.5672561832107164"><ele>339.0</ele><time>2026-05-03T14:19:59.999Z</time></trkpt><trkpt lat="40.895984219754595" lon="0.5671016772538368"><ele>339.79999999999995</ele><time>2026-05-03T14:20:01.999Z</time></trkpt><trkpt lat="40.89595917154663" lon="0.5670126097083796"><ele>340.59999999999997</ele><time>2026-05-03T14:20:03.999Z</time></trkpt><trkpt lat="40.895863743219685" lon="0.5669938936013349"><ele>341.4</ele><time>2026-05-03T14:20:05.999Z</time></trkpt><trkpt lat="40.8957618946005" lon="0.5670718192391937"><ele>342.2</ele><time>2026-05-03T14:20:07.999Z</time></trkpt><trkpt lat="40.8956491424154" lon="0.5671179067733275"><ele>343.0</ele><time>2026-05-03T14:20:09.999Z</time></trkpt><trkpt lat="40.895584558375496" lon="0.5671187751876802"><ele>343.0</ele><time>2026-05-03T14:20:10.999Z</time></trkpt><trkpt lat="40.89552012252109" lon="0.5670930850490808"><ele>343.0</ele><time>2026-05-03T14:20:11.999Z</time></trkpt><trkpt lat="40.895400251547564" lon="0.5670289969545067"><ele>343.0</ele><time>2026-05-03T14:20:13.999Z</time></trkpt><trkpt lat="40.89533197179992" lon="0.5669753688531365"><ele>343.0</ele><time>2026-05-03T14:20:15Z</time></trkpt><trkpt lat="40.89526952826259" lon="0.5669206271009719"><ele>343.0</ele><time>2026-05-03T14:20:16Z</time></trkpt><trkpt lat="40.89521082928044" lon="0.5668640243411811"><ele>343.0</ele><time>2026-05-03T14:20:17Z</time></trkpt><trkpt lat="40.89515974507956" lon="0.5668094221803787"><ele>338.4</ele><time>2026-05-03T14:20:18Z</time></trkpt><trkpt lat="40.89507617399047" lon="0.5667353004235542"><ele>333.79999999999995</ele><time>2026-05-03T14:20:20Z</time></trkpt><trkpt lat="40.89497834743554" lon="0.566725392645715"><ele>329.2</ele><time>2026-05-03T14:20:22Z</time></trkpt><trkpt lat="40.894908784329836" lon="0.5667267158668194"><ele>324.6</ele><time>2026-05-03T14:20:24Z</time></trkpt><trkpt lat="40.89481915558669" lon="0.566674613900999"><ele>320.0</ele><time>2026-05-03T14:20:27Z</time></trkpt><trkpt lat="40.89471362033785" lon="0.5666448564405817"><ele>320.0</ele><time>2026-05-03T14:20:29Z</time></trkpt><trkpt lat="40.89460676541176" lon="0.5665477065928021"><ele>320.0</ele><time>2026-05-03T14:20:31Z</time></trkpt><trkpt lat="40.89455901418817" lon="0.5664622932491562"><ele>320.0</ele><time>2026-05-03T14:20:32Z</time></trkpt><trkpt lat="40.89449475903788" lon="0.5663655283659238"><ele>320.0</ele><time>2026-05-03T14:20:33Z</time></trkpt><trkpt lat="40.8944455539393" lon="0.5662728207625083"><ele>320.0</ele><time>2026-05-03T14:20:34Z</time></trkpt><trkpt lat="40.894408837838775" lon="0.5661957674339797"><ele>319.0</ele><time>2026-05-03T14:20:35Z</time></trkpt><trkpt lat="40.894376063071896" lon="0.5661180399337411"><ele>318.0</ele><time>2026-05-03T14:20:36Z</time></trkpt><trkpt lat="40.894362297736905" lon="0.5660322378284658"><ele>317.0</ele><time>2026-05-03T14:20:37Z</time></trkpt><trkpt lat="40.89433084232202" lon="0.5658748311794278"><ele>316.0</ele><time>2026-05-03T14:20:39Z</time></trkpt><trkpt lat="40.89428244937144" lon="0.5657254034757448"><ele>315.0</ele><time>2026-05-03T14:20:41Z</time></trkpt><trkpt lat="40.89423625278739" lon="0.5656508618976519"><ele>315.0</ele><time>2026-05-03T14:20:42Z</time></trkpt><trkpt lat="40.89419965958299" lon="0.5655791033105219"><ele>315.0</ele><time>2026-05-03T14:20:43Z</time></trkpt><trkpt lat="40.89416732209284" lon="0.5654832667850106"><ele>315.0</ele><time>2026-05-03T14:20:44Z</time></trkpt><trkpt lat="40.89413262288572" lon="0.5653837566948076"><ele>315.0</ele><time>2026-05-03T14:20:45Z</time></trkpt><trkpt lat="40.89410645761659" lon="0.5652835233853395"><ele>315.0</ele><time>2026-05-03T14:20:46Z</time></trkpt><trkpt lat="40.894097877238934" lon="0.5651930525089532"><ele>315.0</ele><time>2026-05-03T14:20:47Z</time></trkpt><trkpt lat="40.89409241461678" lon="0.5651022818164222"><ele>315.0</ele><time>2026-05-03T14:20:48Z</time></trkpt><trkpt lat="40.89408408562661" lon="0.5649673591132983"><ele>311.6666666666667</ele><time>2026-05-03T14:20:50Z</time></trkpt><trkpt lat="40.89402372576351" lon="0.5648682188623069"><ele>308.3333333333333</ele><time>2026-05-03T14:20:52Z</time></trkpt><trkpt lat="40.89395624179933" lon="0.564796255087061"><ele>305.0</ele><time>2026-05-03T14:20:53Z</time></trkpt><trkpt lat="40.89388986508241" lon="0.564722562280599"><ele>301.66666666666663</ele><time>2026-05-03T14:20:54Z</time></trkpt><trkpt lat="40.89383002017705" lon="0.5646482914893198"><ele>298.3333333333333</ele><time>2026-05-03T14:20:55Z</time></trkpt><trkpt lat="40.89378408709464" lon="0.5645630530481701"><ele>295.0</ele><time>2026-05-03T14:20:56Z</time></trkpt><trkpt lat="40.893741010149434" lon="0.5644666272015814"><ele>292.66666666666663</ele><time>2026-05-03T14:20:57Z</time></trkpt><trkpt lat="40.8937071769125" lon="0.5643825163082441"><ele>290.3333333333333</ele><time>2026-05-03T14:20:58Z</time></trkpt><trkpt lat="40.89367450001716" lon="0.5642859232383515"><ele>288.0</ele><time>2026-05-03T14:20:59Z</time></trkpt><trkpt lat="40.89364495363736" lon="0.5641620028903944"><ele>285.6666666666667</ele><time>2026-05-03T14:21:00Z</time></trkpt><trkpt lat="40.893622038728886" lon="0.5640599553613973"><ele>283.33333333333337</ele><time>2026-05-03T14:21:01Z</time></trkpt><trkpt lat="40.8936048217695" lon="0.5639788622462347"><ele>281.0</ele><time>2026-05-03T14:21:02Z</time></trkpt><trkpt lat="40.893602876984964" lon="0.5638363467492186"><ele>279.5</ele><time>2026-05-03T14:21:04Z</time></trkpt><trkpt lat="40.89362479924181" lon="0.56366850523583"><ele>278.0</ele><time>2026-05-03T14:21:06Z</time></trkpt><trkpt lat="40.89364557434055" lon="0.5635842001380543"><ele>276.5</ele><time>2026-05-03T14:21:07Z</time></trkpt><trkpt lat="40.89366637355683" lon="0.563498851939814"><ele>275.0</ele><time>2026-05-03T14:21:09Z</time></trkpt><trkpt lat="40.893650635377874" lon="0.5634135004765273"><ele>273.5</ele><time>2026-05-03T14:21:12Z</time></trkpt><trkpt lat="40.893567973104695" lon="0.5634018331751561"><ele>272.0</ele><time>2026-05-03T14:21:14Z</time></trkpt><trkpt lat="40.89346283726965" lon="0.5634190913384937"><ele>275.0</ele><time>2026-05-03T14:21:16Z</time></trkpt><trkpt lat="40.893350001146814" lon="0.5634276195942294"><ele>278.0</ele><time>2026-05-03T14:21:18Z</time></trkpt><trkpt lat="40.89322244473699" lon="0.5633582219765138"><ele>281.0</ele><time>2026-05-03T14:21:20Z</time></trkpt><trkpt lat="40.89316188470065" lon="0.563298210509204"><ele>284.0</ele><time>2026-05-03T14:21:21Z</time></trkpt><trkpt lat="40.89308953732526" lon="0.5632338376600502"><ele>287.0</ele><time>2026-05-03T14:21:22Z</time></trkpt><trkpt lat="40.89303395608196" lon="0.5631672737086071"><ele>287.0</ele><time>2026-05-03T14:21:23Z</time></trkpt><trkpt lat="40.89299130698504" lon="0.5630890891951379"><ele>287.0</ele><time>2026-05-03T14:21:24Z</time></trkpt><trkpt lat="40.89296720705534" lon="0.5630074119815459"><ele>287.0</ele><time>2026-05-03T14:21:25Z</time></trkpt><trkpt lat="40.892935146465064" lon="0.5629116591276389"><ele>287.0</ele><time>2026-05-03T14:21:26Z</time></trkpt><trkpt lat="40.892859634203894" lon="0.5628042178026915"><ele>287.0</ele><time>2026-05-03T14:21:28Z</time></trkpt><trkpt lat="40.89276585673997" lon="0.5626961694835555"><ele>282.6</ele><time>2026-05-03T14:21:30Z</time></trkpt><trkpt lat="40.89268564812056" lon="0.5626093415826232"><ele>278.2</ele><time>2026-05-03T14:21:32Z</time></trkpt><trkpt lat="40.892638453295525" lon="0.5624953995351324"><ele>273.8</ele><time>2026-05-03T14:21:34Z</time></trkpt><trkpt lat="40.89263581991467" lon="0.5623799373951184"><ele>269.4</ele><time>2026-05-03T14:21:36Z</time></trkpt><trkpt lat="40.892611824527464" lon="0.5622323792740919"><ele>265.0</ele><time>2026-05-03T14:21:38Z</time></trkpt><trkpt lat="40.892604806457996" lon="0.562143432764533"><ele>265.0</ele><time>2026-05-03T14:21:39Z</time></trkpt><trkpt lat="40.89259700613054" lon="0.562046179931507"><ele>265.0</ele><time>2026-05-03T14:21:40Z</time></trkpt><trkpt lat="40.89260158516908" lon="0.5619484026494899"><ele>265.0</ele><time>2026-05-03T14:21:41Z</time></trkpt><trkpt lat="40.89260811607117" lon="0.5618631311595509"><ele>265.0</ele><time>2026-05-03T14:21:42Z</time></trkpt><trkpt lat="40.892591194906494" lon="0.5617123876142371"><ele>265.0</ele><time>2026-05-03T14:21:44Z</time></trkpt><trkpt lat="40.89254734300071" lon="0.5615675741342251"><ele>265.0</ele><time>2026-05-03T14:21:46Z</time></trkpt><trkpt lat="40.892515483698986" lon="0.5614623664567991"><ele>264.6</ele><time>2026-05-03T14:21:48Z</time></trkpt><trkpt lat="40.89246312621763" lon="0.5613674918172051"><ele>264.2</ele><time>2026-05-03T14:21:50Z</time></trkpt><trkpt lat="40.89238408702029" lon="0.5612839028390678"><ele>263.8</ele><time>2026-05-03T14:21:52Z</time></trkpt><trkpt lat="40.892301436487514" lon="0.5612089212084389"><ele>263.4</ele><time>2026-05-03T14:21:53.999Z</time></trkpt><trkpt lat="40.892205749060146" lon="0.5611157305547045"><ele>263.0</ele><time>2026-05-03T14:21:55.999Z</time></trkpt><trkpt lat="40.892115551972275" lon="0.5610158827998835"><ele>261.1666666666667</ele><time>2026-05-03T14:21:57.999Z</time></trkpt><trkpt lat="40.89204783583765" lon="0.5608888536155636"><ele>259.33333333333337</ele><time>2026-05-03T14:21:59.999Z</time></trkpt><trkpt lat="40.89201108605522" lon="0.5608106270403901"><ele>257.5</ele><time>2026-05-03T14:22:00.999Z</time></trkpt><trkpt lat="40.891943615957615" lon="0.5606757809049068"><ele>255.66666666666669</ele><time>2026-05-03T14:22:02.999Z</time></trkpt><trkpt lat="40.89191123039923" lon="0.5606002412681315"><ele>253.83333333333334</ele><time>2026-05-03T14:22:03.999Z</time></trkpt><trkpt lat="40.89188360604636" lon="0.5605159765009479"><ele>252.0</ele><time>2026-05-03T14:22:04.999Z</time></trkpt><trkpt lat="40.891841722167364" lon="0.5604220348073221"><ele>251.6</ele><time>2026-05-03T14:22:05.999Z</time></trkpt><trkpt lat="40.891803784694225" lon="0.5603324776360241"><ele>251.2</ele><time>2026-05-03T14:22:06.999Z</time></trkpt><trkpt lat="40.891778767718236" lon="0.5602435807871393"><ele>250.8</ele><time>2026-05-03T14:22:07.999Z</time></trkpt><trkpt lat="40.89172644624834" lon="0.5600840708596652"><ele>250.4</ele><time>2026-05-03T14:22:09.999Z</time></trkpt><trkpt lat="40.89168617822168" lon="0.5599477359492336"><ele>250.0</ele><time>2026-05-03T14:22:11.999Z</time></trkpt><trkpt lat="40.89163807583841" lon="0.5598163607128716"><ele>250.0</ele><time>2026-05-03T14:22:13.999Z</time></trkpt><trkpt lat="40.891562233398375" lon="0.5597428150250477"><ele>250.0</ele><time>2026-05-03T14:22:15.999Z</time></trkpt><trkpt lat="40.89146772631609" lon="0.5596558181189514"><ele>250.0</ele><time>2026-05-03T14:22:17.999Z</time></trkpt><trkpt lat="40.89141795206645" lon="0.5595975365670911"><ele>250.0</ele><time>2026-05-03T14:22:18.999Z</time></trkpt><trkpt lat="40.89134720918548" lon="0.5594568505329587"><ele>250.0</ele><time>2026-05-03T14:22:21Z</time></trkpt><trkpt lat="40.89130965090131" lon="0.5593119137116352"><ele>246.5</ele><time>2026-05-03T14:22:23Z</time></trkpt><trkpt lat="40.891263720229" lon="0.5591818733421263"><ele>243.0</ele><time>2026-05-03T14:22:25Z</time></trkpt><trkpt lat="40.89122394439996" lon="0.5590422878540502"><ele>239.5</ele><time>2026-05-03T14:22:27Z</time></trkpt><trkpt lat="40.891186244985555" lon="0.5588910903235635"><ele>236.0</ele><time>2026-05-03T14:22:29Z</time></trkpt><trkpt lat="40.89112039330798" lon="0.5587661349564055"><ele>236.00000000000003</ele><time>2026-05-03T14:22:31Z</time></trkpt><trkpt lat="40.89104619368089" lon="0.558703043427754"><ele>236.0</ele><time>2026-05-03T14:22:33Z</time></trkpt><trkpt lat="40.89098065741197" lon="0.5586877584647634"><ele>236.0</ele><time>2026-05-03T14:22:34Z</time></trkpt><trkpt lat="40.89090467317338" lon="0.5586817446263316"><ele>236.0</ele><time>2026-05-03T14:22:35Z</time></trkpt><trkpt lat="40.890819331680966" lon="0.5586862648378103"><ele>236.00000000000003</ele><time>2026-05-03T14:22:36Z</time></trkpt><trkpt lat="40.89073228980972" lon="0.5586927560229885"><ele>236.0</ele><time>2026-05-03T14:22:37Z</time></trkpt><trkpt lat="40.890665647111376" lon="0.558691946830225"><ele>237.0</ele><time>2026-05-03T14:22:38Z</time></trkpt><trkpt lat="40.89054947934269" lon="0.5587088656576042"><ele>238.00000000000003</ele><time>2026-05-03T14:22:40Z</time></trkpt><trkpt lat="40.89045351049628" lon="0.5587524265946258"><ele>239.00000000000003</ele><time>2026-05-03T14:22:42Z</time></trkpt><trkpt lat="40.89037543278762" lon="0.5588193755211464"><ele>240.0</ele><time>2026-05-03T14:22:44Z</time></trkpt><trkpt lat="40.89030289960624" lon="0.5588670587984583"><ele>241.0</ele><time>2026-05-03T14:22:46Z</time></trkpt><trkpt lat="40.8902309036036" lon="0.5588800826306077"><ele>240.99999999999997</ele><time>2026-05-03T14:22:48Z</time></trkpt><trkpt lat="40.89013087730042" lon="0.5588389273768964"><ele>241.0</ele><time>2026-05-03T14:22:50Z</time></trkpt><trkpt lat="40.890092342039196" lon="0.558767771456365"><ele>241.0</ele><time>2026-05-03T14:22:51Z</time></trkpt><trkpt lat="40.89005594601193" lon="0.5586709212664278"><ele>241.0</ele><time>2026-05-03T14:22:52Z</time></trkpt><trkpt lat="40.89003132592127" lon="0.5585917332670848"><ele>240.99999999999997</ele><time>2026-05-03T14:22:53Z</time></trkpt><trkpt lat="40.89000752141117" lon="0.5584332687505567"><ele>241.0</ele><time>2026-05-03T14:22:55Z</time></trkpt><trkpt lat="40.89000696012109" lon="0.5583022904576274"><ele>237.60000000000002</ele><time>2026-05-03T14:22:56Z</time></trkpt><trkpt lat="40.8900176123809" lon="0.558157536998605"><ele>234.20000000000002</ele><time>2026-05-03T14:22:57Z</time></trkpt><trkpt lat="40.89002902926" lon="0.5580030956947061"><ele>230.79999999999998</ele><time>2026-05-03T14:22:58Z</time></trkpt><trkpt lat="40.89002894912124" lon="0.5578632508234515"><ele>227.39999999999998</ele><time>2026-05-03T14:22:59Z</time></trkpt><trkpt lat="40.890022574062485" lon="0.5577346116419265"><ele>224.0</ele><time>2026-05-03T14:23:00Z</time></trkpt><trkpt lat="40.89002299131533" lon="0.5576136474917607"><ele>222.66666666666669</ele><time>2026-05-03T14:23:01Z</time></trkpt><trkpt lat="40.89003995732123" lon="0.5575020224710309"><ele>221.33333333333334</ele><time>2026-05-03T14:23:02Z</time></trkpt><trkpt lat="40.89006812287824" lon="0.5574019318094614"><ele>220.0</ele><time>2026-05-03T14:23:03Z</time></trkpt><trkpt lat="40.890086753628616" lon="0.557308113541517"><ele>218.66666666666669</ele><time>2026-05-03T14:23:04Z</time></trkpt><trkpt lat="40.890103422053" lon="0.5571752229279915"><ele>217.33333333333334</ele><time>2026-05-03T14:23:06Z</time></trkpt><trkpt lat="40.890089279199564" lon="0.5570808631786641"><ele>216.0</ele><time>2026-05-03T14:23:08Z</time></trkpt><trkpt lat="40.89001574807007" lon="0.5569605949153319"><ele>216.0</ele><time>2026-05-03T14:23:10Z</time></trkpt><trkpt lat="40.889982946759474" lon="0.5568852324602301"><ele>216.00000000000003</ele><time>2026-05-03T14:23:11Z</time></trkpt><trkpt lat="40.889996048865356" lon="0.5567903938178927"><ele>216.00000000000003</ele><time>2026-05-03T14:23:13Z</time></trkpt><trkpt lat="40.89010828915547" lon="0.5569483560070188"><ele>216.0</ele><time>2026-05-03T14:23:51Z</time></trkpt><trkpt lat="40.89016758030578" lon="0.556993646537896"><ele>216.0</ele><time>2026-05-03T14:23:52Z</time></trkpt><trkpt lat="40.8902638853408" lon="0.5570421037208081"><ele>216.0</ele><time>2026-05-03T14:23:54Z</time></trkpt><trkpt lat="40.890314634440635" lon="0.5571531644564434"><ele>216.0</ele><time>2026-05-03T14:23:56Z</time></trkpt><trkpt lat="40.89031300212143" lon="0.557314660772085"><ele>216.0</ele><time>2026-05-03T14:23:58Z</time></trkpt><trkpt lat="40.890353115750685" lon="0.5574685268071213"><ele>216.0</ele><time>2026-05-03T14:24:00Z</time></trkpt><trkpt lat="40.890454561424995" lon="0.5575467851684598"><ele>216.0</ele><time>2026-05-03T14:24:02Z</time></trkpt><trkpt lat="40.890537997656395" lon="0.5575474611899758"><ele>216.00000000000003</ele><time>2026-05-03T14:24:03Z</time></trkpt><trkpt lat="40.89067124771784" lon="0.5575453024722928"><ele>216.00000000000003</ele><time>2026-05-03T14:24:03.999Z</time></trkpt><trkpt lat="40.890789520045374" lon="0.5575499611283572"><ele>216.0</ele><time>2026-05-03T14:24:04.999Z</time></trkpt><trkpt lat="40.890885120728704" lon="0.557538402755654"><ele>216.0</ele><time>2026-05-03T14:24:05.999Z</time></trkpt><trkpt lat="40.89095851899964" lon="0.5575334668703651"><ele>214.83333333333334</ele><time>2026-05-03T14:24:06.999Z</time></trkpt><trkpt lat="40.89102180429365" lon="0.5575343960969567"><ele>213.66666666666669</ele><time>2026-05-03T14:24:07.999Z</time></trkpt><trkpt lat="40.8911226950977" lon="0.5575683387805626"><ele>212.5</ele><time>2026-05-03T14:24:09.999Z</time></trkpt><trkpt lat="40.89121462695848" lon="0.557637889115104"><ele>211.33333333333334</ele><time>2026-05-03T14:24:11.999Z</time></trkpt><trkpt lat="40.891278925045484" lon="0.5576549904852605"><ele>210.16666666666669</ele><time>2026-05-03T14:24:12.999Z</time></trkpt><trkpt lat="40.891388754058475" lon="0.5576536880665509"><ele>209.0</ele><time>2026-05-03T14:24:14.999Z</time></trkpt><trkpt lat="40.89147683625487" lon="0.5576465447238689"><ele>209.0</ele><time>2026-05-03T14:24:16.999Z</time></trkpt><trkpt lat="40.89154557685909" lon="0.5576601410830796"><ele>209.0</ele><time>2026-05-03T14:24:18.999Z</time></trkpt><trkpt lat="40.89161668507264" lon="0.5576992887282284"><ele>209.0</ele><time>2026-05-03T14:24:20.999Z</time></trkpt><trkpt lat="40.89167939019046" lon="0.5577703985015016"><ele>209.0</ele><time>2026-05-03T14:24:22.999Z</time></trkpt><trkpt lat="40.89172230462931" lon="0.5578775875063485"><ele>209.0</ele><time>2026-05-03T14:24:24.999Z</time></trkpt><trkpt lat="40.89173403168407" lon="0.5580564951122878"><ele>209.16666666666669</ele><time>2026-05-03T14:24:27Z</time></trkpt><trkpt lat="40.89176176841344" lon="0.5581666887263792"><ele>209.33333333333334</ele><time>2026-05-03T14:24:28Z</time></trkpt><trkpt lat="40.891775592996176" lon="0.55826765347035"><ele>209.5</ele><time>2026-05-03T14:24:29Z</time></trkpt><trkpt lat="40.89178800787624" lon="0.5583582999630399"><ele>209.66666666666669</ele><time>2026-05-03T14:24:30Z</time></trkpt><trkpt lat="40.89181663470672" lon="0.5584933478796793"><ele>209.83333333333334</ele><time>2026-05-03T14:24:32Z</time></trkpt><trkpt lat="40.891884779185105" lon="0.5585888604535371"><ele>210.0</ele><time>2026-05-03T14:24:34Z</time></trkpt><trkpt lat="40.89201030219651" lon="0.55855561318787"><ele>210.0</ele><time>2026-05-03T14:24:36Z</time></trkpt><trkpt lat="40.89208660061616" lon="0.5584956477497105"><ele>210.0</ele><time>2026-05-03T14:24:37Z</time></trkpt><trkpt lat="40.89214726228589" lon="0.5584566505627704"><ele>210.0</ele><time>2026-05-03T14:24:38Z</time></trkpt><trkpt lat="40.8922451275417" lon="0.5584059604723789"><ele>210.0</ele><time>2026-05-03T14:24:40Z</time></trkpt><trkpt lat="40.89233964859274" lon="0.5584359143214408"><ele>210.0</ele><time>2026-05-03T14:24:42Z</time></trkpt><trkpt lat="40.89243682564894" lon="0.5585539358017676"><ele>210.0</ele><time>2026-05-03T14:24:44Z</time></trkpt><trkpt lat="40.89249639391289" lon="0.5586426742242714"><ele>210.0</ele><time>2026-05-03T14:24:45Z</time></trkpt><trkpt lat="40.89253342236112" lon="0.5587111954213583"><ele>210.0</ele><time>2026-05-03T14:24:46Z</time></trkpt><trkpt lat="40.89253720179532" lon="0.5588574406727083"><ele>210.0</ele><time>2026-05-03T14:24:48Z</time></trkpt><trkpt lat="40.892528671969416" lon="0.5589535182254711"><ele>210.0</ele><time>2026-05-03T14:24:49Z</time></trkpt><trkpt lat="40.89251115394709" lon="0.5590810063923308"><ele>210.0</ele><time>2026-05-03T14:24:50Z</time></trkpt><trkpt lat="40.892510520152754" lon="0.5591649923660591"><ele>210.5</ele><time>2026-05-03T14:24:51Z</time></trkpt><trkpt lat="40.892540340056684" lon="0.5593109468772517"><ele>211.0</ele><time>2026-05-03T14:24:53Z</time></trkpt><trkpt lat="40.892669554570226" lon="0.5594100013678744"><ele>211.5</ele><time>2026-05-03T14:24:55Z</time></trkpt><trkpt lat="40.89278046808113" lon="0.5594660572431751"><ele>212.0</ele><time>2026-05-03T14:24:57Z</time></trkpt><trkpt lat="40.89287343293199" lon="0.5594545389070843"><ele>212.00000000000003</ele><time>2026-05-03T14:24:59Z</time></trkpt><trkpt lat="40.89296073612164" lon="0.5593673073720814"><ele>212.0</ele><time>2026-05-03T14:25:00Z</time></trkpt><trkpt lat="40.893029612160326" lon="0.5592890601373179"><ele>212.0</ele><time>2026-05-03T14:25:01Z</time></trkpt><trkpt lat="40.893078890257804" lon="0.5592248831681745"><ele>212.0</ele><time>2026-05-03T14:25:02Z</time></trkpt><trkpt lat="40.89316108526776" lon="0.5592316374365882"><ele>212.00000000000003</ele><time>2026-05-03T14:25:03Z</time></trkpt><trkpt lat="40.89323522045993" lon="0.5592842667736148"><ele>212.0</ele><time>2026-05-03T14:25:05Z</time></trkpt><trkpt lat="40.89328398479341" lon="0.5594484126204625"><ele>214.0</ele><time>2026-05-03T14:25:07Z</time></trkpt><trkpt lat="40.89328363088302" lon="0.5595924781445154"><ele>216.0</ele><time>2026-05-03T14:25:09Z</time></trkpt><trkpt lat="40.89334676450459" lon="0.5597307825448844"><ele>218.0</ele><time>2026-05-03T14:25:11Z</time></trkpt><trkpt lat="40.89345932526142" lon="0.559778930175674"><ele>220.0</ele><time>2026-05-03T14:25:13Z</time></trkpt><trkpt lat="40.89355461771487" lon="0.5597354870528518"><ele>220.0</ele><time>2026-05-03T14:25:14Z</time></trkpt><trkpt lat="40.89364520992879" lon="0.5597343499089747"><ele>220.0</ele><time>2026-05-03T14:25:15Z</time></trkpt><trkpt lat="40.893706958846394" lon="0.5597106728719674"><ele>220.0</ele><time>2026-05-03T14:25:16Z</time></trkpt><trkpt lat="40.893810189436614" lon="0.5597357713487672"><ele>220.0</ele><time>2026-05-03T14:25:18Z</time></trkpt><trkpt lat="40.893899288522576" lon="0.5597860758132536"><ele>220.0</ele><time>2026-05-03T14:25:20Z</time></trkpt><trkpt lat="40.89398922262006" lon="0.5598504688154898"><ele>219.99999999999997</ele><time>2026-05-03T14:25:22Z</time></trkpt><trkpt lat="40.894106810327" lon="0.5599020756392166"><ele>220.0</ele><time>2026-05-03T14:25:43Z</time></trkpt><trkpt lat="40.89417887205981" lon="0.5599220524396975"><ele>220.0</ele><time>2026-05-03T14:25:44Z</time></trkpt><trkpt lat="40.89424454817798" lon="0.5599108047481959"><ele>220.0</ele><time>2026-05-03T14:25:45Z</time></trkpt><trkpt lat="40.89431125407822" lon="0.5598800418498573"><ele>219.99999999999997</ele><time>2026-05-03T14:25:46Z</time></trkpt><trkpt lat="40.89438992801295" lon="0.5598655683619126"><ele>220.0</ele><time>2026-05-03T14:25:47Z</time></trkpt><trkpt lat="40.89444958905131" lon="0.5598264341614231"><ele>222.0</ele><time>2026-05-03T14:25:50Z</time></trkpt><trkpt lat="40.89451480063488" lon="0.5597761254704648"><ele>224.0</ele><time>2026-05-03T14:25:54Z</time></trkpt><trkpt lat="40.89439233480187" lon="0.5595058843866008"><ele>226.0</ele><time>2026-05-03T14:26:06Z</time></trkpt><trkpt lat="40.894329299715736" lon="0.5594426580456142"><ele>228.0</ele><time>2026-05-03T14:26:07Z</time></trkpt><trkpt lat="40.89425712244961" lon="0.5593594657471882"><ele>225.83333333333334</ele><time>2026-05-03T14:26:08Z</time></trkpt><trkpt lat="40.89418101416382" lon="0.5593094359405321"><ele>223.66666666666669</ele><time>2026-05-03T14:26:09Z</time></trkpt><trkpt lat="40.8941139372987" lon="0.559236481427931"><ele>221.5</ele><time>2026-05-03T14:26:10Z</time></trkpt><trkpt lat="40.894058606508025" lon="0.5591871884429769"><ele>219.33333333333334</ele><time>2026-05-03T14:26:11.999Z</time></trkpt><trkpt lat="40.89402533451159" lon="0.5592614060036443"><ele>217.16666666666669</ele><time>2026-05-03T14:26:16.999Z</time></trkpt><trkpt lat="40.89406205921903" lon="0.5593394689736598"><ele>215.0</ele><time>2026-05-03T14:26:26.999Z</time></trkpt><trkpt lat="40.894239287971125" lon="0.5594415418512223"><ele>217.6</ele><time>2026-05-03T14:26:31.999Z</time></trkpt><trkpt lat="40.89433797171588" lon="0.5595390822785672"><ele>220.2</ele><time>2026-05-03T14:26:33Z</time></trkpt><trkpt lat="40.8944272577474" lon="0.5596106621452023"><ele>222.8</ele><time>2026-05-03T14:26:34Z</time></trkpt><trkpt lat="40.894499603624595" lon="0.5597067814585549"><ele>225.4</ele><time>2026-05-03T14:26:36Z</time></trkpt><trkpt lat="40.894540140282444" lon="0.55981349030763"><ele>228.0</ele><time>2026-05-03T14:26:39Z</time></trkpt><trkpt lat="40.89448824728114" lon="0.5598641036464757"><ele>228.0</ele><time>2026-05-03T14:26:40Z</time></trkpt><trkpt lat="40.89441352644715" lon="0.5598793771512875"><ele>228.0</ele><time>2026-05-03T14:26:41Z</time></trkpt><trkpt lat="40.89434639383622" lon="0.5598813242927903"><ele>228.0</ele><time>2026-05-03T14:26:42Z</time></trkpt><trkpt lat="40.89427104309633" lon="0.5599006369667568"><ele>228.0</ele><time>2026-05-03T14:26:43Z</time></trkpt><trkpt lat="40.8941786650899" lon="0.5599015800376327"><ele>228.0</ele><time>2026-05-03T14:26:45Z</time></trkpt><trkpt lat="40.89402039994481" lon="0.5598833845183653"><ele>226.66666666666666</ele><time>2026-05-03T14:26:51Z</time></trkpt><trkpt lat="40.89396203069098" lon="0.5598374303463141"><ele>225.33333333333331</ele><time>2026-05-03T14:26:52Z</time></trkpt><trkpt lat="40.89388805743871" lon="0.5598040161869574"><ele>224.0</ele><time>2026-05-03T14:26:53Z</time></trkpt><trkpt lat="40.89382160807731" lon="0.5597417237645415"><ele>222.66666666666666</ele><time>2026-05-03T14:26:54Z</time></trkpt><trkpt lat="40.89373842521227" lon="0.5597329961720765"><ele>221.33333333333331</ele><time>2026-05-03T14:26:55Z</time></trkpt><trkpt lat="40.8936698816859" lon="0.5597296706507647"><ele>220.0</ele><time>2026-05-03T14:26:56Z</time></trkpt><trkpt lat="40.89359369544239" lon="0.5597436696400847"><ele>219.99999999999997</ele><time>2026-05-03T14:26:57Z</time></trkpt><trkpt lat="40.893524559137134" lon="0.5597634002293039"><ele>220.0</ele><time>2026-05-03T14:26:58Z</time></trkpt><trkpt lat="40.893402548875294" lon="0.5597732851233019"><ele>220.0</ele><time>2026-05-03T14:27:00Z</time></trkpt><trkpt lat="40.89334189721289" lon="0.5597206234101025"><ele>220.0</ele><time>2026-05-03T14:27:01Z</time></trkpt><trkpt lat="40.89329198729299" lon="0.5596656475955533"><ele>219.99999999999997</ele><time>2026-05-03T14:27:02Z</time></trkpt><trkpt lat="40.893273918556474" lon="0.559576257386528"><ele>220.0</ele><time>2026-05-03T14:27:03Z</time></trkpt><trkpt lat="40.89329213805131" lon="0.5594019638184989"><ele>218.4</ele><time>2026-05-03T14:27:05Z</time></trkpt><trkpt lat="40.89323723956231" lon="0.5592815430927217"><ele>216.8</ele><time>2026-05-03T14:27:07Z</time></trkpt><trkpt lat="40.89315652818924" lon="0.5592176408697223"><ele>215.2</ele><time>2026-05-03T14:27:09Z</time></trkpt><trkpt lat="40.89304581495952" lon="0.5592449450641235"><ele>213.6</ele><time>2026-05-03T14:27:11Z</time></trkpt><trkpt lat="40.89298020647153" lon="0.5593017096640263"><ele>212.0</ele><time>2026-05-03T14:27:12Z</time></trkpt><trkpt lat="40.892864220218634" lon="0.5593955401451953"><ele>212.0</ele><time>2026-05-03T14:27:14Z</time></trkpt><trkpt lat="40.89273800101709" lon="0.5593863172348289"><ele>212.0</ele><time>2026-05-03T14:27:16Z</time></trkpt><trkpt lat="40.892625823599744" lon="0.559329724290075"><ele>212.0</ele><time>2026-05-03T14:27:18Z</time></trkpt><trkpt lat="40.892540248102016" lon="0.5592294532544163"><ele>212.0</ele><time>2026-05-03T14:27:20Z</time></trkpt><trkpt lat="40.89253444777085" lon="0.5590964121244864"><ele>211.6</ele><time>2026-05-03T14:27:22Z</time></trkpt><trkpt lat="40.892557486670576" lon="0.5589550269954107"><ele>211.2</ele><time>2026-05-03T14:27:24Z</time></trkpt><trkpt lat="40.89256704111833" lon="0.5588098262539932"><ele>210.8</ele><time>2026-05-03T14:27:26Z</time></trkpt><trkpt lat="40.8925515760376" lon="0.5587150299530594"><ele>210.4</ele><time>2026-05-03T14:27:28Z</time></trkpt><trkpt lat="40.892492466174204" lon="0.5585950408319434"><ele>210.0</ele><time>2026-05-03T14:27:30Z</time></trkpt><trkpt lat="40.89242356348996" lon="0.5585070849449878"><ele>210.0</ele><time>2026-05-03T14:27:31Z</time></trkpt><trkpt lat="40.89236435809362" lon="0.558439112554949"><ele>210.0</ele><time>2026-05-03T14:27:32Z</time></trkpt><trkpt lat="40.89225849078625" lon="0.558409774471794"><ele>210.0</ele><time>2026-05-03T14:27:34Z</time></trkpt><trkpt lat="40.892133554138745" lon="0.5584777888775779"><ele>210.0</ele><time>2026-05-03T14:27:36Z</time></trkpt><trkpt lat="40.89206076923405" lon="0.5585307741468274"><ele>210.0</ele><time>2026-05-03T14:27:37Z</time></trkpt><trkpt lat="40.89199063411155" lon="0.5585596411372503"><ele>210.0</ele><time>2026-05-03T14:27:38Z</time></trkpt><trkpt lat="40.89192799563478" lon="0.5585874451993433"><ele>210.0</ele><time>2026-05-03T14:27:39Z</time></trkpt><trkpt lat="40.89182031768915" lon="0.5585478822387462"><ele>210.0</ele><time>2026-05-03T14:27:41Z</time></trkpt><trkpt lat="40.891787749926465" lon="0.5584664976013999"><ele>210.0</ele><time>2026-05-03T14:27:42Z</time></trkpt><trkpt lat="40.89176824025869" lon="0.558346506398081"><ele>210.0</ele><time>2026-05-03T14:27:43Z</time></trkpt><trkpt lat="40.89175987801119" lon="0.5581958100543705"><ele>209.8</ele><time>2026-05-03T14:27:44Z</time></trkpt><trkpt lat="40.891745998581015" lon="0.5580753497176792"><ele>209.6</ele><time>2026-05-03T14:27:45Z</time></trkpt><trkpt lat="40.89172766109916" lon="0.5579873102906344"><ele>209.39999999999998</ele><time>2026-05-03T14:27:46Z</time></trkpt><trkpt lat="40.89172128060731" lon="0.5578665795979131"><ele>209.2</ele><time>2026-05-03T14:27:48Z</time></trkpt><trkpt lat="40.8916733138243" lon="0.5577567542007877"><ele>209.0</ele><time>2026-05-03T14:27:50Z</time></trkpt><trkpt lat="40.891583280994446" lon="0.5576856858800706"><ele>209.00000000000003</ele><time>2026-05-03T14:27:52Z</time></trkpt><trkpt lat="40.891520424144524" lon="0.5576588120687901"><ele>209.0</ele><time>2026-05-03T14:27:53Z</time></trkpt><trkpt lat="40.89143809516709" lon="0.5576303186006276"><ele>209.0</ele><time>2026-05-03T14:27:54Z</time></trkpt><trkpt lat="40.89135347121945" lon="0.5576345996667917"><ele>209.0</ele><time>2026-05-03T14:27:55Z</time></trkpt><trkpt lat="40.891279684402136" lon="0.5576606892486339"><ele>209.00000000000003</ele><time>2026-05-03T14:27:56Z</time></trkpt><trkpt lat="40.8912063755887" lon="0.5576598721954308"><ele>209.0</ele><time>2026-05-03T14:27:57Z</time></trkpt><trkpt lat="40.8911382495223" lon="0.5576095434131122"><ele>209.0</ele><time>2026-05-03T14:27:58Z</time></trkpt><trkpt lat="40.891047311175114" lon="0.55754104793679"><ele>209.0</ele><time>2026-05-03T14:28:00Z</time></trkpt><trkpt lat="40.89097845617793" lon="0.5575393040190433"><ele>209.0</ele><time>2026-05-03T14:28:01Z</time></trkpt><trkpt lat="40.89086439602659" lon="0.5575389198291509"><ele>209.0</ele><time>2026-05-03T14:28:02Z</time></trkpt><trkpt lat="40.89074042296251" lon="0.5575468346821237"><ele>209.0</ele><time>2026-05-03T14:28:02.999Z</time></trkpt><trkpt lat="40.890636349308174" lon="0.5575580505649637"><ele>210.39999999999998</ele><time>2026-05-03T14:28:03.999Z</time></trkpt><trkpt lat="40.89054052698154" lon="0.5575630985866427"><ele>211.8</ele><time>2026-05-03T14:28:04.999Z</time></trkpt><trkpt lat="40.890454012765574" lon="0.5575545374177978"><ele>213.20000000000002</ele><time>2026-05-03T14:28:05.999Z</time></trkpt><trkpt lat="40.89034578880904" lon="0.5574997294772011"><ele>214.60000000000002</ele><time>2026-05-03T14:28:07.999Z</time></trkpt><trkpt lat="40.89032088755087" lon="0.5573476053258747"><ele>216.0</ele><time>2026-05-03T14:28:09.999Z</time></trkpt><trkpt lat="40.89030498547807" lon="0.5572654491860338"><ele>216.0</ele><time>2026-05-03T14:28:10.999Z</time></trkpt><trkpt lat="40.89030500984403" lon="0.5571755168537229"><ele>216.0</ele><time>2026-05-03T14:28:11.999Z</time></trkpt><trkpt lat="40.890282767758514" lon="0.5570555940916933"><ele>216.0</ele><time>2026-05-03T14:28:13.999Z</time></trkpt><trkpt lat="40.89023233348921" lon="0.5569965134766809"><ele>216.0</ele><time>2026-05-03T14:28:14.999Z</time></trkpt><trkpt lat="40.890163884695816" lon="0.5569536568341854"><ele>216.0</ele><time>2026-05-03T14:28:15.999Z</time></trkpt><trkpt lat="40.89005767020324" lon="0.5568852749224624"><ele>216.0</ele><time>2026-05-03T14:28:17.999Z</time></trkpt><trkpt lat="40.89002797118432" lon="0.5567470262693445"><ele>214.4</ele><time>2026-05-03T14:28:19.999Z</time></trkpt><trkpt lat="40.890031734351574" lon="0.5565974271966981"><ele>212.8</ele><time>2026-05-03T14:28:21.999Z</time></trkpt><trkpt lat="40.89004421508151" lon="0.5564874757723018"><ele>211.20000000000002</ele><time>2026-05-03T14:28:22.999Z</time></trkpt><trkpt lat="40.89005541590834" lon="0.5563658446309189"><ele>209.60000000000002</ele><time>2026-05-03T14:28:23.999Z</time></trkpt><trkpt lat="40.890086427909054" lon="0.5562315601846977"><ele>208.0</ele><time>2026-05-03T14:28:24.999Z</time></trkpt><trkpt lat="40.89012246263001" lon="0.5561250663168311"><ele>207.99999999999997</ele><time>2026-05-03T14:28:25.999Z</time></trkpt><trkpt lat="40.89015513593714" lon="0.5560301198713914"><ele>208.0</ele><time>2026-05-03T14:28:26.999Z</time></trkpt><trkpt lat="40.890183072627316" lon="0.5559483258087109"><ele>208.0</ele><time>2026-05-03T14:28:27.999Z</time></trkpt><trkpt lat="40.890244477997356" lon="0.5558018054683004"><ele>208.0</ele><time>2026-05-03T14:28:29.999Z</time></trkpt><trkpt lat="40.89026710924357" lon="0.5557130867811763"><ele>207.99999999999997</ele><time>2026-05-03T14:28:30.999Z</time></trkpt><trkpt lat="40.89027562586712" lon="0.5555961467290581"><ele>208.0</ele><time>2026-05-03T14:28:31.999Z</time></trkpt><trkpt lat="40.89027114038704" lon="0.5554529027063989"><ele>210.0</ele><time>2026-05-03T14:28:32.999Z</time></trkpt><trkpt lat="40.89026117529972" lon="0.5553003785172643"><ele>212.0</ele><time>2026-05-03T14:28:33.999Z</time></trkpt><trkpt lat="40.890272788136514" lon="0.5551347946809222"><ele>214.0</ele><time>2026-05-03T14:28:34.999Z</time></trkpt><trkpt lat="40.89028943831991" lon="0.5549603068578315"><ele>216.0</ele><time>2026-05-03T14:28:35.999Z</time></trkpt><trkpt lat="40.8902928785629" lon="0.5547856877274329"><ele>216.0</ele><time>2026-05-03T14:28:36.999Z</time></trkpt><trkpt lat="40.89029537455664" lon="0.5546092213666528"><ele>216.00000000000003</ele><time>2026-05-03T14:28:37.999Z</time></trkpt><trkpt lat="40.89029573982454" lon="0.5544609433436666"><ele>216.00000000000003</ele><time>2026-05-03T14:28:39Z</time></trkpt><trkpt lat="40.89030074968844" lon="0.5543251075201053"><ele>216.0</ele><time>2026-05-03T14:28:40Z</time></trkpt><trkpt lat="40.89029740511343" lon="0.5541961033764465"><ele>216.0</ele><time>2026-05-03T14:28:41Z</time></trkpt><trkpt lat="40.890285819192314" lon="0.5540688050187148"><ele>215.83333333333334</ele><time>2026-05-03T14:28:42Z</time></trkpt><trkpt lat="40.89026461869537" lon="0.5539504597282205"><ele>215.66666666666669</ele><time>2026-05-03T14:28:43Z</time></trkpt><trkpt lat="40.89023196774809" lon="0.5538388624137436"><ele>215.5</ele><time>2026-05-03T14:28:44Z</time></trkpt><trkpt lat="40.890195280384" lon="0.5537333100103605"><ele>215.33333333333334</ele><time>2026-05-03T14:28:45Z</time></trkpt><trkpt lat="40.8901553487176" lon="0.5536517053790405"><ele>215.16666666666669</ele><time>2026-05-03T14:28:46Z</time></trkpt><trkpt lat="40.890134152301236" lon="0.5535718742460776"><ele>215.0</ele><time>2026-05-03T14:28:47Z</time></trkpt><trkpt lat="40.890155363741904" lon="0.5533932384307914"><ele>214.33333333333334</ele><time>2026-05-03T14:28:49Z</time></trkpt><trkpt lat="40.89017204956601" lon="0.5532941218616234"><ele>213.66666666666669</ele><time>2026-05-03T14:28:50Z</time></trkpt><trkpt lat="40.89017655420436" lon="0.5532045075239163"><ele>213.0</ele><time>2026-05-03T14:28:51Z</time></trkpt><trkpt lat="40.89015913259444" lon="0.5531081697897858"><ele>212.33333333333331</ele><time>2026-05-03T14:28:52Z</time></trkpt><trkpt lat="40.890128698732" lon="0.5530027009280569"><ele>211.66666666666666</ele><time>2026-05-03T14:28:53Z</time></trkpt><trkpt lat="40.890084685065744" lon="0.5528389975839711"><ele>211.0</ele><time>2026-05-03T14:28:54Z</time></trkpt><trkpt lat="40.89004372956482" lon="0.5526752834840943"><ele>208.0</ele><time>2026-05-03T14:28:55Z</time></trkpt><trkpt lat="40.890000489807896" lon="0.552522986881525"><ele>205.0</ele><time>2026-05-03T14:28:56Z</time></trkpt><trkpt lat="40.889963514374344" lon="0.5523661333460576"><ele>202.0</ele><time>2026-05-03T14:28:57Z</time></trkpt><trkpt lat="40.88993585612521" lon="0.5522282494201667"><ele>199.0</ele><time>2026-05-03T14:28:58Z</time></trkpt><trkpt lat="40.88990842864962" lon="0.5521063465850582"><ele>198.39999999999998</ele><time>2026-05-03T14:28:59Z</time></trkpt><trkpt lat="40.88987656808999" lon="0.5520037134773798"><ele>197.8</ele><time>2026-05-03T14:29:00Z</time></trkpt><trkpt lat="40.88985239328455" lon="0.5519246731378009"><ele>197.2</ele><time>2026-05-03T14:29:01Z</time></trkpt><trkpt lat="40.889886947669396" lon="0.5517765395825178"><ele>196.60000000000002</ele><time>2026-05-03T14:29:03Z</time></trkpt><trkpt lat="40.889986787672285" lon="0.5516930313859499"><ele>196.0</ele><time>2026-05-03T14:29:05Z</time></trkpt><trkpt lat="40.89005790538056" lon="0.5516354612499749"><ele>196.4</ele><time>2026-05-03T14:29:06Z</time></trkpt><trkpt lat="40.890115393578434" lon="0.5515713971685814"><ele>196.8</ele><time>2026-05-03T14:29:07Z</time></trkpt><trkpt lat="40.89017312405591" lon="0.5515008275854666"><ele>197.20000000000002</ele><time>2026-05-03T14:29:08Z</time></trkpt><trkpt lat="40.890222439154414" lon="0.5514082089238087"><ele>197.60000000000002</ele><time>2026-05-03T14:29:09Z</time></trkpt><trkpt lat="40.890262528206534" lon="0.5512856684901642"><ele>198.0</ele><time>2026-05-03T14:29:10Z</time></trkpt><trkpt lat="40.89030645457795" lon="0.5511198119786643"><ele>198.0</ele><time>2026-05-03T14:29:11Z</time></trkpt><trkpt lat="40.89034526314496" lon="0.5509737984606533"><ele>198.0</ele><time>2026-05-03T14:29:12Z</time></trkpt><trkpt lat="40.890390446646485" lon="0.5508437809128661"><ele>198.0</ele><time>2026-05-03T14:29:13Z</time></trkpt><trkpt lat="40.89043097129024" lon="0.5507156412868743"><ele>198.0</ele><time>2026-05-03T14:29:14Z</time></trkpt><trkpt lat="40.890463242301266" lon="0.5506042099866152"><ele>198.0</ele><time>2026-05-03T14:29:15Z</time></trkpt><trkpt lat="40.89050513573542" lon="0.550497748261836"><ele>198.0</ele><time>2026-05-03T14:29:16Z</time></trkpt><trkpt lat="40.89055066182546" lon="0.5504049116509259"><ele>198.0</ele><time>2026-05-03T14:29:17Z</time></trkpt><trkpt lat="40.89058852667049" lon="0.5502961647962334"><ele>198.0</ele><time>2026-05-03T14:29:18Z</time></trkpt><trkpt lat="40.89061155239409" lon="0.5501807852682074"><ele>198.0</ele><time>2026-05-03T14:29:19Z</time></trkpt><trkpt lat="40.890621350603524" lon="0.5500637383310005"><ele>198.0</ele><time>2026-05-03T14:29:20Z</time></trkpt><trkpt lat="40.890628512590425" lon="0.5499227915322671"><ele>197.0</ele><time>2026-05-03T14:29:21Z</time></trkpt><trkpt lat="40.890633120230625" lon="0.549749896009327"><ele>196.0</ele><time>2026-05-03T14:29:22Z</time></trkpt><trkpt lat="40.89063481920501" lon="0.5495753375025137"><ele>195.0</ele><time>2026-05-03T14:29:23Z</time></trkpt><trkpt lat="40.890627904401626" lon="0.549421191660595"><ele>194.0</ele><time>2026-05-03T14:29:24Z</time></trkpt><trkpt lat="40.89061884130355" lon="0.5492794354229907"><ele>193.39999999999998</ele><time>2026-05-03T14:29:25Z</time></trkpt><trkpt lat="40.89060610786938" lon="0.5491408400661394"><ele>192.8</ele><time>2026-05-03T14:29:26Z</time></trkpt><trkpt lat="40.89059278348098" lon="0.5490036462937954"><ele>192.2</ele><time>2026-05-03T14:29:27Z</time></trkpt><trkpt lat="40.89058900323533" lon="0.5488781611920235"><ele>191.60000000000002</ele><time>2026-05-03T14:29:28Z</time></trkpt><trkpt lat="40.89059427595363" lon="0.5487494722358823"><ele>191.0</ele><time>2026-05-03T14:29:29Z</time></trkpt><trkpt lat="40.89060750118255" lon="0.5486105693645916"><ele>190.60000000000002</ele><time>2026-05-03T14:29:30Z</time></trkpt><trkpt lat="40.890631693334264" lon="0.5484606383773364"><ele>190.2</ele><time>2026-05-03T14:29:31Z</time></trkpt><trkpt lat="40.89066777990938" lon="0.5483141189625712"><ele>189.8</ele><time>2026-05-03T14:29:32Z</time></trkpt><trkpt lat="40.89069663431912" lon="0.5481718901764513"><ele>189.39999999999998</ele><time>2026-05-03T14:29:33Z</time></trkpt><trkpt lat="40.890714741413646" lon="0.5480387885737299"><ele>189.0</ele><time>2026-05-03T14:29:34Z</time></trkpt><trkpt lat="40.89072338736347" lon="0.5479081793085818"><ele>188.0</ele><time>2026-05-03T14:29:35Z</time></trkpt><trkpt lat="40.89072831682562" lon="0.5477834384850969"><ele>187.0</ele><time>2026-05-03T14:29:36Z</time></trkpt><trkpt lat="40.89073565779375" lon="0.5476684796354551"><ele>186.0</ele><time>2026-05-03T14:29:37Z</time></trkpt><trkpt lat="40.890741152864514" lon="0.5475555970023487"><ele>185.0</ele><time>2026-05-03T14:29:38Z</time></trkpt><trkpt lat="40.890748889609256" lon="0.5474542457306624"><ele>184.0</ele><time>2026-05-03T14:29:39Z</time></trkpt><trkpt lat="40.890751848275265" lon="0.5473629722295751"><ele>183.0</ele><time>2026-05-03T14:29:40Z</time></trkpt><trkpt lat="40.89075617776201" lon="0.5472724065558072"><ele>183.0</ele><time>2026-05-03T14:29:41Z</time></trkpt><trkpt lat="40.89075762190548" lon="0.5471846487914803"><ele>183.0</ele><time>2026-05-03T14:29:42Z</time></trkpt><trkpt lat="40.89076573170172" lon="0.547025609378088"><ele>183.0</ele><time>2026-05-03T14:29:44Z</time></trkpt><trkpt lat="40.890793512306296" lon="0.5469341831991119"><ele>183.0</ele><time>2026-05-03T14:29:45Z</time></trkpt><trkpt lat="40.890832909428596" lon="0.5468141016760758"><ele>183.0</ele><time>2026-05-03T14:29:46Z</time></trkpt><trkpt lat="40.89088150141785" lon="0.5466684761203756"><ele>182.4</ele><time>2026-05-03T14:29:47Z</time></trkpt><trkpt lat="40.890925240811185" lon="0.5465239185563026"><ele>181.8</ele><time>2026-05-03T14:29:48Z</time></trkpt><trkpt lat="40.89096686280151" lon="0.5463891779706761"><ele>181.2</ele><time>2026-05-03T14:29:49Z</time></trkpt><trkpt lat="40.891009205543874" lon="0.5462625394284539"><ele>180.6</ele><time>2026-05-03T14:29:50Z</time></trkpt><trkpt lat="40.89104836484332" lon="0.5461471248120466"><ele>180.0</ele><time>2026-05-03T14:29:51Z</time></trkpt><trkpt lat="40.89108150113343" lon="0.5460258017881583"><ele>179.6</ele><time>2026-05-03T14:29:52Z</time></trkpt><trkpt lat="40.89111863401895" lon="0.5458995306421934"><ele>179.2</ele><time>2026-05-03T14:29:53Z</time></trkpt><trkpt lat="40.891157959115674" lon="0.5457808101856334"><ele>178.8</ele><time>2026-05-03T14:29:54Z</time></trkpt><trkpt lat="40.89120278961276" lon="0.5456615098208141"><ele>178.4</ele><time>2026-05-03T14:29:55Z</time></trkpt><trkpt lat="40.891256618112834" lon="0.5455225749813231"><ele>178.0</ele><time>2026-05-03T14:29:56Z</time></trkpt><trkpt lat="40.891314734821044" lon="0.5453881700319195"><ele>177.0</ele><time>2026-05-03T14:29:57Z</time></trkpt><trkpt lat="40.89136248910405" lon="0.5452656817787805"><ele>176.0</ele><time>2026-05-03T14:29:58Z</time></trkpt><trkpt lat="40.89141725949428" lon="0.5451636654443579"><ele>175.0</ele><time>2026-05-03T14:29:59Z</time></trkpt><trkpt lat="40.89148494445678" lon="0.5450779113053867"><ele>174.0</ele><time>2026-05-03T14:30:00Z</time></trkpt><trkpt lat="40.89158596690221" lon="0.5449655852024344"><ele>173.0</ele><time>2026-05-03T14:30:01Z</time></trkpt><trkpt lat="40.89168888945928" lon="0.5448410276785935"><ele>173.0</ele><time>2026-05-03T14:30:02Z</time></trkpt><trkpt lat="40.89181519813196" lon="0.5446737798735618"><ele>173.0</ele><time>2026-05-03T14:30:03Z</time></trkpt><trkpt lat="40.891918913907" lon="0.5445196973175178"><ele>173.0</ele><time>2026-05-03T14:30:04Z</time></trkpt><trkpt lat="40.89200922340696" lon="0.544386214030507"><ele>172.2</ele><time>2026-05-03T14:30:05Z</time></trkpt><trkpt lat="40.89209585823036" lon="0.5442699206353799"><ele>171.4</ele><time>2026-05-03T14:30:05.999Z</time></trkpt><trkpt lat="40.892169074099044" lon="0.5441593656721396"><ele>170.6</ele><time>2026-05-03T14:30:06.999Z</time></trkpt><trkpt lat="40.892230868227905" lon="0.5440562837769226"><ele>169.79999999999998</ele><time>2026-05-03T14:30:07.999Z</time></trkpt><trkpt lat="40.89228448750055" lon="0.5439647701328106"><ele>169.0</ele><time>2026-05-03T14:30:08.999Z</time></trkpt><trkpt lat="40.89232197114952" lon="0.5438574173397563"><ele>167.79999999999998</ele><time>2026-05-03T14:30:09.999Z</time></trkpt><trkpt lat="40.892352278200285" lon="0.5437110904412225"><ele>166.6</ele><time>2026-05-03T14:30:10.999Z</time></trkpt><trkpt lat="40.89237232563996" lon="0.5435612594936279"><ele>165.4</ele><time>2026-05-03T14:30:11.999Z</time></trkpt><trkpt lat="40.89239495574606" lon="0.5434232712646637"><ele>164.2</ele><time>2026-05-03T14:30:12.999Z</time></trkpt><trkpt lat="40.89242631873162" lon="0.5432943099146269"><ele>163.0</ele><time>2026-05-03T14:30:13.999Z</time></trkpt><trkpt lat="40.892460180868596" lon="0.5431723358734174"><ele>163.0</ele><time>2026-05-03T14:30:14.999Z</time></trkpt><trkpt lat="40.89249552353979" lon="0.54305130266913"><ele>163.0</ele><time>2026-05-03T14:30:15.999Z</time></trkpt><trkpt lat="40.89253820420504" lon="0.5429283078873303"><ele>163.0</ele><time>2026-05-03T14:30:16.999Z</time></trkpt><trkpt lat="40.892580760896706" lon="0.5428117036537837"><ele>163.0</ele><time>2026-05-03T14:30:17.999Z</time></trkpt><trkpt lat="40.8926470579078" lon="0.542690945253918"><ele>163.0</ele><time>2026-05-03T14:30:18.999Z</time></trkpt><trkpt lat="40.892730627427234" lon="0.5425990324631774"><ele>163.60000000000002</ele><time>2026-05-03T14:30:19.999Z</time></trkpt><trkpt lat="40.892818951725765" lon="0.5424973767349853"><ele>164.20000000000002</ele><time>2026-05-03T14:30:20.999Z</time></trkpt><trkpt lat="40.892891298355494" lon="0.5423909441656736"><ele>164.8</ele><time>2026-05-03T14:30:21.999Z</time></trkpt><trkpt lat="40.892959700739134" lon="0.5422976911207219"><ele>165.4</ele><time>2026-05-03T14:30:22.999Z</time></trkpt><trkpt lat="40.89302027515811" lon="0.542201221239471"><ele>166.0</ele><time>2026-05-03T14:30:23.999Z</time></trkpt><trkpt lat="40.89307086563306" lon="0.5420970508200672"><ele>165.4</ele><time>2026-05-03T14:30:24.999Z</time></trkpt><trkpt lat="40.89312105357337" lon="0.5419883583859199"><ele>164.8</ele><time>2026-05-03T14:30:25.999Z</time></trkpt><trkpt lat="40.893177472155706" lon="0.5418767504019066"><ele>164.20000000000002</ele><time>2026-05-03T14:30:26.999Z</time></trkpt><trkpt lat="40.89323545878965" lon="0.5417762974301866"><ele>163.60000000000002</ele><time>2026-05-03T14:30:27.999Z</time></trkpt><trkpt lat="40.89328166031534" lon="0.5416856338606231"><ele>163.0</ele><time>2026-05-03T14:30:28.999Z</time></trkpt><trkpt lat="40.89331973839678" lon="0.5415933744576503"><ele>163.0</ele><time>2026-05-03T14:30:29.999Z</time></trkpt><trkpt lat="40.893340002219226" lon="0.5414939176974324"><ele>163.0</ele><time>2026-05-03T14:30:30.999Z</time></trkpt><trkpt lat="40.89334245175091" lon="0.5413721623414852"><ele>163.0</ele><time>2026-05-03T14:30:31.999Z</time></trkpt><trkpt lat="40.89334531884845" lon="0.5412438555843908"><ele>163.0</ele><time>2026-05-03T14:30:32.999Z</time></trkpt><trkpt lat="40.893369231323774" lon="0.5411269155467369"><ele>163.0</ele><time>2026-05-03T14:30:33.999Z</time></trkpt><trkpt lat="40.89338593400309" lon="0.541011023840813"><ele>163.0</ele><time>2026-05-03T14:30:34.999Z</time></trkpt><trkpt lat="40.89338989911241" lon="0.5408891790678246"><ele>161.8</ele><time>2026-05-03T14:30:35.999Z</time></trkpt><trkpt lat="40.89339707713239" lon="0.5407770221743413"><ele>160.60000000000002</ele><time>2026-05-03T14:30:36.999Z</time></trkpt><trkpt lat="40.89341748617631" lon="0.5406553293066201"><ele>159.39999999999998</ele><time>2026-05-03T14:30:37.999Z</time></trkpt><trkpt lat="40.89345081121071" lon="0.5405426728798279"><ele>158.2</ele><time>2026-05-03T14:30:38.999Z</time></trkpt><trkpt lat="40.89349977447164" lon="0.5404374637592771"><ele>157.0</ele><time>2026-05-03T14:30:39.999Z</time></trkpt><trkpt lat="40.893566181493654" lon="0.5403470430018734"><ele>155.2</ele><time>2026-05-03T14:30:40.999Z</time></trkpt><trkpt lat="40.89364529769463" lon="0.5402585384179927"><ele>153.39999999999998</ele><time>2026-05-03T14:30:41.999Z</time></trkpt><trkpt lat="40.89372889649583" lon="0.5401719763099516"><ele>151.60000000000002</ele><time>2026-05-03T14:30:42.999Z</time></trkpt><trkpt lat="40.89380048541452" lon="0.5400774882650389"><ele>149.8</ele><time>2026-05-03T14:30:43.999Z</time></trkpt><trkpt lat="40.89387392054167" lon="0.5400013872158893"><ele>148.0</ele><time>2026-05-03T14:30:45Z</time></trkpt><trkpt lat="40.8939460211002" lon="0.5399334865213723"><ele>148.0</ele><time>2026-05-03T14:30:46Z</time></trkpt><trkpt lat="40.89401131399272" lon="0.5398660044358752"><ele>148.0</ele><time>2026-05-03T14:30:47Z</time></trkpt><trkpt lat="40.89406312115561" lon="0.539791511211934"><ele>148.0</ele><time>2026-05-03T14:30:48Z</time></trkpt><trkpt lat="40.89410881411465" lon="0.53969571338658"><ele>148.0</ele><time>2026-05-03T14:30:49Z</time></trkpt><trkpt lat="40.89415803109766" lon="0.539573880156024"><ele>148.0</ele><time>2026-05-03T14:30:50Z</time></trkpt><trkpt lat="40.89421888608251" lon="0.5394520054030439"><ele>147.16666666666669</ele><time>2026-05-03T14:30:51Z</time></trkpt><trkpt lat="40.89428129311675" lon="0.539353376176924"><ele>146.33333333333334</ele><time>2026-05-03T14:30:52Z</time></trkpt><trkpt lat="40.89434645014447" lon="0.5392641193771742"><ele>145.5</ele><time>2026-05-03T14:30:53Z</time></trkpt><trkpt lat="40.894416727574814" lon="0.5391925595911359"><ele>144.66666666666666</ele><time>2026-05-03T14:30:54Z</time></trkpt><trkpt lat="40.8944823741026" lon="0.5391202830630467"><ele>143.83333333333331</ele><time>2026-05-03T14:30:55Z</time></trkpt><trkpt lat="40.89454153536832" lon="0.5390515015871958"><ele>143.0</ele><time>2026-05-03T14:30:56Z</time></trkpt><trkpt lat="40.894593712690366" lon="0.5389796386787421"><ele>143.0</ele><time>2026-05-03T14:30:57Z</time></trkpt><trkpt lat="40.894632813214905" lon="0.5388988520878626"><ele>143.0</ele><time>2026-05-03T14:30:58Z</time></trkpt><trkpt lat="40.894654949214754" lon="0.5387624665551647"><ele>143.0</ele><time>2026-05-03T14:31:00Z</time></trkpt><trkpt lat="40.89461634379487" lon="0.5386472851793219"><ele>143.0</ele><time>2026-05-03T14:31:02Z</time></trkpt><trkpt lat="40.89453995950491" lon="0.5386121741813732"><ele>143.0</ele><time>2026-05-03T14:31:03Z</time></trkpt><trkpt lat="40.894467693482554" lon="0.538533437280403"><ele>143.0</ele><time>2026-05-03T14:31:05Z</time></trkpt><trkpt lat="40.89452907924277" lon="0.5383600638242202"><ele>142.66666666666666</ele><time>2026-05-03T14:31:07Z</time></trkpt><trkpt lat="40.894570269145916" lon="0.5382468592224173"><ele>142.33333333333331</ele><time>2026-05-03T14:31:08Z</time></trkpt><trkpt lat="40.894598475149095" lon="0.5381707466281856"><ele>142.0</ele><time>2026-05-03T14:31:09Z</time></trkpt><trkpt lat="40.89463935605082" lon="0.538099911744444"><ele>141.66666666666666</ele><time>2026-05-03T14:31:10Z</time></trkpt><trkpt lat="40.894741951662304" lon="0.5380522086582747"><ele>141.33333333333334</ele><time>2026-05-03T14:31:12Z</time></trkpt><trkpt lat="40.894835246614235" lon="0.5379912542123215"><ele>141.0</ele><time>2026-05-03T14:31:14Z</time></trkpt><trkpt lat="40.894936733941634" lon="0.5378715458908796"><ele>141.0</ele><time>2026-05-03T14:31:16Z</time></trkpt><trkpt lat="40.89499110920364" lon="0.5377768928391923"><ele>141.0</ele><time>2026-05-03T14:31:17Z</time></trkpt><trkpt lat="40.895058520987384" lon="0.5376886528629125"><ele>141.0</ele><time>2026-05-03T14:31:18Z</time></trkpt><trkpt lat="40.89514110118181" lon="0.5375962892341455"><ele>141.0</ele><time>2026-05-03T14:31:19Z</time></trkpt><trkpt lat="40.895236791119316" lon="0.5375046407676319"><ele>141.0</ele><time>2026-05-03T14:31:20Z</time></trkpt><trkpt lat="40.89532480327983" lon="0.537408143767472"><ele>138.8</ele><time>2026-05-03T14:31:21Z</time></trkpt><trkpt lat="40.895405040366924" lon="0.5373121783335271"><ele>136.6</ele><time>2026-05-03T14:31:22Z</time></trkpt><trkpt lat="40.895500335226515" lon="0.5372088897815358"><ele>134.4</ele><time>2026-05-03T14:31:23Z</time></trkpt><trkpt lat="40.89553424334794" lon="0.5371052204925474"><ele>132.2</ele><time>2026-05-03T14:31:24Z</time></trkpt><trkpt lat="40.89564743628265" lon="0.537032607702109"><ele>130.0</ele><time>2026-05-03T14:31:25Z</time></trkpt><trkpt lat="40.8957348581838" lon="0.5369733455887692"><ele>130.0</ele><time>2026-05-03T14:31:26Z</time></trkpt><trkpt lat="40.89582299345283" lon="0.5369167687317816"><ele>130.0</ele><time>2026-05-03T14:31:27Z</time></trkpt><trkpt lat="40.89589630744696" lon="0.5368412943632551"><ele>130.0</ele><time>2026-05-03T14:31:28Z</time></trkpt><trkpt lat="40.89596618710571" lon="0.5367871768656847"><ele>130.0</ele><time>2026-05-03T14:31:29Z</time></trkpt><trkpt lat="40.896029221513864" lon="0.5367130679187766"><ele>130.0</ele><time>2026-05-03T14:31:30Z</time></trkpt><trkpt lat="40.89609053057006" lon="0.5366333173640013"><ele>130.0</ele><time>2026-05-03T14:31:31Z</time></trkpt><trkpt lat="40.89614313644739" lon="0.5365589287656367"><ele>127.4</ele><time>2026-05-03T14:31:32Z</time></trkpt><trkpt lat="40.89620066405651" lon="0.5364605158130749"><ele>124.8</ele><time>2026-05-03T14:31:33Z</time></trkpt><trkpt lat="40.896253233896715" lon="0.5363500367125313"><ele>122.19999999999999</ele><time>2026-05-03T14:31:34Z</time></trkpt><trkpt lat="40.896309072595244" lon="0.5362653672501414"><ele>119.6</ele><time>2026-05-03T14:31:35Z</time></trkpt><trkpt lat="40.896361137435804" lon="0.5361624539115478"><ele>117.0</ele><time>2026-05-03T14:31:36Z</time></trkpt><trkpt lat="40.89641237166576" lon="0.5360755604533674"><ele>115.83333333333333</ele><time>2026-05-03T14:31:37Z</time></trkpt><trkpt lat="40.89645861126956" lon="0.5360007864873239"><ele>114.66666666666666</ele><time>2026-05-03T14:31:38Z</time></trkpt><trkpt lat="40.89650609968559" lon="0.5359301419745609"><ele>113.5</ele><time>2026-05-03T14:31:39Z</time></trkpt><trkpt lat="40.896571553409515" lon="0.5358276824585"><ele>112.33333333333333</ele><time>2026-05-03T14:31:41Z</time></trkpt><trkpt lat="40.89660878521223" lon="0.535744059634187"><ele>111.16666666666666</ele><time>2026-05-03T14:31:43Z</time></trkpt><trkpt lat="40.89658429524149" lon="0.5356448482173506"><ele>110.0</ele><time>2026-05-03T14:31:45Z</time></trkpt><trkpt lat="40.896490182164584" lon="0.5355562007404283"><ele>109.99999999999999</ele><time>2026-05-03T14:31:47Z</time></trkpt><trkpt lat="40.89642525558688" lon="0.5354498146042599"><ele>110.0</ele><time>2026-05-03T14:31:49Z</time></trkpt><trkpt lat="40.89645166564732" lon="0.5353599191365938"><ele>110.0</ele><time>2026-05-03T14:31:50Z</time></trkpt><trkpt lat="40.89649867580222" lon="0.5352980003534448"><ele>110.0</ele><time>2026-05-03T14:31:51Z</time></trkpt><trkpt lat="40.896562823560274" lon="0.5351838361066685"><ele>109.99999999999999</ele><time>2026-05-03T14:31:52Z</time></trkpt><trkpt lat="40.89660664464751" lon="0.535114927864364"><ele>110.0</ele><time>2026-05-03T14:31:53Z</time></trkpt><trkpt lat="40.896624355133866" lon="0.534995294019812"><ele>110.2</ele><time>2026-05-03T14:31:55Z</time></trkpt><trkpt lat="40.89661317185645" lon="0.5348107443756155"><ele>110.4</ele><time>2026-05-03T14:31:57Z</time></trkpt><trkpt lat="40.89660594818881" lon="0.5347060612891393"><ele>110.6</ele><time>2026-05-03T14:31:58Z</time></trkpt><trkpt lat="40.89658952857002" lon="0.5346203126516571"><ele>110.8</ele><time>2026-05-03T14:31:59Z</time></trkpt><trkpt lat="40.89656428548167" lon="0.5344596938030485"><ele>111.0</ele><time>2026-05-03T14:32:01Z</time></trkpt><trkpt lat="40.896540262277775" lon="0.5342900567267244"><ele>109.19999999999999</ele><time>2026-05-03T14:32:03Z</time></trkpt><trkpt lat="40.896525555167194" lon="0.5341254149060375"><ele>107.39999999999999</ele><time>2026-05-03T14:32:04.999Z</time></trkpt><trkpt lat="40.8965250512552" lon="0.5340391276322843"><ele>105.6</ele><time>2026-05-03T14:32:05.999Z</time></trkpt><trkpt lat="40.89652325796551" lon="0.5338894216138849"><ele>103.8</ele><time>2026-05-03T14:32:07.999Z</time></trkpt><trkpt lat="40.89651881713096" lon="0.5337507797297958"><ele>102.0</ele><time>2026-05-03T14:32:09.999Z</time></trkpt><trkpt lat="40.896511043184994" lon="0.5336496734350976"><ele>100.83333333333333</ele><time>2026-05-03T14:32:11.999Z</time></trkpt><trkpt lat="40.89648015698624" lon="0.5335650145518354"><ele>99.66666666666667</ele><time>2026-05-03T14:32:13.999Z</time></trkpt><trkpt lat="40.89642666944751" lon="0.5334810146665636"><ele>98.5</ele><time>2026-05-03T14:32:15.999Z</time></trkpt><trkpt lat="40.89634129587043" lon="0.5334308317633775"><ele>97.33333333333334</ele><time>2026-05-03T14:32:17.999Z</time></trkpt><trkpt lat="40.896306196823936" lon="0.5333488559364393"><ele>96.16666666666667</ele><time>2026-05-03T14:32:19.999Z</time></trkpt><trkpt lat="40.896382958500226" lon="0.533269695502604"><ele>95.0</ele><time>2026-05-03T14:32:21.999Z</time></trkpt><trkpt lat="40.89649404839109" lon="0.5333069555483984"><ele>95.0</ele><time>2026-05-03T14:32:23.999Z</time></trkpt><trkpt lat="40.89659884584169" lon="0.5333419954029843"><ele>95.0</ele><time>2026-05-03T14:32:25.999Z</time></trkpt><trkpt lat="40.896686712645675" lon="0.5333602768090353"><ele>95.0</ele><time>2026-05-03T14:32:27.999Z</time></trkpt><trkpt lat="40.89660219967262" lon="0.5331502898165976"><ele>95.0</ele><time>2026-05-03T14:32:36.999Z</time></trkpt><trkpt lat="40.8965324926807" lon="0.5331553148986179"><ele>95.0</ele><time>2026-05-03T14:32:37.999Z</time></trkpt><trkpt lat="40.8964605925713" lon="0.5331443454353044"><ele>95.0</ele><time>2026-05-03T14:32:38.999Z</time></trkpt><trkpt lat="40.89639578732455" lon="0.5331214979824127"><ele>95.0</ele><time>2026-05-03T14:32:39.999Z</time></trkpt><trkpt lat="40.89628661680898" lon="0.5330929496929343"><ele>95.0</ele><time>2026-05-03T14:32:41.999Z</time></trkpt><trkpt lat="40.896176413959026" lon="0.5331423250352286"><ele>95.0</ele><time>2026-05-03T14:32:43.999Z</time></trkpt><trkpt lat="40.8961208747524" lon="0.5331918919737583"><ele>95.0</ele><time>2026-05-03T14:32:44.999Z</time></trkpt><trkpt lat="40.89605530926972" lon="0.5332436495185954"><ele>95.0</ele><time>2026-05-03T14:32:45.999Z</time></trkpt><trkpt lat="40.89599085994548" lon="0.5333126346498539"><ele>93.33333333333334</ele><time>2026-05-03T14:32:46.999Z</time></trkpt><trkpt lat="40.895912533114036" lon="0.5334053022774894"><ele>91.66666666666667</ele><time>2026-05-03T14:32:47.999Z</time></trkpt><trkpt lat="40.895839057806235" lon="0.533509373458191"><ele>90.0</ele><time>2026-05-03T14:32:48.999Z</time></trkpt><trkpt lat="40.89577812965813" lon="0.5335805585760757"><ele>88.33333333333333</ele><time>2026-05-03T14:32:49.999Z</time></trkpt><trkpt lat="40.89572617874367" lon="0.5336348429514944"><ele>86.66666666666666</ele><time>2026-05-03T14:32:51Z</time></trkpt><trkpt lat="40.89566076710034" lon="0.5336741876327564"><ele>85.0</ele><time>2026-05-03T14:32:52Z</time></trkpt><trkpt lat="40.895605175577074" lon="0.5337209000851413"><ele>90.0</ele><time>2026-05-03T14:32:53Z</time></trkpt><trkpt lat="40.895543882108626" lon="0.5337920634036912"><ele>95.0</ele><time>2026-05-03T14:32:54Z</time></trkpt><trkpt lat="40.89549819473466" lon="0.5338557924850317"><ele>100.0</ele><time>2026-05-03T14:32:55Z</time></trkpt><trkpt lat="40.895438681541705" lon="0.5339038876721389"><ele>105.0</ele><time>2026-05-03T14:32:56Z</time></trkpt><trkpt lat="40.89536791175987" lon="0.5339355493321702"><ele>110.00000000000001</ele><time>2026-05-03T14:32:57Z</time></trkpt><trkpt lat="40.89529656791099" lon="0.5339865451099148"><ele>115.0</ele><time>2026-05-03T14:32:58Z</time></trkpt><trkpt lat="40.89522898919172" lon="0.5340500137213686"><ele>115.0</ele><time>2026-05-03T14:32:59Z</time></trkpt><trkpt lat="40.895177618962194" lon="0.5341151791489394"><ele>115.0</ele><time>2026-05-03T14:33:00Z</time></trkpt><trkpt lat="40.895117417035436" lon="0.534209459079879"><ele>115.0</ele><time>2026-05-03T14:33:01Z</time></trkpt><trkpt lat="40.895064695208056" lon="0.5343367455629702"><ele>115.0</ele><time>2026-05-03T14:33:02Z</time></trkpt><trkpt lat="40.89501404845708" lon="0.5344685351943281"><ele>115.0</ele><time>2026-05-03T14:33:03Z</time></trkpt><trkpt lat="40.894973138716935" lon="0.5345606799319009"><ele>112.33333333333334</ele><time>2026-05-03T14:33:04Z</time></trkpt><trkpt lat="40.89494640075204" lon="0.5346369984394367"><ele>109.66666666666667</ele><time>2026-05-03T14:33:05Z</time></trkpt><trkpt lat="40.894920971657" lon="0.5347672005474364"><ele>107.0</ele><time>2026-05-03T14:33:07Z</time></trkpt><trkpt lat="40.894899785460744" lon="0.5348692809731966"><ele>104.33333333333334</ele><time>2026-05-03T14:33:09Z</time></trkpt><trkpt lat="40.894838158957036" lon="0.5348979596569304"><ele>101.66666666666667</ele><time>2026-05-03T14:33:11Z</time></trkpt><trkpt lat="40.894774681685035" lon="0.5347923879435483"><ele>99.0</ele><time>2026-05-03T14:33:13Z</time></trkpt><trkpt lat="40.894779153949955" lon="0.5346309350866472"><ele>96.57142857142857</ele><time>2026-05-03T14:33:15Z</time></trkpt><trkpt lat="40.89478688158594" lon="0.534538029617837"><ele>94.14285714285714</ele><time>2026-05-03T14:33:16Z</time></trkpt><trkpt lat="40.894784231055354" lon="0.5344336977627687"><ele>91.71428571428571</ele><time>2026-05-03T14:33:17Z</time></trkpt><trkpt lat="40.89477471929944" lon="0.534335025062499"><ele>89.28571428571428</ele><time>2026-05-03T14:33:18Z</time></trkpt><trkpt lat="40.89476873914855" lon="0.5342255836130093"><ele>86.85714285714286</ele><time>2026-05-03T14:33:19Z</time></trkpt><trkpt lat="40.89476852186592" lon="0.5341404202700047"><ele>84.42857142857142</ele><time>2026-05-03T14:33:20Z</time></trkpt><trkpt lat="40.894777696995114" lon="0.5340562513561843"><ele>82.0</ele><time>2026-05-03T14:33:21Z</time></trkpt><trkpt lat="40.894798645139" lon="0.5339302887029366"><ele>82.0</ele><time>2026-05-03T14:33:23Z</time></trkpt><trkpt lat="40.89488424806814" lon="0.5338136713761387"><ele>82.0</ele><time>2026-05-03T14:33:25Z</time></trkpt><trkpt lat="40.89493930682891" lon="0.5337687555444408"><ele>82.0</ele><time>2026-05-03T14:33:26Z</time></trkpt><trkpt lat="40.89506371172874" lon="0.5336841932105307"><ele>82.0</ele><time>2026-05-03T14:33:28Z</time></trkpt><trkpt lat="40.89513206644259" lon="0.5336260017421002"><ele>82.0</ele><time>2026-05-03T14:33:29Z</time></trkpt><trkpt lat="40.89519310753738" lon="0.53357509056375"><ele>82.42857142857142</ele><time>2026-05-03T14:33:30Z</time></trkpt><trkpt lat="40.89523428993118" lon="0.5335040519815594"><ele>82.85714285714286</ele><time>2026-05-03T14:33:31Z</time></trkpt><trkpt lat="40.89525270505841" lon="0.5334234882060405"><ele>83.28571428571428</ele><time>2026-05-03T14:33:32Z</time></trkpt><trkpt lat="40.89527179888149" lon="0.5333373721181053"><ele>83.71428571428571</ele><time>2026-05-03T14:33:33Z</time></trkpt><trkpt lat="40.89530685376968" lon="0.5332602986414684"><ele>84.14285714285714</ele><time>2026-05-03T14:33:34Z</time></trkpt><trkpt lat="40.89536256767814" lon="0.5332041450994782"><ele>84.57142857142857</ele><time>2026-05-03T14:33:35Z</time></trkpt><trkpt lat="40.89544694395072" lon="0.5331366028074608"><ele>85.0</ele><time>2026-05-03T14:33:36Z</time></trkpt><trkpt lat="40.89552738038669" lon="0.5330701470642177"><ele>85.0</ele><time>2026-05-03T14:33:37Z</time></trkpt><trkpt lat="40.895590623608705" lon="0.5329983545194426"><ele>85.0</ele><time>2026-05-03T14:33:38Z</time></trkpt><trkpt lat="40.89564651237842" lon="0.5329199723593905"><ele>85.0</ele><time>2026-05-03T14:33:39Z</time></trkpt><trkpt lat="40.89569470560769" lon="0.5328246657215036"><ele>85.0</ele><time>2026-05-03T14:33:40Z</time></trkpt><trkpt lat="40.89573375557878" lon="0.5327390335946309"><ele>85.0</ele><time>2026-05-03T14:33:41Z</time></trkpt><trkpt lat="40.895775025435555" lon="0.5326588269012579"><ele>85.0</ele><time>2026-05-03T14:33:42Z</time></trkpt><trkpt lat="40.8958258320575" lon="0.5325975520028906"><ele>82.6</ele><time>2026-05-03T14:33:43Z</time></trkpt><trkpt lat="40.89587918592027" lon="0.5325473610035605"><ele>80.2</ele><time>2026-05-03T14:33:44Z</time></trkpt><trkpt lat="40.89595171374962" lon="0.5324225293426111"><ele>77.8</ele><time>2026-05-03T14:33:46Z</time></trkpt><trkpt lat="40.89597026395558" lon="0.5323321060272014"><ele>75.4</ele><time>2026-05-03T14:33:47Z</time></trkpt><trkpt lat="40.89597537134841" lon="0.5321898301156722"><ele>73.0</ele><time>2026-05-03T14:33:49Z</time></trkpt><trkpt lat="40.896037301635005" lon="0.5320605485908676"><ele>70.28571428571428</ele><time>2026-05-03T14:33:51Z</time></trkpt><trkpt lat="40.89608328590021" lon="0.5319915569198892"><ele>67.57142857142857</ele><time>2026-05-03T14:33:52Z</time></trkpt><trkpt lat="40.896140074755905" lon="0.531909414010276"><ele>64.85714285714286</ele><time>2026-05-03T14:33:53Z</time></trkpt><trkpt lat="40.896191811348665" lon="0.5318519595860819"><ele>62.14285714285714</ele><time>2026-05-03T14:33:54Z</time></trkpt><trkpt lat="40.896248146145304" lon="0.5317922956179024"><ele>59.42857142857143</ele><time>2026-05-03T14:33:55Z</time></trkpt><trkpt lat="40.896308866901386" lon="0.5317370719654513"><ele>56.714285714285715</ele><time>2026-05-03T14:33:56Z</time></trkpt><trkpt lat="40.896375776713306" lon="0.5316815186783663"><ele>54.0</ele><time>2026-05-03T14:33:57Z</time></trkpt><trkpt lat="40.89645039117278" lon="0.531668233341051"><ele>54.0</ele><time>2026-05-03T14:33:58Z</time></trkpt><trkpt lat="40.89651983210908" lon="0.5316537700730536"><ele>54.0</ele><time>2026-05-03T14:33:59Z</time></trkpt><trkpt lat="40.896582411505356" lon="0.5316632377944658"><ele>54.0</ele><time>2026-05-03T14:34:00Z</time></trkpt><trkpt lat="40.89665021702634" lon="0.5316676817012863"><ele>54.0</ele><time>2026-05-03T14:34:01Z</time></trkpt><trkpt lat="40.896714673345414" lon="0.5316820199693694"><ele>54.0</ele><time>2026-05-03T14:34:02Z</time></trkpt><trkpt lat="40.89683405669991" lon="0.531754797034086"><ele>54.0</ele><time>2026-05-03T14:34:04Z</time></trkpt><trkpt lat="40.89693594884021" lon="0.5318704003814269"><ele>53.0</ele><time>2026-05-03T14:34:06Z</time></trkpt><trkpt lat="40.897029426805915" lon="0.5319509811576921"><ele>52.0</ele><time>2026-05-03T14:34:08Z</time></trkpt><trkpt lat="40.897078057836886" lon="0.5320478303122091"><ele>51.0</ele><time>2026-05-03T14:34:10Z</time></trkpt><trkpt lat="40.89713785235362" lon="0.5321071446032297"><ele>50.0</ele><time>2026-05-03T14:34:12Z</time></trkpt><trkpt lat="40.89715245153383" lon="0.5318431327763362"><ele>49.16666666666667</ele><time>2026-05-03T14:34:16.999Z</time></trkpt><trkpt lat="40.89711231331873" lon="0.5317669415310582"><ele>48.333333333333336</ele><time>2026-05-03T14:34:17.999Z</time></trkpt><trkpt lat="40.89704954528122" lon="0.5317063739555481"><ele>47.5</ele><time>2026-05-03T14:34:18.999Z</time></trkpt><trkpt lat="40.89698463298377" lon="0.5316071337753402"><ele>46.66666666666667</ele><time>2026-05-03T14:34:20.999Z</time></trkpt><trkpt lat="40.89694320169275" lon="0.531542343386846"><ele>45.833333333333336</ele><time>2026-05-03T14:34:22.999Z</time></trkpt><trkpt lat="40.89698260515749" lon="0.5314472712134063"><ele>45.0</ele><time>2026-05-03T14:34:25.999Z</time></trkpt><trkpt lat="40.897063977895456" lon="0.5314993045504258"><ele>45.0</ele><time>2026-05-03T14:34:27.999Z</time></trkpt><trkpt lat="40.89723697211402" lon="0.5315532320378507"><ele>45.0</ele><time>2026-05-03T14:34:30.999Z</time></trkpt><trkpt lat="40.89732102795699" lon="0.5315821999664464"><ele>45.0</ele><time>2026-05-03T14:34:32.999Z</time></trkpt><trkpt lat="40.89739221689183" lon="0.5316491841436362"><ele>45.0</ele><time>2026-05-03T14:34:35.999Z</time></trkpt><trkpt lat="40.89746433214221" lon="0.5316647732385357"><ele>45.0</ele><time>2026-05-03T14:34:39.999Z</time></trkpt><trkpt lat="40.89740952681153" lon="0.5315740057901561"><ele>45.0</ele><time>2026-05-03T14:34:43.999Z</time></trkpt><trkpt lat="40.89734635721577" lon="0.5314845396752528"><ele>45.0</ele><time>2026-05-03T14:34:45.999Z</time></trkpt><trkpt lat="40.897288913219874" lon="0.5314322556414893"><ele>45.0</ele><time>2026-05-03T14:34:47.999Z</time></trkpt><trkpt lat="40.89718858023859" lon="0.5313891075252615"><ele>45.0</ele><time>2026-05-03T14:34:49.999Z</time></trkpt><trkpt lat="40.89708594334864" lon="0.5313341459870843"><ele>45.0</ele><time>2026-05-03T14:34:51.999Z</time></trkpt><trkpt lat="40.89699988945382" lon="0.531300833279203"><ele>45.0</ele><time>2026-05-03T14:34:53.999Z</time></trkpt><trkpt lat="40.896929903952646" lon="0.5312416546114747"><ele>45.0</ele><time>2026-05-03T14:34:55.999Z</time></trkpt><trkpt lat="40.896873708629045" lon="0.5311743378585763"><ele>45.0</ele><time>2026-05-03T14:35:02Z</time></trkpt><trkpt lat="40.896809296699" lon="0.5311698183252803"><ele>45.0</ele><time>2026-05-03T14:37:15Z</time></trkpt><trkpt lat="40.896739993038416" lon="0.531200083242062"><ele>45.0</ele><time>2026-05-03T14:37:20Z</time></trkpt><trkpt lat="40.896658782650334" lon="0.5312129896267297"><ele>45.0</ele><time>2026-05-03T14:37:26Z</time></trkpt><trkpt lat="40.89659149004625" lon="0.5312344147970688"><ele>45.0</ele><time>2026-05-03T14:37:56Z</time></trkpt><trkpt lat="40.89656195319985" lon="0.5313091897059065"><ele>49.0</ele><time>2026-05-03T14:38:01Z</time></trkpt><trkpt lat="40.89657414657934" lon="0.5312235223003697"><ele>53.0</ele><time>2026-05-03T14:40:51.999Z</time></trkpt><trkpt lat="40.89663429250221" lon="0.5311505083244473"><ele>57.0</ele><time>2026-05-03T14:41:00.999Z</time></trkpt><trkpt lat="40.89669399294297" lon="0.5311192333310313"><ele>61.0</ele><time>2026-05-03T14:41:08.999Z</time></trkpt><trkpt lat="40.896812411448096" lon="0.5311364607993565"><ele>65.0</ele><time>2026-05-03T14:41:44Z</time></trkpt><trkpt lat="40.89692665227874" lon="0.5312093924659469"><ele>61.0</ele><time>2026-05-03T14:45:07.999Z</time></trkpt><trkpt lat="40.89701161160465" lon="0.531264629858733"><ele>57.0</ele><time>2026-05-03T14:45:24.999Z</time></trkpt><trkpt lat="40.89712412351092" lon="0.5312944970016851"><ele>53.0</ele><time>2026-05-03T14:45:40Z</time></trkpt><trkpt lat="40.89722726565442" lon="0.5313324084541736"><ele>49.0</ele><time>2026-05-03T14:45:43Z</time></trkpt><trkpt lat="40.89730123948431" lon="0.5314029706349701"><ele>45.0</ele><time>2026-05-03T14:45:45Z</time></trkpt><trkpt lat="40.8973995204559" lon="0.5314901737030677"><ele>45.0</ele><time>2026-05-03T14:45:47Z</time></trkpt><trkpt lat="40.897468895828226" lon="0.5316261132822423"><ele>45.0</ele><time>2026-05-03T14:45:49Z</time></trkpt><trkpt lat="40.897505662830596" lon="0.5316998283547348"><ele>45.0</ele><time>2026-05-03T14:45:50Z</time></trkpt><trkpt lat="40.89758567029375" lon="0.5318814685289236"><ele>45.0</ele><time>2026-05-03T14:45:52Z</time></trkpt><trkpt lat="40.897646290016716" lon="0.5320119151450678"><ele>43.6</ele><time>2026-05-03T14:45:53Z</time></trkpt><trkpt lat="40.89771780102211" lon="0.5321316893208251"><ele>42.2</ele><time>2026-05-03T14:45:54Z</time></trkpt><trkpt lat="40.897777815836314" lon="0.532221237456991"><ele>40.8</ele><time>2026-05-03T14:45:55Z</time></trkpt><trkpt lat="40.89785097511339" lon="0.5322890278828301"><ele>39.4</ele><time>2026-05-03T14:45:56Z</time></trkpt><trkpt lat="40.897951194390274" lon="0.5323964861216908"><ele>38.0</ele><time>2026-05-03T14:45:58Z</time></trkpt><trkpt lat="40.89803304729596" lon="0.5324294762038476"><ele>38.0</ele><time>2026-05-03T14:46:00Z</time></trkpt><trkpt lat="40.89810715271993" lon="0.5323934283501451"><ele>38.0</ele><time>2026-05-03T14:46:03Z</time></trkpt><trkpt lat="40.898176243152356" lon="0.5323722708546115"><ele>38.0</ele><time>2026-05-03T14:46:05Z</time></trkpt><trkpt lat="40.89827193019611" lon="0.5323380337708354"><ele>38.0</ele><time>2026-05-03T14:46:07Z</time></trkpt><trkpt lat="40.89834812253197" lon="0.5323088770411843"><ele>38.0</ele><time>2026-05-03T14:46:09Z</time></trkpt><trkpt lat="40.898425001124174" lon="0.532264380953584"><ele>38.0</ele><time>2026-05-03T14:46:11Z</time></trkpt><trkpt lat="40.89852879398116" lon="0.5323946583609889"><ele>39.0</ele><time>2026-05-03T14:46:12Z</time></trkpt><trkpt lat="40.89862738734947" lon="0.5323388032556018"><ele>40.0</ele><time>2026-05-03T14:46:14Z</time></trkpt><trkpt lat="40.89872824428296" lon="0.5323054399404501"><ele>41.0</ele><time>2026-05-03T14:46:16Z</time></trkpt><trkpt lat="40.89880674367083" lon="0.5322738960869879"><ele>42.0</ele><time>2026-05-03T14:46:18Z</time></trkpt><trkpt lat="40.898882339977185" lon="0.5322372136338915"><ele>43.0</ele><time>2026-05-03T14:46:20Z</time></trkpt><trkpt lat="40.898974745338975" lon="0.5322198838139406"><ele>43.0</ele><time>2026-05-03T14:46:22Z</time></trkpt><trkpt lat="40.899050971688865" lon="0.532171030736264"><ele>43.0</ele><time>2026-05-03T14:46:24Z</time></trkpt><trkpt lat="40.89912450584816" lon="0.5321199661274388"><ele>43.0</ele><time>2026-05-03T14:46:26Z</time></trkpt><trkpt lat="40.89919149655123" lon="0.5320944243462706"><ele>43.0</ele><time>2026-05-03T14:46:28Z</time></trkpt><trkpt lat="40.8992469433355" lon="0.5320279170384861"><ele>43.0</ele><time>2026-05-03T14:46:30Z</time></trkpt><trkpt lat="40.899315884900844" lon="0.5319769351794995"><ele>43.0</ele><time>2026-05-03T14:46:32Z</time></trkpt><trkpt lat="40.899372474515125" lon="0.5319240915525173"><ele>44.66666666666667</ele><time>2026-05-03T14:46:34Z</time></trkpt><trkpt lat="40.89944847584077" lon="0.5318847183045149"><ele>46.333333333333336</ele><time>2026-05-03T14:46:37Z</time></trkpt><trkpt lat="40.899529394374234" lon="0.531801504631075"><ele>48.0</ele><time>2026-05-03T14:46:40Z</time></trkpt><trkpt lat="40.89959176507288" lon="0.5317361014154408"><ele>49.66666666666667</ele><time>2026-05-03T14:46:42Z</time></trkpt><trkpt lat="40.899649288705334" lon="0.5316548241879867"><ele>51.333333333333336</ele><time>2026-05-03T14:46:44Z</time></trkpt><trkpt lat="40.89968713705409" lon="0.5315762363796296"><ele>53.0</ele><time>2026-05-03T14:46:46Z</time></trkpt><trkpt lat="40.89972866535813" lon="0.5314803235822347"><ele>53.0</ele><time>2026-05-03T14:46:47.999Z</time></trkpt><trkpt lat="40.899783276087746" lon="0.5313927983009784"><ele>53.0</ele><time>2026-05-03T14:46:49.999Z</time></trkpt><trkpt lat="40.89985039533254" lon="0.5312879879474515"><ele>53.0</ele><time>2026-05-03T14:46:51.999Z</time></trkpt><trkpt lat="40.89992051599597" lon="0.5311962990146673"><ele>53.0</ele><time>2026-05-03T14:46:53.999Z</time></trkpt><trkpt lat="40.899998374729726" lon="0.5310898608239908"><ele>53.0</ele><time>2026-05-03T14:46:55.999Z</time></trkpt><trkpt lat="40.90009018586133" lon="0.5309429276242528"><ele>54.42857142857143</ele><time>2026-05-03T14:46:57.999Z</time></trkpt><trkpt lat="40.90014509286725" lon="0.5308686019672044"><ele>55.857142857142854</ele><time>2026-05-03T14:46:58.999Z</time></trkpt><trkpt lat="40.90019199061118" lon="0.5307885096642962"><ele>57.285714285714285</ele><time>2026-05-03T14:46:59.999Z</time></trkpt><trkpt lat="40.90023663055239" lon="0.5307074146883994"><ele>58.714285714285715</ele><time>2026-05-03T14:47:00.999Z</time></trkpt><trkpt lat="40.90027826673087" lon="0.5306328175781345"><ele>60.14285714285714</ele><time>2026-05-03T14:47:01.999Z</time></trkpt><trkpt lat="40.90032483835266" lon="0.530569936192702"><ele>61.57142857142857</ele><time>2026-05-03T14:47:02.999Z</time></trkpt><trkpt lat="40.900369970350624" lon="0.5305018754556066"><ele>63.0</ele><time>2026-05-03T14:47:03.999Z</time></trkpt><trkpt lat="40.90042303379254" lon="0.5304390239658496"><ele>58.666666666666664</ele><time>2026-05-03T14:47:04.999Z</time></trkpt><trkpt lat="40.90046992898198" lon="0.5303691349315305"><ele>54.333333333333336</ele><time>2026-05-03T14:47:05.999Z</time></trkpt><trkpt lat="40.900510314871454" lon="0.5303013185125028"><ele>50.0</ele><time>2026-05-03T14:47:06.999Z</time></trkpt><trkpt lat="40.90054954880215" lon="0.5302184299244372"><ele>45.66666666666667</ele><time>2026-05-03T14:47:07.999Z</time></trkpt><trkpt lat="40.90058648465011" lon="0.5301352744001616"><ele>41.333333333333336</ele><time>2026-05-03T14:47:08.999Z</time></trkpt><trkpt lat="40.90062102249801" lon="0.5300586946060483"><ele>37.0</ele><time>2026-05-03T14:47:09.999Z</time></trkpt><trkpt lat="40.9006934847634" lon="0.5299659590662271"><ele>37.0</ele><time>2026-05-03T14:47:11.999Z</time></trkpt><trkpt lat="40.90077928617922" lon="0.5298809860659974"><ele>37.0</ele><time>2026-05-03T14:47:13.999Z</time></trkpt><trkpt lat="40.90084419439208" lon="0.529783706257771"><ele>37.0</ele><time>2026-05-03T14:47:15.999Z</time></trkpt><trkpt lat="40.900916322085614" lon="0.5297077123571416"><ele>37.0</ele><time>2026-05-03T14:47:17.999Z</time></trkpt><trkpt lat="40.90099702096078" lon="0.5296049917735248"><ele>37.0</ele><time>2026-05-03T14:47:19.999Z</time></trkpt><trkpt lat="40.901047615793686" lon="0.5294894893888095"><ele>37.833333333333336</ele><time>2026-05-03T14:47:21.999Z</time></trkpt><trkpt lat="40.901090833056166" lon="0.5294099838915476"><ele>38.66666666666667</ele><time>2026-05-03T14:47:23.999Z</time></trkpt><trkpt lat="40.901149368606276" lon="0.5293217816970347"><ele>39.5</ele><time>2026-05-03T14:47:25.999Z</time></trkpt><trkpt lat="40.901201907870814" lon="0.5292559544420677"><ele>40.333333333333336</ele><time>2026-05-03T14:47:27.999Z</time></trkpt><trkpt lat="40.9012423076677" lon="0.5291635415893177"><ele>41.166666666666664</ele><time>2026-05-03T14:47:29.999Z</time></trkpt><trkpt lat="40.901278814582824" lon="0.5290897811484282"><ele>42.0</ele><time>2026-05-03T14:47:31.999Z</time></trkpt><trkpt lat="40.90133586003043" lon="0.5289791388387656"><ele>42.0</ele><time>2026-05-03T14:47:34Z</time></trkpt><trkpt lat="40.901400659555094" lon="0.5288650028552683"><ele>42.0</ele><time>2026-05-03T14:47:36Z</time></trkpt><trkpt lat="40.901462435820974" lon="0.528751869011185"><ele>42.0</ele><time>2026-05-03T14:47:38Z</time></trkpt><trkpt lat="40.90150313771345" lon="0.5286603178617829"><ele>42.0</ele><time>2026-05-03T14:47:40Z</time></trkpt><trkpt lat="40.90155145677061" lon="0.5285617440333733"><ele>42.0</ele><time>2026-05-03T14:47:42Z</time></trkpt><trkpt lat="40.90158649273763" lon="0.5284774992876814"><ele>40.333333333333336</ele><time>2026-05-03T14:47:44Z</time></trkpt><trkpt lat="40.90162108720011" lon="0.528396393448095"><ele>38.666666666666664</ele><time>2026-05-03T14:47:46Z</time></trkpt><trkpt lat="40.90166048283451" lon="0.5283118092785521"><ele>37.0</ele><time>2026-05-03T14:47:48Z</time></trkpt><trkpt lat="40.90170604462033" lon="0.528201189319706"><ele>35.33333333333333</ele><time>2026-05-03T14:47:50Z</time></trkpt><trkpt lat="40.90176642616929" lon="0.5280853876063263"><ele>33.666666666666664</ele><time>2026-05-03T14:47:52Z</time></trkpt><trkpt lat="40.90181041420161" lon="0.5280056866241343"><ele>32.0</ele><time>2026-05-03T14:47:53Z</time></trkpt><trkpt lat="40.901867966245554" lon="0.5279127362881556"><ele>33.8</ele><time>2026-05-03T14:47:54Z</time></trkpt><trkpt lat="40.9019275794917" lon="0.5278152586931955"><ele>35.6</ele><time>2026-05-03T14:47:55Z</time></trkpt><trkpt lat="40.90199343609711" lon="0.5277229914369058"><ele>37.4</ele><time>2026-05-03T14:47:56Z</time></trkpt><trkpt lat="40.902041666315235" lon="0.5276396580272691"><ele>39.199999999999996</ele><time>2026-05-03T14:47:57Z</time></trkpt><trkpt lat="40.90208994967332" lon="0.5274864043554365"><ele>41.0</ele><time>2026-05-03T14:47:58Z</time></trkpt><trkpt lat="40.90212993274258" lon="0.5273267228359009"><ele>41.0</ele><time>2026-05-03T14:47:59Z</time></trkpt><trkpt lat="40.902158629171346" lon="0.5271665339414312"><ele>41.0</ele><time>2026-05-03T14:48:00Z</time></trkpt><trkpt lat="40.902186518628525" lon="0.5270039935193095"><ele>41.0</ele><time>2026-05-03T14:48:01Z</time></trkpt><trkpt lat="40.90222068638903" lon="0.5268407239744145"><ele>41.0</ele><time>2026-05-03T14:48:02Z</time></trkpt><trkpt lat="40.90225200070962" lon="0.5266915490322028"><ele>38.4</ele><time>2026-05-03T14:48:03Z</time></trkpt><trkpt lat="40.90229100978457" lon="0.5265584030248651"><ele>35.8</ele><time>2026-05-03T14:48:04Z</time></trkpt><trkpt lat="40.90232504127967" lon="0.5264558678068076"><ele>33.199999999999996</ele><time>2026-05-03T14:48:05Z</time></trkpt><trkpt lat="40.90236118771388" lon="0.5263304830352459"><ele>30.599999999999998</ele><time>2026-05-03T14:48:06Z</time></trkpt><trkpt lat="40.902398343765796" lon="0.5261852183020035"><ele>28.0</ele><time>2026-05-03T14:48:07Z</time></trkpt><trkpt lat="40.90244901918649" lon="0.5260136558896228"><ele>27.75</ele><time>2026-05-03T14:48:08Z</time></trkpt><trkpt lat="40.90250222493952" lon="0.5258283886171947"><ele>27.5</ele><time>2026-05-03T14:48:09Z</time></trkpt><trkpt lat="40.9025511470469" lon="0.5256652254577663"><ele>27.25</ele><time>2026-05-03T14:48:10Z</time></trkpt><trkpt lat="40.90261383084596" lon="0.5255267551731441"><ele>27.0</ele><time>2026-05-03T14:48:11Z</time></trkpt><trkpt lat="40.90266207722609" lon="0.5253887247805693"><ele>26.666666666666664</ele><time>2026-05-03T14:48:12Z</time></trkpt><trkpt lat="40.90271313914952" lon="0.5252675908954826"><ele>26.333333333333332</ele><time>2026-05-03T14:48:13Z</time></trkpt><trkpt lat="40.90280378725784" lon="0.5250914589297438"><ele>26.0</ele><time>2026-05-03T14:48:14Z</time></trkpt><trkpt lat="40.90290469032377" lon="0.5248878265350084"><ele>26.0</ele><time>2026-05-03T14:48:15Z</time></trkpt><trkpt lat="40.902981225214" lon="0.5247264307788411"><ele>26.0</ele><time>2026-05-03T14:48:16Z</time></trkpt><trkpt lat="40.903052788723436" lon="0.5245880231510748"><ele>26.0</ele><time>2026-05-03T14:48:17Z</time></trkpt><trkpt lat="40.90312055542027" lon="0.5244611311584384"><ele>26.0</ele><time>2026-05-03T14:48:18Z</time></trkpt><trkpt lat="40.903174340199676" lon="0.5243370320831233"><ele>25.666666666666664</ele><time>2026-05-03T14:48:19Z</time></trkpt><trkpt lat="40.9032229503111" lon="0.5242373193776059"><ele>25.333333333333332</ele><time>2026-05-03T14:48:20Z</time></trkpt><trkpt lat="40.90326909413162" lon="0.524138330904788"><ele>25.0</ele><time>2026-05-03T14:48:21Z</time></trkpt><trkpt lat="40.903317724666266" lon="0.5240499621953735"><ele>24.666666666666664</ele><time>2026-05-03T14:48:22Z</time></trkpt><trkpt lat="40.9033671301325" lon="0.523987991363433"><ele>24.333333333333332</ele><time>2026-05-03T14:48:23Z</time></trkpt><trkpt lat="40.903408528287805" lon="0.5239022058336678"><ele>24.0</ele><time>2026-05-03T14:48:24Z</time></trkpt><trkpt lat="40.90347672581606" lon="0.5238379099185385"><ele>24.0</ele><time>2026-05-03T14:48:25Z</time></trkpt><trkpt lat="40.90355390945891" lon="0.5237761191760125"><ele>24.0</ele><time>2026-05-03T14:48:26Z</time></trkpt><trkpt lat="40.903653292289704" lon="0.5237125459007197"><ele>24.0</ele><time>2026-05-03T14:48:27Z</time></trkpt><trkpt lat="40.903731914501705" lon="0.5236153395401221"><ele>24.0</ele><time>2026-05-03T14:48:28Z</time></trkpt><trkpt lat="40.90380900428898" lon="0.5235470350445693"><ele>24.0</ele><time>2026-05-03T14:48:29Z</time></trkpt><trkpt lat="40.90387739089039" lon="0.5234832555300714"><ele>24.0</ele><time>2026-05-03T14:48:30Z</time></trkpt><trkpt lat="40.90394219867281" lon="0.5234352158616276"><ele>24.0</ele><time>2026-05-03T14:48:31Z</time></trkpt><trkpt lat="40.904022857779474" lon="0.5233918634013408"><ele>24.0</ele><time>2026-05-03T14:48:32Z</time></trkpt><trkpt lat="40.9040900056034" lon="0.5233582667686808"><ele>24.0</ele><time>2026-05-03T14:48:33Z</time></trkpt><trkpt lat="40.90417681054794" lon="0.5233147758268473"><ele>24.0</ele><time>2026-05-03T14:48:35Z</time></trkpt><trkpt lat="40.9042037442793" lon="0.5233958551847603"><ele>24.0</ele><time>2026-05-03T14:48:38Z</time></trkpt><trkpt lat="40.904216923766604" lon="0.5235001740439843"><ele>24.0</ele><time>2026-05-03T14:48:40Z</time></trkpt><trkpt lat="40.90421792376375" lon="0.5235867337428778"><ele>24.0</ele><time>2026-05-03T14:48:41Z</time></trkpt><trkpt lat="40.90418739015435" lon="0.5237201158169292"><ele>24.0</ele><time>2026-05-03T14:48:41.999Z</time></trkpt><trkpt lat="40.904155279626636" lon="0.5238809588759793"><ele>24.0</ele><time>2026-05-03T14:48:42.999Z</time></trkpt><trkpt lat="40.90412435681846" lon="0.5240415481476781"><ele>24.0</ele><time>2026-05-03T14:48:43.999Z</time></trkpt><trkpt lat="40.90409518866238" lon="0.5241709449069083"><ele>23.799999999999997</ele><time>2026-05-03T14:48:44.999Z</time></trkpt><trkpt lat="40.9040675437364" lon="0.5243123708618297"><ele>23.599999999999998</ele><time>2026-05-03T14:48:45.999Z</time></trkpt><trkpt lat="40.904050015085105" lon="0.5244412824493765"><ele>23.4</ele><time>2026-05-03T14:48:46.999Z</time></trkpt><trkpt lat="40.90403638680725" lon="0.5245482272249136"><ele>23.2</ele><time>2026-05-03T14:48:47.999Z</time></trkpt><trkpt lat="40.90404036521793" lon="0.5246673656862806"><ele>23.0</ele><time>2026-05-03T14:48:48.999Z</time></trkpt><trkpt lat="40.90399622935239" lon="0.5248082494302461"><ele>23.5</ele><time>2026-05-03T14:48:50.999Z</time></trkpt><trkpt lat="40.90395341436754" lon="0.5248846345664764"><ele>24.0</ele><time>2026-05-03T14:48:51.999Z</time></trkpt><trkpt lat="40.9038879805666" lon="0.5249256781342486"><ele>24.5</ele><time>2026-05-03T14:48:52.999Z</time></trkpt><trkpt lat="40.90382013421591" lon="0.5249467145987249"><ele>25.0</ele><time>2026-05-03T14:48:53.999Z</time></trkpt><trkpt lat="40.903759700950545" lon="0.5250109435848287"><ele>25.499999999999996</ele><time>2026-05-03T14:48:54.999Z</time></trkpt><trkpt lat="40.903717837216234" lon="0.5251230734544008"><ele>26.0</ele><time>2026-05-03T14:48:55.999Z</time></trkpt><trkpt lat="40.90367758573234" lon="0.5252558735790759"><ele>25.999999999999996</ele><time>2026-05-03T14:48:56.999Z</time></trkpt><trkpt lat="40.90365463355882" lon="0.5253804042019375"><ele>26.0</ele><time>2026-05-03T14:48:57.999Z</time></trkpt><trkpt lat="40.90363703300208" lon="0.5254815309716248"><ele>26.0</ele><time>2026-05-03T14:48:58.999Z</time></trkpt><trkpt lat="40.90362602610825" lon="0.5255736916704301"><ele>26.0</ele><time>2026-05-03T14:48:59.999Z</time></trkpt><trkpt lat="40.90362340391976" lon="0.5256906505677272"><ele>25.999999999999996</ele><time>2026-05-03T14:49:01.999Z</time></trkpt><trkpt lat="40.903651013024415" lon="0.5257944963636664"><ele>26.0</ele><time>2026-05-03T14:49:03.999Z</time></trkpt><trkpt lat="40.90369446920946" lon="0.5258631793753559"><ele>26.8</ele><time>2026-05-03T14:49:07.999Z</time></trkpt><trkpt lat="40.90378495174347" lon="0.525923267080939"><ele>27.6</ele><time>2026-05-03T14:49:28.999Z</time></trkpt><trkpt lat="40.90391256488499" lon="0.5259186653659846"><ele>28.4</ele><time>2026-05-03T14:49:30.999Z</time></trkpt><trkpt lat="40.903982418513124" lon="0.5259211137565406"><ele>29.2</ele><time>2026-05-03T14:49:31.999Z</time></trkpt><trkpt lat="40.90406699101377" lon="0.525918441855008"><ele>30.0</ele><time>2026-05-03T14:49:32.999Z</time></trkpt><trkpt lat="40.90413689213243" lon="0.52592988100502"><ele>30.0</ele><time>2026-05-03T14:49:33.999Z</time></trkpt><trkpt lat="40.90423240592428" lon="0.5259148559461347"><ele>30.0</ele><time>2026-05-03T14:49:35.999Z</time></trkpt><trkpt lat="40.904280562825576" lon="0.525844464578747"><ele>30.0</ele><time>2026-05-03T14:49:36.999Z</time></trkpt><trkpt lat="40.90434060898558" lon="0.5257606669688865"><ele>30.0</ele><time>2026-05-03T14:49:37.999Z</time></trkpt><trkpt lat="40.90438266157638" lon="0.5256891163069796"><ele>30.0</ele><time>2026-05-03T14:49:39Z</time></trkpt><trkpt lat="40.90448848896385" lon="0.5255803402219917"><ele>32.166666666666664</ele><time>2026-05-03T14:49:41Z</time></trkpt><trkpt lat="40.9045582895963" lon="0.5255496654046206"><ele>34.333333333333336</ele><time>2026-05-03T14:49:42Z</time></trkpt><trkpt lat="40.90462312502279" lon="0.5255261621558998"><ele>36.5</ele><time>2026-05-03T14:49:43Z</time></trkpt><trkpt lat="40.90474003765192" lon="0.5255932096885613"><ele>38.66666666666667</ele><time>2026-05-03T14:49:45Z</time></trkpt><trkpt lat="40.904807901933665" lon="0.5256284428680922"><ele>40.833333333333336</ele><time>2026-05-03T14:49:46Z</time></trkpt><trkpt lat="40.90486790173144" lon="0.5256618059424731"><ele>43.0</ele><time>2026-05-03T14:49:47Z</time></trkpt><trkpt lat="40.90499695389207" lon="0.5256676329688373"><ele>44.8</ele><time>2026-05-03T14:49:48Z</time></trkpt><trkpt lat="40.9050847262796" lon="0.5256736248859832"><ele>46.599999999999994</ele><time>2026-05-03T14:49:49Z</time></trkpt><trkpt lat="40.90516217475984" lon="0.5256618068314891"><ele>48.400000000000006</ele><time>2026-05-03T14:49:50Z</time></trkpt><trkpt lat="40.90525977001629" lon="0.5256547914675569"><ele>50.2</ele><time>2026-05-03T14:49:51Z</time></trkpt><trkpt lat="40.905348655005994" lon="0.525599111780448"><ele>52.0</ele><time>2026-05-03T14:49:52Z</time></trkpt><trkpt lat="40.905433312937255" lon="0.5255603011490162"><ele>52.0</ele><time>2026-05-03T14:49:53Z</time></trkpt><trkpt lat="40.905520381490994" lon="0.5255157867199195"><ele>52.0</ele><time>2026-05-03T14:49:54Z</time></trkpt><trkpt lat="40.905613742572015" lon="0.5254456940459943"><ele>52.0</ele><time>2026-05-03T14:49:55Z</time></trkpt><trkpt lat="40.905705767629534" lon="0.5253367035802294"><ele>52.0</ele><time>2026-05-03T14:49:56Z</time></trkpt><trkpt lat="40.90580978203663" lon="0.5251978585778688"><ele>52.6</ele><time>2026-05-03T14:49:57Z</time></trkpt><trkpt lat="40.90589834371946" lon="0.5251076953654196"><ele>53.2</ele><time>2026-05-03T14:49:58Z</time></trkpt><trkpt lat="40.9059623162875" lon="0.5250055643586609"><ele>53.8</ele><time>2026-05-03T14:49:59Z</time></trkpt><trkpt lat="40.906017269051254" lon="0.5249368496746519"><ele>54.4</ele><time>2026-05-03T14:50:00Z</time></trkpt><trkpt lat="40.90607759050005" lon="0.5248613002189966"><ele>55.0</ele><time>2026-05-03T14:50:01Z</time></trkpt><trkpt lat="40.90614455527949" lon="0.5247747105461209"><ele>58.666666666666664</ele><time>2026-05-03T14:50:02Z</time></trkpt><trkpt lat="40.90621020080715" lon="0.5246798818063233"><ele>62.33333333333333</ele><time>2026-05-03T14:50:03Z</time></trkpt><trkpt lat="40.9062726416587" lon="0.5245825524157214"><ele>66.0</ele><time>2026-05-03T14:50:04Z</time></trkpt><trkpt lat="40.90632196862068" lon="0.5244917885879685"><ele>69.66666666666667</ele><time>2026-05-03T14:50:05Z</time></trkpt><trkpt lat="40.906364327760066" lon="0.5244224927180313"><ele>73.33333333333334</ele><time>2026-05-03T14:50:06Z</time></trkpt><trkpt lat="40.90640082457103" lon="0.5243544308025805"><ele>77.0</ele><time>2026-05-03T14:50:07Z</time></trkpt><trkpt lat="40.906434722110255" lon="0.5242556624355226"><ele>77.0</ele><time>2026-05-03T14:50:08Z</time></trkpt><trkpt lat="40.90645866272149" lon="0.5241285523780383"><ele>77.0</ele><time>2026-05-03T14:50:09Z</time></trkpt><trkpt lat="40.9064788558332" lon="0.5239843866490715"><ele>77.0</ele><time>2026-05-03T14:50:10Z</time></trkpt><trkpt lat="40.90649738940215" lon="0.5238311731210682"><ele>77.0</ele><time>2026-05-03T14:50:11Z</time></trkpt><trkpt lat="40.90652001320683" lon="0.5237120179179483"><ele>77.0</ele><time>2026-05-03T14:50:12Z</time></trkpt><trkpt lat="40.90653935071891" lon="0.52359682328305"><ele>78.0</ele><time>2026-05-03T14:50:13Z</time></trkpt><trkpt lat="40.90657594363269" lon="0.523483393086939"><ele>79.0</ele><time>2026-05-03T14:50:14Z</time></trkpt><trkpt lat="40.90662991623491" lon="0.5233757116419413"><ele>80.0</ele><time>2026-05-03T14:50:15Z</time></trkpt><trkpt lat="40.906687307978494" lon="0.5233061070132812"><ele>81.0</ele><time>2026-05-03T14:50:16Z</time></trkpt><trkpt lat="40.90674749682454" lon="0.5232486715321005"><ele>82.0</ele><time>2026-05-03T14:50:17Z</time></trkpt><trkpt lat="40.906809523511534" lon="0.5232201803187153"><ele>83.0</ele><time>2026-05-03T14:50:18Z</time></trkpt><trkpt lat="40.906862343951715" lon="0.5230339682946739"><ele>83.0</ele><time>2026-05-03T14:50:20Z</time></trkpt><trkpt lat="40.906881479115604" lon="0.5229198075753165"><ele>83.0</ele><time>2026-05-03T14:50:21Z</time></trkpt><trkpt lat="40.906897774665495" lon="0.5228198593076375"><ele>83.0</ele><time>2026-05-03T14:50:22Z</time></trkpt><trkpt lat="40.906954040558006" lon="0.5226935047025837"><ele>83.0</ele><time>2026-05-03T14:50:24Z</time></trkpt><trkpt lat="40.90701108156995" lon="0.5226319565165447"><ele>83.0</ele><time>2026-05-03T14:50:25Z</time></trkpt><trkpt lat="40.90709263904032" lon="0.5225682413425893"><ele>83.0</ele><time>2026-05-03T14:50:26Z</time></trkpt><trkpt lat="40.90718652802868" lon="0.5225012274176359"><ele>82.5</ele><time>2026-05-03T14:50:27Z</time></trkpt><trkpt lat="40.90728008875668" lon="0.5224348157425971"><ele>82.0</ele><time>2026-05-03T14:50:28Z</time></trkpt><trkpt lat="40.9073524538275" lon="0.5223698680740643"><ele>81.5</ele><time>2026-05-03T14:50:29Z</time></trkpt><trkpt lat="40.90741288872439" lon="0.5223121759818371"><ele>81.0</ele><time>2026-05-03T14:50:30Z</time></trkpt><trkpt lat="40.9074651402471" lon="0.5222370983437471"><ele>80.5</ele><time>2026-05-03T14:50:31Z</time></trkpt><trkpt lat="40.90751885188259" lon="0.5221823332958977"><ele>80.0</ele><time>2026-05-03T14:50:32Z</time></trkpt><trkpt lat="40.907573305295465" lon="0.5221275677096218"><ele>80.28571428571428</ele><time>2026-05-03T14:50:33Z</time></trkpt><trkpt lat="40.9076308679023" lon="0.5220763449889321"><ele>80.57142857142857</ele><time>2026-05-03T14:50:34Z</time></trkpt><trkpt lat="40.90769762280992" lon="0.522047239635914"><ele>80.85714285714286</ele><time>2026-05-03T14:50:35Z</time></trkpt><trkpt lat="40.907765056860285" lon="0.5220301315459989"><ele>81.14285714285714</ele><time>2026-05-03T14:50:36Z</time></trkpt><trkpt lat="40.907834815112594" lon="0.5219894181262799"><ele>81.42857142857143</ele><time>2026-05-03T14:50:37Z</time></trkpt><trkpt lat="40.90790166585431" lon="0.5219361364481333"><ele>81.71428571428571</ele><time>2026-05-03T14:50:38Z</time></trkpt><trkpt lat="40.90795571962638" lon="0.5218677723648384"><ele>82.0</ele><time>2026-05-03T14:50:39Z</time></trkpt><trkpt lat="40.90802778903129" lon="0.5217545342359914"><ele>82.6</ele><time>2026-05-03T14:50:41Z</time></trkpt><trkpt lat="40.908113360400556" lon="0.5216867193242787"><ele>83.19999999999999</ele><time>2026-05-03T14:50:43Z</time></trkpt><trkpt lat="40.9082174044131" lon="0.5217621957503266"><ele>83.8</ele><time>2026-05-03T14:50:45Z</time></trkpt><trkpt lat="40.90830716045112" lon="0.5217967942382662"><ele>84.4</ele><time>2026-05-03T14:50:47Z</time></trkpt><trkpt lat="40.90840608472637" lon="0.5217240731728132"><ele>85.0</ele><time>2026-05-03T14:50:48.999Z</time></trkpt><trkpt lat="40.90843857129974" lon="0.5215701193310303"><ele>85.0</ele><time>2026-05-03T14:50:50.999Z</time></trkpt><trkpt lat="40.90841015676595" lon="0.5214436659661216"><ele>85.0</ele><time>2026-05-03T14:50:52.999Z</time></trkpt><trkpt lat="40.90835650375804" lon="0.5213900575691149"><ele>85.0</ele><time>2026-05-03T14:50:53.999Z</time></trkpt><trkpt lat="40.90835068102804" lon="0.5212401438390332"><ele>85.0</ele><time>2026-05-03T14:50:55.999Z</time></trkpt><trkpt lat="40.90841254279569" lon="0.5211022613223006"><ele>85.0</ele><time>2026-05-03T14:50:57.999Z</time></trkpt><trkpt lat="40.908463043390014" lon="0.5210521513027154"><ele>84.0</ele><time>2026-05-03T14:50:58.999Z</time></trkpt><trkpt lat="40.90852107116834" lon="0.5210149552070729"><ele>83.0</ele><time>2026-05-03T14:50:59.999Z</time></trkpt><trkpt lat="40.908586730578996" lon="0.5209825255991642"><ele>82.0</ele><time>2026-05-03T14:51:00.999Z</time></trkpt><trkpt lat="40.908649537561274" lon="0.5209422256226641"><ele>81.0</ele><time>2026-05-03T14:51:01.999Z</time></trkpt><trkpt lat="40.908705382203074" lon="0.520898673561198"><ele>80.0</ele><time>2026-05-03T14:51:02.999Z</time></trkpt><trkpt lat="40.90877999822625" lon="0.5207749912731733"><ele>79.0</ele><time>2026-05-03T14:51:04.999Z</time></trkpt><trkpt lat="40.90878978419708" lon="0.5206901003240886"><ele>79.0</ele><time>2026-05-03T14:51:05.999Z</time></trkpt><trkpt lat="40.90877411514867" lon="0.5205637876957535"><ele>79.0</ele><time>2026-05-03T14:51:07.999Z</time></trkpt><trkpt lat="40.908725010515155" lon="0.5204532286509845"><ele>79.0</ele><time>2026-05-03T14:51:09.999Z</time></trkpt><trkpt lat="40.908681517465446" lon="0.5203801377101691"><ele>79.0</ele><time>2026-05-03T14:51:10.999Z</time></trkpt><trkpt lat="40.90860310934901" lon="0.520271731646144"><ele>79.0</ele><time>2026-05-03T14:51:12.999Z</time></trkpt><trkpt lat="40.90857982265501" lon="0.5201412354568258"><ele>79.00000000000001</ele><time>2026-05-03T14:51:14.999Z</time></trkpt><trkpt lat="40.90858172350576" lon="0.520056104569305"><ele>79.0</ele><time>2026-05-03T14:51:15.999Z</time></trkpt><trkpt lat="40.908597737648755" lon="0.5199655060113892"><ele>79.0</ele><time>2026-05-03T14:51:16.999Z</time></trkpt><trkpt lat="40.908612100180115" lon="0.519877125667585"><ele>79.0</ele><time>2026-05-03T14:51:17.999Z</time></trkpt><trkpt lat="40.90860860739232" lon="0.5197763849441858"><ele>79.0</ele><time>2026-05-03T14:51:18.999Z</time></trkpt><trkpt lat="40.908624401027296" lon="0.5196892172610135"><ele>79.00000000000001</ele><time>2026-05-03T14:51:19.999Z</time></trkpt><trkpt lat="40.90863386849173" lon="0.5195929666621866"><ele>79.0</ele><time>2026-05-03T14:51:20.999Z</time></trkpt><trkpt lat="40.90865051251399" lon="0.5195112169790066"><ele>79.0</ele><time>2026-05-03T14:51:21.999Z</time></trkpt><trkpt lat="40.90869685528105" lon="0.5194141761101094"><ele>79.0</ele><time>2026-05-03T14:51:23.999Z</time></trkpt><trkpt lat="40.90875518770941" lon="0.5193473220536609"><ele>79.0</ele><time>2026-05-03T14:51:26.999Z</time></trkpt><trkpt lat="40.908811635292345" lon="0.5192785864783515"><ele>79.0</ele><time>2026-05-03T14:51:28.999Z</time></trkpt><trkpt lat="40.90884905463298" lon="0.5191805165184377"><ele>79.0</ele><time>2026-05-03T14:51:32.999Z</time></trkpt><trkpt lat="40.90890773033678" lon="0.519097005752928"><ele>79.0</ele><time>2026-05-03T14:51:34.999Z</time></trkpt><trkpt lat="40.908987485175956" lon="0.5190959395482956"><ele>79.0</ele><time>2026-05-03T14:51:37.999Z</time></trkpt><trkpt lat="40.909076285034814" lon="0.5190929235709336"><ele>79.0</ele><time>2026-05-03T14:51:40.999Z</time></trkpt><trkpt lat="40.9091392931108" lon="0.5190610063287464"><ele>79.0</ele><time>2026-05-03T14:51:42.999Z</time></trkpt><trkpt lat="40.90920395351945" lon="0.5190228138235022"><ele>79.0</ele><time>2026-05-03T14:51:45Z</time></trkpt><trkpt lat="40.909405559630336" lon="0.5190753568054933"><ele>79.0</ele><time>2026-05-03T14:51:55Z</time></trkpt><trkpt lat="40.90943510209768" lon="0.5191731833041605"><ele>80.4</ele><time>2026-05-03T14:51:56Z</time></trkpt><trkpt lat="40.90946146706905" lon="0.519264227495638"><ele>81.80000000000001</ele><time>2026-05-03T14:51:57Z</time></trkpt><trkpt lat="40.90950409829489" lon="0.5193896854283095"><ele>83.19999999999999</ele><time>2026-05-03T14:51:58Z</time></trkpt><trkpt lat="40.90953584737897" lon="0.5195157633024575"><ele>84.6</ele><time>2026-05-03T14:51:59Z</time></trkpt><trkpt lat="40.90957221113123" lon="0.5196290657858434"><ele>86.0</ele><time>2026-05-03T14:52:00Z</time></trkpt><trkpt lat="40.90959212093802" lon="0.5197310183702696"><ele>86.8</ele><time>2026-05-03T14:52:01Z</time></trkpt><trkpt lat="40.909617270860736" lon="0.5198204357521398"><ele>87.6</ele><time>2026-05-03T14:52:02Z</time></trkpt><trkpt lat="40.90967735886327" lon="0.5199633501715094"><ele>88.4</ele><time>2026-05-03T14:52:04Z</time></trkpt><trkpt lat="40.90972122478776" lon="0.5201016049668308"><ele>89.2</ele><time>2026-05-03T14:52:06Z</time></trkpt><trkpt lat="40.909752252620066" lon="0.5202677152255712"><ele>90.0</ele><time>2026-05-03T14:52:08Z</time></trkpt><trkpt lat="40.90979759341144" lon="0.5203952712787658"><ele>90.5</ele><time>2026-05-03T14:52:09Z</time></trkpt><trkpt lat="40.90984411328357" lon="0.5205301373133485"><ele>91.0</ele><time>2026-05-03T14:52:10Z</time></trkpt><trkpt lat="40.909882576746725" lon="0.520654360972545"><ele>91.5</ele><time>2026-05-03T14:52:11Z</time></trkpt><trkpt lat="40.90990847901618" lon="0.5207500771322477"><ele>92.0</ele><time>2026-05-03T14:52:12Z</time></trkpt><trkpt lat="40.90991492623607" lon="0.520839516793672"><ele>92.5</ele><time>2026-05-03T14:52:13Z</time></trkpt><trkpt lat="40.90992134884908" lon="0.5209529316073739"><ele>93.0</ele><time>2026-05-03T14:52:14Z</time></trkpt><trkpt lat="40.909927628484276" lon="0.5210796394589606"><ele>93.0</ele><time>2026-05-03T14:52:15Z</time></trkpt><trkpt lat="40.909936874407585" lon="0.5211996098513826"><ele>93.0</ele><time>2026-05-03T14:52:16Z</time></trkpt><trkpt lat="40.909940360898034" lon="0.5212986121171035"><ele>93.0</ele><time>2026-05-03T14:52:17Z</time></trkpt><trkpt lat="40.90995794431242" lon="0.5214027844540263"><ele>93.0</ele><time>2026-05-03T14:52:18Z</time></trkpt><trkpt lat="40.909997964246415" lon="0.5215092807020043"><ele>93.0</ele><time>2026-05-03T14:52:19Z</time></trkpt><trkpt lat="40.91003934262889" lon="0.5215892787860223"><ele>93.0</ele><time>2026-05-03T14:52:20Z</time></trkpt><trkpt lat="40.91008075473176" lon="0.5216637310305501"><ele>93.80000000000001</ele><time>2026-05-03T14:52:21Z</time></trkpt><trkpt lat="40.91012293295659" lon="0.5217427692823084"><ele>94.6</ele><time>2026-05-03T14:52:22Z</time></trkpt><trkpt lat="40.9101273273429" lon="0.5219053054205479"><ele>95.4</ele><time>2026-05-03T14:52:24Z</time></trkpt><trkpt lat="40.910090247813685" lon="0.5220206635127536"><ele>96.19999999999999</ele><time>2026-05-03T14:52:25Z</time></trkpt><trkpt lat="40.91007418271616" lon="0.522149509630885"><ele>97.0</ele><time>2026-05-03T14:52:26Z</time></trkpt><trkpt lat="40.9100704402114" lon="0.5222930192847819"><ele>97.66666666666667</ele><time>2026-05-03T14:52:27Z</time></trkpt><trkpt lat="40.91006496926432" lon="0.5223966964509728"><ele>98.33333333333334</ele><time>2026-05-03T14:52:28Z</time></trkpt><trkpt lat="40.91004129691857" lon="0.5224805794422683"><ele>99.0</ele><time>2026-05-03T14:52:29Z</time></trkpt><trkpt lat="40.91002154946004" lon="0.5226234176210952"><ele>99.66666666666666</ele><time>2026-05-03T14:52:31Z</time></trkpt><trkpt lat="40.91002680437285" lon="0.5227246247147969"><ele>100.33333333333333</ele><time>2026-05-03T14:52:32Z</time></trkpt><trkpt lat="40.9100447712885" lon="0.5228517959534507"><ele>101.0</ele><time>2026-05-03T14:52:33Z</time></trkpt><trkpt lat="40.91006452763782" lon="0.5229836671364014"><ele>102.5</ele><time>2026-05-03T14:52:34Z</time></trkpt><trkpt lat="40.91008611359064" lon="0.5231220652113799"><ele>104.0</ele><time>2026-05-03T14:52:35Z</time></trkpt><trkpt lat="40.91009404935361" lon="0.5232496434931124"><ele>105.5</ele><time>2026-05-03T14:52:36Z</time></trkpt><trkpt lat="40.91009480528808" lon="0.523341849191887"><ele>107.0</ele><time>2026-05-03T14:52:37Z</time></trkpt><trkpt lat="40.91027067081088" lon="0.523446651108587"><ele>107.0</ele><time>2026-05-03T14:52:52Z</time></trkpt><trkpt lat="40.9103358841678" lon="0.5234356137037748"><ele>106.99999999999999</ele><time>2026-05-03T14:52:53Z</time></trkpt><trkpt lat="40.91045693206238" lon="0.523442053178704"><ele>106.99999999999999</ele><time>2026-05-03T14:52:55Z</time></trkpt><trkpt lat="40.910578778215985" lon="0.5234698836915297"><ele>107.0</ele><time>2026-05-03T14:52:57Z</time></trkpt><trkpt lat="40.91064330074091" lon="0.5234893856350459"><ele>107.0</ele><time>2026-05-03T14:52:58Z</time></trkpt><trkpt lat="40.91070767797445" lon="0.5235855606151053"><ele>107.0</ele><time>2026-05-03T14:53:00Z</time></trkpt><trkpt lat="40.910771407673714" lon="0.523692884458169"><ele>106.99999999999999</ele><time>2026-05-03T14:53:02Z</time></trkpt><trkpt lat="40.910828945223" lon="0.523730234622603"><ele>106.99999999999999</ele><time>2026-05-03T14:53:03Z</time></trkpt><trkpt lat="40.91090970184254" lon="0.523816130195485"><ele>107.0</ele><time>2026-05-03T14:53:04.999Z</time></trkpt><trkpt lat="40.91095575506638" lon="0.5239005394268177"><ele>107.0</ele><time>2026-05-03T14:53:05.999Z</time></trkpt><trkpt lat="40.911016869003326" lon="0.524019490367134"><ele>107.49999999999999</ele><time>2026-05-03T14:53:06.999Z</time></trkpt><trkpt lat="40.91107255741957" lon="0.5241387659004744"><ele>108.0</ele><time>2026-05-03T14:53:07.999Z</time></trkpt><trkpt lat="40.91109998583174" lon="0.5242181772598185"><ele>108.5</ele><time>2026-05-03T14:53:08.999Z</time></trkpt><trkpt lat="40.911148275253275" lon="0.524279169728945"><ele>109.0</ele><time>2026-05-03T14:53:09.999Z</time></trkpt><trkpt lat="40.911198213952154" lon="0.5243516122948848"><ele>109.49999999999999</ele><time>2026-05-03T14:53:11.999Z</time></trkpt><trkpt lat="40.91126533319761" lon="0.524385821497464"><ele>110.0</ele><time>2026-05-03T14:53:13.999Z</time></trkpt><trkpt lat="40.9113963506914" lon="0.5243690946868678"><ele>110.0</ele><time>2026-05-03T14:53:15.999Z</time></trkpt><trkpt lat="40.91147098602231" lon="0.5243655025292504"><ele>110.0</ele><time>2026-05-03T14:53:16.999Z</time></trkpt><trkpt lat="40.91176212056882" lon="0.5244847265569865"><ele>110.0</ele><time>2026-05-03T14:53:21.999Z</time></trkpt><trkpt lat="40.911837574612534" lon="0.524510671614182"><ele>109.6</ele><time>2026-05-03T14:53:22.999Z</time></trkpt><trkpt lat="40.91196741647656" lon="0.5245527072268193"><ele>109.2</ele><time>2026-05-03T14:53:24.999Z</time></trkpt><trkpt lat="40.91203152627792" lon="0.5245616849019757"><ele>108.80000000000001</ele><time>2026-05-03T14:53:25.999Z</time></trkpt><trkpt lat="40.912125108313646" lon="0.5245897284985708"><ele>108.4</ele><time>2026-05-03T14:53:27.999Z</time></trkpt><trkpt lat="40.912213479138096" lon="0.5246347070177647"><ele>108.0</ele><time>2026-05-03T14:53:29.999Z</time></trkpt><trkpt lat="40.91229575735599" lon="0.52467432054408"><ele>108.60000000000001</ele><time>2026-05-03T14:53:31.999Z</time></trkpt><trkpt lat="40.912356201473024" lon="0.5247471822472773"><ele>109.20000000000002</ele><time>2026-05-03T14:53:33.999Z</time></trkpt><trkpt lat="40.91243259715139" lon="0.5248336428779641"><ele>109.8</ele><time>2026-05-03T14:53:35.999Z</time></trkpt><trkpt lat="40.91249202045552" lon="0.5249336234104185"><ele>110.4</ele><time>2026-05-03T14:53:37.999Z</time></trkpt><trkpt lat="40.91255216842468" lon="0.5250192609912133"><ele>111.0</ele><time>2026-05-03T14:53:39.999Z</time></trkpt><trkpt lat="40.91260980648989" lon="0.5251026196213229"><ele>111.0</ele><time>2026-05-03T14:53:41.999Z</time></trkpt><trkpt lat="40.91266210217343" lon="0.5251814037652077"><ele>111.0</ele><time>2026-05-03T14:53:43.999Z</time></trkpt><trkpt lat="40.91271939780762" lon="0.5252757064772615"><ele>111.0</ele><time>2026-05-03T14:53:45.999Z</time></trkpt><trkpt lat="40.91278917392782" lon="0.5253329932761873"><ele>111.0</ele><time>2026-05-03T14:53:47.999Z</time></trkpt><trkpt lat="40.912873836093716" lon="0.5253534112265572"><ele>111.0</ele><time>2026-05-03T14:53:49.999Z</time></trkpt><trkpt lat="40.91292213945669" lon="0.5254206739846331"><ele>111.0</ele><time>2026-05-03T14:53:52Z</time></trkpt><trkpt lat="40.91296543132645" lon="0.5255102064089562"><ele>111.0</ele><time>2026-05-03T14:53:54Z</time></trkpt><trkpt lat="40.91297384456275" lon="0.5256019932015878"><ele>111.0</ele><time>2026-05-03T14:53:56Z</time></trkpt><trkpt lat="40.91300960122768" lon="0.5256925730352504"><ele>111.0</ele><time>2026-05-03T14:53:58Z</time></trkpt><trkpt lat="40.9130463280618" lon="0.5257716916115717"><ele>111.0</ele><time>2026-05-03T14:54:00Z</time></trkpt><trkpt lat="40.913108173598296" lon="0.5258419008674545"><ele>111.0</ele><time>2026-05-03T14:54:02Z</time></trkpt><trkpt lat="40.91315624952772" lon="0.5259056001652358"><ele>111.0</ele><time>2026-05-03T14:54:04Z</time></trkpt><trkpt lat="40.91322444493209" lon="0.5259480821896125"><ele>111.0</ele><time>2026-05-03T14:54:07Z</time></trkpt><trkpt lat="40.91328334811347" lon="0.5259931173669442"><ele>111.0</ele><time>2026-05-03T14:54:11Z</time></trkpt><trkpt lat="40.91330520625862" lon="0.5260790715851669"><ele>111.0</ele><time>2026-05-03T14:54:16Z</time></trkpt><trkpt lat="40.913361632349805" lon="0.5260389136606916"><ele>111.0</ele><time>2026-05-03T14:54:19Z</time></trkpt><trkpt lat="40.913430455477126" lon="0.5260635382469282"><ele>111.0</ele><time>2026-05-03T14:54:22Z</time></trkpt><trkpt lat="40.913463557167404" lon="0.5261459932966265"><ele>111.0</ele><time>2026-05-03T14:54:25Z</time></trkpt><trkpt lat="40.91344770640516" lon="0.5262378152475097"><ele>111.0</ele><time>2026-05-03T14:54:28Z</time></trkpt><trkpt lat="40.91338422513657" lon="0.5263308564432254"><ele>111.0</ele><time>2026-05-03T14:54:31Z</time></trkpt><trkpt lat="40.91333300284044" lon="0.5263896327171257"><ele>109.8</ele><time>2026-05-03T14:54:33Z</time></trkpt><trkpt lat="40.91327700937182" lon="0.5264659710387809"><ele>108.6</ele><time>2026-05-03T14:54:35Z</time></trkpt><trkpt lat="40.91324951461161" lon="0.526623383916678"><ele>107.4</ele><time>2026-05-03T14:54:37Z</time></trkpt><trkpt lat="40.91323508361396" lon="0.5267450337375847"><ele>106.2</ele><time>2026-05-03T14:54:39Z</time></trkpt><trkpt lat="40.913252574998445" lon="0.5268532549598359"><ele>105.0</ele><time>2026-05-03T14:54:41Z</time></trkpt><trkpt lat="40.913244951986556" lon="0.5269857813574013"><ele>105.16666666666667</ele><time>2026-05-03T14:54:43Z</time></trkpt><trkpt lat="40.913257674023825" lon="0.527071574850051"><ele>105.33333333333334</ele><time>2026-05-03T14:54:45Z</time></trkpt><trkpt lat="40.913266017325405" lon="0.5272185348489772"><ele>105.5</ele><time>2026-05-03T14:54:47Z</time></trkpt><trkpt lat="40.91326750078805" lon="0.5273514525511586"><ele>105.66666666666667</ele><time>2026-05-03T14:54:49Z</time></trkpt><trkpt lat="40.91321901360368" lon="0.5274262070773591"><ele>105.83333333333334</ele><time>2026-05-03T14:54:51Z</time></trkpt><trkpt lat="40.91320956627056" lon="0.5275234056707886"><ele>106.0</ele><time>2026-05-03T14:54:53Z</time></trkpt><trkpt lat="40.913187570785" lon="0.5276112061411539"><ele>106.00000000000001</ele><time>2026-05-03T14:54:55Z</time></trkpt><trkpt lat="40.91320372767438" lon="0.5277245442701808"><ele>106.0</ele><time>2026-05-03T14:54:57Z</time></trkpt><trkpt lat="40.91322018281023" lon="0.5278572268197914"><ele>106.0</ele><time>2026-05-03T14:54:59Z</time></trkpt><trkpt lat="40.91325791171449" lon="0.527957814062951"><ele>106.0</ele><time>2026-05-03T14:55:01Z</time></trkpt><trkpt lat="40.91331580848601" lon="0.528024614757343"><ele>106.00000000000001</ele><time>2026-05-03T14:55:03Z</time></trkpt><trkpt lat="40.913341042392005" lon="0.5281156890097523"><ele>106.0</ele><time>2026-05-03T14:55:05Z</time></trkpt><trkpt lat="40.913386716026615" lon="0.528207025049775"><ele>106.66666666666667</ele><time>2026-05-03T14:55:08Z</time></trkpt><trkpt lat="40.913405210768694" lon="0.5283004378002093"><ele>107.33333333333334</ele><time>2026-05-03T14:55:12Z</time></trkpt><trkpt lat="40.91343469913784" lon="0.5283782764522249"><ele>108.0</ele><time>2026-05-03T14:55:15Z</time></trkpt><trkpt lat="40.91345684590875" lon="0.5284938258520573"><ele>108.66666666666666</ele><time>2026-05-03T14:55:17.999Z</time></trkpt><trkpt lat="40.91343419398521" lon="0.5285836307860179"><ele>109.33333333333333</ele><time>2026-05-03T14:55:19.999Z</time></trkpt><trkpt lat="40.91343793794638" lon="0.5286707357717763"><ele>110.0</ele><time>2026-05-03T14:55:21.999Z</time></trkpt><trkpt lat="40.91342051659947" lon="0.528779124577519"><ele>108.66666666666666</ele><time>2026-05-03T14:55:23.999Z</time></trkpt><trkpt lat="40.91344499653811" lon="0.528920120924284"><ele>107.33333333333333</ele><time>2026-05-03T14:55:25.999Z</time></trkpt><trkpt lat="40.91342909929423" lon="0.5290393662584453"><ele>106.0</ele><time>2026-05-03T14:55:27.999Z</time></trkpt><trkpt lat="40.913439750923786" lon="0.5291382256262951"><ele>104.66666666666666</ele><time>2026-05-03T14:55:29.999Z</time></trkpt><trkpt lat="40.91345371971786" lon="0.5292461862570466"><ele>103.33333333333333</ele><time>2026-05-03T14:55:31.999Z</time></trkpt><trkpt lat="40.91347850126699" lon="0.5293579143953826"><ele>102.0</ele><time>2026-05-03T14:55:34.999Z</time></trkpt><trkpt lat="40.91348407251283" lon="0.5294495837551649"><ele>102.0</ele><time>2026-05-03T14:55:36.999Z</time></trkpt><trkpt lat="40.913502296571544" lon="0.5295565403651644"><ele>102.0</ele><time>2026-05-03T14:55:39.999Z</time></trkpt><trkpt lat="40.91354891119941" lon="0.5296171274400157"><ele>102.0</ele><time>2026-05-03T14:55:42.999Z</time></trkpt><trkpt lat="40.9135951862011" lon="0.5297074950769077"><ele>102.0</ele><time>2026-05-03T14:55:45.999Z</time></trkpt><trkpt lat="40.913622679075964" lon="0.5297826030310401"><ele>102.0</ele><time>2026-05-03T14:55:47.999Z</time></trkpt><trkpt lat="40.91365957412146" lon="0.529924544742994"><ele>102.0</ele><time>2026-05-03T14:55:50.999Z</time></trkpt><trkpt lat="40.91364792107357" lon="0.5300094751729628"><ele>103.16666666666667</ele><time>2026-05-03T14:55:54.999Z</time></trkpt><trkpt lat="40.9136706404084" lon="0.5301074318857174"><ele>104.33333333333334</ele><time>2026-05-03T14:55:58Z</time></trkpt><trkpt lat="40.91368344293885" lon="0.5302232609201326"><ele>105.5</ele><time>2026-05-03T14:56:00Z</time></trkpt><trkpt lat="40.913679472314215" lon="0.5303343337442307"><ele>106.66666666666667</ele><time>2026-05-03T14:56:02Z</time></trkpt><trkpt lat="40.91366594762657" lon="0.5304359042617368"><ele>107.83333333333334</ele><time>2026-05-03T14:56:04Z</time></trkpt><trkpt lat="40.91365263494459" lon="0.5305194729271514"><ele>109.0</ele><time>2026-05-03T14:56:07Z</time></trkpt><trkpt lat="40.91372211671248" lon="0.5305462743935072"><ele>110.83333333333334</ele><time>2026-05-03T14:56:10Z</time></trkpt><trkpt lat="40.91381927907309" lon="0.5306008192933087"><ele>112.66666666666667</ele><time>2026-05-03T14:56:15Z</time></trkpt><trkpt lat="40.91380780387448" lon="0.5307029410390213"><ele>114.5</ele><time>2026-05-03T14:56:17Z</time></trkpt><trkpt lat="40.91376991773801" lon="0.5308145613589189"><ele>116.33333333333334</ele><time>2026-05-03T14:56:19Z</time></trkpt><trkpt lat="40.91373099282957" lon="0.5309227140514173"><ele>118.16666666666667</ele><time>2026-05-03T14:56:22Z</time></trkpt><trkpt lat="40.91376414458911" lon="0.5309959031409462"><ele>120.0</ele><time>2026-05-03T14:56:25Z</time></trkpt><trkpt lat="40.91365584692995" lon="0.5310779964232516"><ele>120.0</ele><time>2026-05-03T14:57:44.999Z</time></trkpt><trkpt lat="40.91359716410966" lon="0.5310411871750763"><ele>120.0</ele><time>2026-05-03T14:58:08Z</time></trkpt><trkpt lat="40.91356534672731" lon="0.530958660013751"><ele>120.0</ele><time>2026-05-03T14:58:16Z</time></trkpt><trkpt lat="40.913616654251456" lon="0.5308955515113573"><ele>120.0</ele><time>2026-05-03T14:58:19Z</time></trkpt><trkpt lat="40.91368727754553" lon="0.5308681451917521"><ele>120.0</ele><time>2026-05-03T14:58:23Z</time></trkpt><trkpt lat="40.9137371659925" lon="0.5307850541693302"><ele>120.0</ele><time>2026-05-03T14:58:26Z</time></trkpt><trkpt lat="40.91371983932552" lon="0.5306988624796164"><ele>120.0</ele><time>2026-05-03T14:58:31Z</time></trkpt><trkpt lat="40.91373935567457" lon="0.530616593864182"><ele>120.0</ele><time>2026-05-03T14:58:48Z</time></trkpt><trkpt lat="40.91371335334374" lon="0.5305242907348944"><ele>120.0</ele><time>2026-05-03T14:58:52Z</time></trkpt><trkpt lat="40.91364369960721" lon="0.5304871026162902"><ele>120.0</ele><time>2026-05-03T14:58:55Z</time></trkpt><trkpt lat="40.91365115103357" lon="0.5303637257932597"><ele>120.0</ele><time>2026-05-03T14:58:59Z</time></trkpt><trkpt lat="40.91365958959467" lon="0.5302624751685516"><ele>120.0</ele><time>2026-05-03T14:59:01Z</time></trkpt><trkpt lat="40.91366812169824" lon="0.5301592283275034"><ele>120.0</ele><time>2026-05-03T14:59:03Z</time></trkpt><trkpt lat="40.91364760333098" lon="0.5300458476770605"><ele>118.16666666666667</ele><time>2026-05-03T14:59:05Z</time></trkpt><trkpt lat="40.9136318396618" lon="0.5299118427902956"><ele>116.33333333333334</ele><time>2026-05-03T14:59:07Z</time></trkpt><trkpt lat="40.91360264798077" lon="0.5298143444275251"><ele>114.5</ele><time>2026-05-03T14:59:09Z</time></trkpt><trkpt lat="40.91357017131125" lon="0.529719347419215"><ele>112.66666666666667</ele><time>2026-05-03T14:59:12Z</time></trkpt><trkpt lat="40.9135978141966" lon="0.5296205223616146"><ele>110.83333333333334</ele><time>2026-05-03T14:59:15Z</time></trkpt><trkpt lat="40.91363846378743" lon="0.5295261187197429"><ele>109.0</ele><time>2026-05-03T14:59:17Z</time></trkpt><trkpt lat="40.91363150350105" lon="0.5294375357240654"><ele>107.83333333333334</ele><time>2026-05-03T14:59:18Z</time></trkpt><trkpt lat="40.91359478769097" lon="0.5293284098386625"><ele>106.66666666666667</ele><time>2026-05-03T14:59:20Z</time></trkpt><trkpt lat="40.91357120839134" lon="0.5292497089484306"><ele>105.5</ele><time>2026-05-03T14:59:24Z</time></trkpt><trkpt lat="40.913628132067544" lon="0.529209644903184"><ele>104.33333333333334</ele><time>2026-05-03T14:59:32.999Z</time></trkpt><trkpt lat="40.91366528148807" lon="0.5293398489274111"><ele>103.16666666666667</ele><time>2026-05-03T14:59:39.999Z</time></trkpt><trkpt lat="40.91368356849246" lon="0.5294624593643651"><ele>102.0</ele><time>2026-05-03T14:59:41.999Z</time></trkpt><trkpt lat="40.91369859936947" lon="0.5295549638573834"><ele>102.0</ele><time>2026-05-03T14:59:45.999Z</time></trkpt><trkpt lat="40.91376165824989" lon="0.5295481220577677"><ele>102.0</ele><time>2026-05-03T14:59:53.999Z</time></trkpt><trkpt lat="40.91384187549391" lon="0.5295178020664572"><ele>102.0</ele><time>2026-05-03T14:59:55.999Z</time></trkpt><trkpt lat="40.913907858778096" lon="0.5294939226038178"><ele>102.0</ele><time>2026-05-03T15:00:01.999Z</time></trkpt><trkpt lat="40.91395659285834" lon="0.5294232985231505"><ele>102.0</ele><time>2026-05-03T15:00:03.999Z</time></trkpt><trkpt lat="40.913941914102345" lon="0.529323160121093"><ele>102.0</ele><time>2026-05-03T15:00:06.999Z</time></trkpt><trkpt lat="40.91392794879898" lon="0.5292416615378265"><ele>102.0</ele><time>2026-05-03T15:00:09Z</time></trkpt><trkpt lat="40.913938202895636" lon="0.529137023028726"><ele>102.0</ele><time>2026-05-03T15:00:11Z</time></trkpt><trkpt lat="40.91396170899984" lon="0.5290383231200116"><ele>102.0</ele><time>2026-05-03T15:00:13Z</time></trkpt><trkpt lat="40.913994451126285" lon="0.5289194486737288"><ele>102.0</ele><time>2026-05-03T15:00:15Z</time></trkpt><trkpt lat="40.91402207124895" lon="0.5287881457467832"><ele>102.0</ele><time>2026-05-03T15:00:17Z</time></trkpt><trkpt lat="40.914030647924996" lon="0.5286580578297105"><ele>102.0</ele><time>2026-05-03T15:00:19Z</time></trkpt><trkpt lat="40.91404540166638" lon="0.5285406544999968"><ele>100.19999999999999</ele><time>2026-05-03T15:00:21Z</time></trkpt><trkpt lat="40.91407886552797" lon="0.5284666023306118"><ele>98.4</ele><time>2026-05-03T15:00:23Z</time></trkpt><trkpt lat="40.91412617474594" lon="0.5283547840764682"><ele>96.6</ele><time>2026-05-03T15:00:25Z</time></trkpt><trkpt lat="40.91413941103284" lon="0.5282257737245709"><ele>94.80000000000001</ele><time>2026-05-03T15:00:27Z</time></trkpt><trkpt lat="40.91417025825846" lon="0.5280848394644506"><ele>93.0</ele><time>2026-05-03T15:00:29Z</time></trkpt><trkpt lat="40.91418463616089" lon="0.5279517503904453"><ele>91.4</ele><time>2026-05-03T15:00:31Z</time></trkpt><trkpt lat="40.91420068604715" lon="0.5278004812846983"><ele>89.80000000000001</ele><time>2026-05-03T15:00:33Z</time></trkpt><trkpt lat="40.91418966568115" lon="0.5276524885572703"><ele>88.2</ele><time>2026-05-03T15:00:35Z</time></trkpt><trkpt lat="40.91420491006052" lon="0.5275035872222423"><ele>86.6</ele><time>2026-05-03T15:00:37Z</time></trkpt><trkpt lat="40.91419587064083" lon="0.5273770453481366"><ele>85.0</ele><time>2026-05-03T15:00:39Z</time></trkpt><trkpt lat="40.91416911573116" lon="0.527226149079025"><ele>85.0</ele><time>2026-05-03T15:00:41Z</time></trkpt><trkpt lat="40.91415805601378" lon="0.5271311848599163"><ele>85.0</ele><time>2026-05-03T15:00:42Z</time></trkpt><trkpt lat="40.914139579428266" lon="0.5270221861043914"><ele>85.0</ele><time>2026-05-03T15:00:43Z</time></trkpt><trkpt lat="40.914128524190986" lon="0.5268698488123652"><ele>85.0</ele><time>2026-05-03T15:00:44Z</time></trkpt><trkpt lat="40.914142224091286" lon="0.5267676523909942"><ele>85.0</ele><time>2026-05-03T15:00:45Z</time></trkpt><trkpt lat="40.914183411405" lon="0.5266891777520412"><ele>85.0</ele><time>2026-05-03T15:00:46Z</time></trkpt><trkpt lat="40.914225454454915" lon="0.5266247144400439"><ele>82.83333333333333</ele><time>2026-05-03T15:00:47Z</time></trkpt><trkpt lat="40.91426115145634" lon="0.5265252487386403"><ele>80.66666666666666</ele><time>2026-05-03T15:00:48Z</time></trkpt><trkpt lat="40.91427272758554" lon="0.526430361708738"><ele>78.5</ele><time>2026-05-03T15:00:49Z</time></trkpt><trkpt lat="40.91428390636896" lon="0.5262714627491202"><ele>76.33333333333333</ele><time>2026-05-03T15:00:51Z</time></trkpt><trkpt lat="40.914276851000224" lon="0.5261766500330748"><ele>74.16666666666667</ele><time>2026-05-03T15:00:52Z</time></trkpt><trkpt lat="40.9142766000952" lon="0.5260585058744024"><ele>72.0</ele><time>2026-05-03T15:00:53Z</time></trkpt><trkpt lat="40.91427077714101" lon="0.5259542332957547"><ele>70.0</ele><time>2026-05-03T15:00:54Z</time></trkpt><trkpt lat="40.914293079772406" lon="0.525827611685301"><ele>68.0</ele><time>2026-05-03T15:00:56Z</time></trkpt><trkpt lat="40.914308420774844" lon="0.5257112616268793"><ele>66.0</ele><time>2026-05-03T15:00:57Z</time></trkpt><trkpt lat="40.91435541276703" lon="0.5255512460436372"><ele>64.0</ele><time>2026-05-03T15:00:59Z</time></trkpt><trkpt lat="40.91437291330801" lon="0.5254694892303562"><ele>62.0</ele><time>2026-05-03T15:01:00Z</time></trkpt><trkpt lat="40.91437351828548" lon="0.5253815547777053"><ele>60.0</ele><time>2026-05-03T15:01:01Z</time></trkpt><trkpt lat="40.91436178204668" lon="0.5252995196102616"><ele>59.5</ele><time>2026-05-03T15:01:02Z</time></trkpt><trkpt lat="40.91434874816972" lon="0.525205195379723"><ele>59.0</ele><time>2026-05-03T15:01:03Z</time></trkpt><trkpt lat="40.91434466014677" lon="0.5251219319601533"><ele>58.5</ele><time>2026-05-03T15:01:04Z</time></trkpt><trkpt lat="40.91434197030663" lon="0.5250069387987855"><ele>58.0</ele><time>2026-05-03T15:01:05Z</time></trkpt><trkpt lat="40.91435469071462" lon="0.5248921396429096"><ele>57.5</ele><time>2026-05-03T15:01:06Z</time></trkpt><trkpt lat="40.91436382900784" lon="0.5247936199161971"><ele>57.0</ele><time>2026-05-03T15:01:07Z</time></trkpt><trkpt lat="40.91437137566984" lon="0.5247017499248564"><ele>57.0</ele><time>2026-05-03T15:01:08Z</time></trkpt><trkpt lat="40.914378596161974" lon="0.5246154598688756"><ele>57.0</ele><time>2026-05-03T15:01:09Z</time></trkpt><trkpt lat="40.91438834466159" lon="0.5245209072511784"><ele>57.0</ele><time>2026-05-03T15:01:10Z</time></trkpt><trkpt lat="40.91439702605214" lon="0.5243660787408969"><ele>57.0</ele><time>2026-05-03T15:01:12Z</time></trkpt><trkpt lat="40.91440536001444" lon="0.5242488802854566"><ele>57.0</ele><time>2026-05-03T15:01:14Z</time></trkpt><trkpt lat="40.91445493271407" lon="0.5241172782146702"><ele>56.333333333333336</ele><time>2026-05-03T15:01:16Z</time></trkpt><trkpt lat="40.91450615818954" lon="0.5240363184501122"><ele>55.66666666666667</ele><time>2026-05-03T15:01:18Z</time></trkpt><trkpt lat="40.91457051444749" lon="0.5239189275538086"><ele>55.0</ele><time>2026-05-03T15:01:20Z</time></trkpt><trkpt lat="40.9146273365965" lon="0.5238728875490646"><ele>54.333333333333336</ele><time>2026-05-03T15:01:21Z</time></trkpt><trkpt lat="40.914687187102324" lon="0.5238333479454651"><ele>53.66666666666667</ele><time>2026-05-03T15:01:23Z</time></trkpt><trkpt lat="40.914711173579235" lon="0.5237444250564717"><ele>53.0</ele><time>2026-05-03T15:01:25Z</time></trkpt><trkpt lat="40.914764604544835" lon="0.5237984406323383"><ele>53.00000000000001</ele><time>2026-05-03T15:01:29Z</time></trkpt><trkpt lat="40.91472695178409" lon="0.5238818606979825"><ele>53.0</ele><time>2026-05-03T15:01:31Z</time></trkpt><trkpt lat="40.91469005891285" lon="0.5239675492510888"><ele>53.0</ele><time>2026-05-03T15:01:32.999Z</time></trkpt><trkpt lat="40.91463562095431" lon="0.5240527483200245"><ele>53.0</ele><time>2026-05-03T15:01:35.999Z</time></trkpt><trkpt lat="40.91470965848463" lon="0.5240809564568207"><ele>53.00000000000001</ele><time>2026-05-03T15:01:39.999Z</time></trkpt><trkpt lat="40.91475877579823" lon="0.5239935648260269"><ele>53.0</ele><time>2026-05-03T15:01:41.999Z</time></trkpt><trkpt lat="40.914818960293026" lon="0.5239679116906395"><ele>53.0</ele><time>2026-05-03T15:01:42.999Z</time></trkpt><trkpt lat="40.91491768646967" lon="0.5239270963391891"><ele>53.0</ele><time>2026-05-03T15:01:44.999Z</time></trkpt><trkpt lat="40.91498145439198" lon="0.5238685731642901"><ele>53.0</ele><time>2026-05-03T15:01:46.999Z</time></trkpt><trkpt lat="40.91499680647167" lon="0.5237289337641569"><ele>53.0</ele><time>2026-05-03T15:01:48.999Z</time></trkpt><trkpt lat="40.91497956320716" lon="0.5236462521293505"><ele>53.0</ele><time>2026-05-03T15:01:49.999Z</time></trkpt><trkpt lat="40.91495768514083" lon="0.5234811153189783"><ele>52.8</ele><time>2026-05-03T15:01:50.999Z</time></trkpt><trkpt lat="40.91490212114299" lon="0.5233058341450121"><ele>52.599999999999994</ele><time>2026-05-03T15:01:51.999Z</time></trkpt><trkpt lat="40.914879341648344" lon="0.5231740872885505"><ele>52.400000000000006</ele><time>2026-05-03T15:01:52.999Z</time></trkpt><trkpt lat="40.91486862703163" lon="0.5230585041512753"><ele>52.2</ele><time>2026-05-03T15:01:53.999Z</time></trkpt><trkpt lat="40.914861546406314" lon="0.5229409354536977"><ele>52.0</ele><time>2026-05-03T15:01:54.999Z</time></trkpt><trkpt lat="40.914893569774705" lon="0.5228199881971737"><ele>51.99999999999999</ele><time>2026-05-03T15:01:55.999Z</time></trkpt><trkpt lat="40.91496021643048" lon="0.5227075590468512"><ele>52.0</ele><time>2026-05-03T15:01:56.999Z</time></trkpt><trkpt lat="40.91499150041829" lon="0.5225980175656714"><ele>52.0</ele><time>2026-05-03T15:01:57.999Z</time></trkpt><trkpt lat="40.915020956938804" lon="0.5225102183374603"><ele>52.0</ele><time>2026-05-03T15:01:58.999Z</time></trkpt><trkpt lat="40.91504155378966" lon="0.5224219709560214"><ele>51.99999999999999</ele><time>2026-05-03T15:01:59.999Z</time></trkpt><trkpt lat="40.91505216124816" lon="0.5223145098681421"><ele>52.0</ele><time>2026-05-03T15:02:00.999Z</time></trkpt><trkpt lat="40.915043260991034" lon="0.5222192337103727"><ele>52.0</ele><time>2026-05-03T15:02:01.999Z</time></trkpt><trkpt lat="40.915017182031264" lon="0.5220725217412632"><ele>52.0</ele><time>2026-05-03T15:02:03.999Z</time></trkpt><trkpt lat="40.91502157909912" lon="0.5219300333409741"><ele>52.0</ele><time>2026-05-03T15:02:05.999Z</time></trkpt><trkpt lat="40.91504049049461" lon="0.5218475320890058"><ele>52.0</ele><time>2026-05-03T15:02:06.999Z</time></trkpt><trkpt lat="40.915055982868004" lon="0.5217229091807141"><ele>52.0</ele><time>2026-05-03T15:02:07.999Z</time></trkpt><trkpt lat="40.91504738796326" lon="0.5216174743438269"><ele>51.33333333333333</ele><time>2026-05-03T15:02:08.999Z</time></trkpt><trkpt lat="40.91501808422641" lon="0.5215222648664871"><ele>50.666666666666664</ele><time>2026-05-03T15:02:09.999Z</time></trkpt><trkpt lat="40.915000603671196" lon="0.5214165460202569"><ele>50.0</ele><time>2026-05-03T15:02:10.999Z</time></trkpt><trkpt lat="40.91498494945458" lon="0.5213214474209849"><ele>49.33333333333333</ele><time>2026-05-03T15:02:11.999Z</time></trkpt><trkpt lat="40.914997990788336" lon="0.5212103167408758"><ele>48.666666666666664</ele><time>2026-05-03T15:02:13.999Z</time></trkpt><trkpt lat="40.914941161044176" lon="0.5210926699363473"><ele>48.0</ele><time>2026-05-03T15:02:16Z</time></trkpt><trkpt lat="40.91488455907006" lon="0.5210431405218882"><ele>48.0</ele><time>2026-05-03T15:02:17Z</time></trkpt><trkpt lat="40.91482535160665" lon="0.520988932568917"><ele>48.0</ele><time>2026-05-03T15:02:18Z</time></trkpt><trkpt lat="40.914781947881934" lon="0.52092656189344"><ele>48.0</ele><time>2026-05-03T15:02:19Z</time></trkpt><trkpt lat="40.91474027435455" lon="0.5208537476863437"><ele>48.0</ele><time>2026-05-03T15:02:20Z</time></trkpt><trkpt lat="40.91470352885801" lon="0.5207605555136536"><ele>48.0</ele><time>2026-05-03T15:02:21Z</time></trkpt><trkpt lat="40.91459017006946" lon="0.5206543974022823"><ele>48.0</ele><time>2026-05-03T15:02:22Z</time></trkpt><trkpt lat="40.91449004560378" lon="0.5205528792621767"><ele>48.0</ele><time>2026-05-03T15:02:23Z</time></trkpt><trkpt lat="40.91441261367539" lon="0.520480782008987"><ele>48.0</ele><time>2026-05-03T15:02:24Z</time></trkpt><trkpt lat="40.91438277179837" lon="0.5203767314815516"><ele>48.0</ele><time>2026-05-03T15:02:25Z</time></trkpt><trkpt lat="40.91435388730621" lon="0.5202646992017907"><ele>48.0</ele><time>2026-05-03T15:02:26Z</time></trkpt><trkpt lat="40.914335965491375" lon="0.5201668643970911"><ele>48.0</ele><time>2026-05-03T15:02:27Z</time></trkpt><trkpt lat="40.91429644897275" lon="0.5200557037616219"><ele>48.0</ele><time>2026-05-03T15:02:28Z</time></trkpt><trkpt lat="40.91425113076281" lon="0.5199622769564096"><ele>46.8</ele><time>2026-05-03T15:02:29Z</time></trkpt><trkpt lat="40.91420299219607" lon="0.5198798597308388"><ele>45.599999999999994</ele><time>2026-05-03T15:02:30Z</time></trkpt><trkpt lat="40.914138881286675" lon="0.5198089560787728"><ele>44.400000000000006</ele><time>2026-05-03T15:02:31Z</time></trkpt><trkpt lat="40.914054633915335" lon="0.5196698862501861"><ele>43.2</ele><time>2026-05-03T15:02:33Z</time></trkpt><trkpt lat="40.91400232526122" lon="0.5195793061905782"><ele>42.0</ele><time>2026-05-03T15:02:34Z</time></trkpt><trkpt lat="40.913957397061246" lon="0.5194880850865302"><ele>41.666666666666664</ele><time>2026-05-03T15:02:35Z</time></trkpt><trkpt lat="40.91390929124581" lon="0.5194052465154156"><ele>41.333333333333336</ele><time>2026-05-03T15:02:36Z</time></trkpt><trkpt lat="40.913860784484704" lon="0.519324414129106"><ele>41.0</ele><time>2026-05-03T15:02:37Z</time></trkpt><trkpt lat="40.913807070012616" lon="0.519257124031536"><ele>40.66666666666667</ele><time>2026-05-03T15:02:38Z</time></trkpt><trkpt lat="40.91375179447309" lon="0.5191918538141872"><ele>40.333333333333336</ele><time>2026-05-03T15:02:39Z</time></trkpt><trkpt lat="40.91365498092449" lon="0.5191104980471458"><ele>40.0</ele><time>2026-05-03T15:02:41Z</time></trkpt><trkpt lat="40.9135845526253" lon="0.5190380442897198"><ele>40.0</ele><time>2026-05-03T15:02:43Z</time></trkpt><trkpt lat="40.913543393168425" lon="0.5189271131928872"><ele>40.0</ele><time>2026-05-03T15:02:45Z</time></trkpt><trkpt lat="40.91349528353172" lon="0.5187938889567772"><ele>40.0</ele><time>2026-05-03T15:02:47Z</time></trkpt><trkpt lat="40.91345894115992" lon="0.5186645841844323"><ele>40.0</ele><time>2026-05-03T15:02:48Z</time></trkpt><trkpt lat="40.9134318053878" lon="0.518534553525662"><ele>40.0</ele><time>2026-05-03T15:02:49Z</time></trkpt><trkpt lat="40.91340223241045" lon="0.5184285606078414"><ele>38.6</ele><time>2026-05-03T15:02:50Z</time></trkpt><trkpt lat="40.91337548086338" lon="0.5183177176909177"><ele>37.2</ele><time>2026-05-03T15:02:51Z</time></trkpt><trkpt lat="40.91335648474842" lon="0.5182157439788879"><ele>35.8</ele><time>2026-05-03T15:02:52Z</time></trkpt><trkpt lat="40.91332119084748" lon="0.518099826313929"><ele>34.4</ele><time>2026-05-03T15:02:53Z</time></trkpt><trkpt lat="40.913272907113246" lon="0.5179751802268681"><ele>33.0</ele><time>2026-05-03T15:02:54Z</time></trkpt><trkpt lat="40.9131881694224" lon="0.5178294204232046"><ele>33.0</ele><time>2026-05-03T15:02:55Z</time></trkpt><trkpt lat="40.913090494587486" lon="0.5176435094696635"><ele>33.0</ele><time>2026-05-03T15:02:56Z</time></trkpt><trkpt lat="40.91300243708093" lon="0.517477410880729"><ele>33.0</ele><time>2026-05-03T15:02:57Z</time></trkpt><trkpt lat="40.91293045323636" lon="0.5173340691533279"><ele>33.0</ele><time>2026-05-03T15:02:58Z</time></trkpt><trkpt lat="40.9128740549371" lon="0.5172082881551423"><ele>33.0</ele><time>2026-05-03T15:02:59Z</time></trkpt><trkpt lat="40.91282890914612" lon="0.5170963673312899"><ele>33.0</ele><time>2026-05-03T15:03:00Z</time></trkpt><trkpt lat="40.912783988507066" lon="0.5169954504067099"><ele>33.0</ele><time>2026-05-03T15:03:01Z</time></trkpt><trkpt lat="40.91273954737146" lon="0.5169113115067694"><ele>33.0</ele><time>2026-05-03T15:03:02Z</time></trkpt><trkpt lat="40.91270396734019" lon="0.516828752703058"><ele>33.0</ele><time>2026-05-03T15:03:03Z</time></trkpt><trkpt lat="40.912661733829516" lon="0.5167100215384208"><ele>32.199999999999996</ele><time>2026-05-03T15:03:04Z</time></trkpt><trkpt lat="40.91261420448609" lon="0.5165964956515324"><ele>31.4</ele><time>2026-05-03T15:03:05Z</time></trkpt><trkpt lat="40.912558442670445" lon="0.5164731734597936"><ele>30.599999999999998</ele><time>2026-05-03T15:03:06Z</time></trkpt><trkpt lat="40.91249503498567" lon="0.516342942432621"><ele>29.799999999999997</ele><time>2026-05-03T15:03:07Z</time></trkpt><trkpt lat="40.91243433709766" lon="0.5162143279017724"><ele>29.0</ele><time>2026-05-03T15:03:08Z</time></trkpt><trkpt lat="40.912380609187394" lon="0.5161270364148443"><ele>28.333333333333332</ele><time>2026-05-03T15:03:09Z</time></trkpt><trkpt lat="40.912324800004185" lon="0.5160437972476111"><ele>27.666666666666664</ele><time>2026-05-03T15:03:10Z</time></trkpt><trkpt lat="40.91227285975349" lon="0.515975479255222"><ele>27.0</ele><time>2026-05-03T15:03:11Z</time></trkpt><trkpt lat="40.912217610030936" lon="0.5159130050998125"><ele>26.333333333333336</ele><time>2026-05-03T15:03:12Z</time></trkpt><trkpt lat="40.91217249370307" lon="0.5158453266607496"><ele>25.666666666666668</ele><time>2026-05-03T15:03:13Z</time></trkpt><trkpt lat="40.912146919166794" lon="0.5157448596054887"><ele>25.0</ele><time>2026-05-03T15:03:14Z</time></trkpt><trkpt lat="40.91209552661607" lon="0.5155963500724985"><ele>25.0</ele><time>2026-05-03T15:03:15Z</time></trkpt><trkpt lat="40.91202217078154" lon="0.5154638160078445"><ele>25.0</ele><time>2026-05-03T15:03:16Z</time></trkpt><trkpt lat="40.911969783461466" lon="0.515344010946836"><ele>25.0</ele><time>2026-05-03T15:03:17Z</time></trkpt><trkpt lat="40.91193161275076" lon="0.5152342458540027"><ele>25.0</ele><time>2026-05-03T15:03:18Z</time></trkpt><trkpt lat="40.91189629945556" lon="0.5151341410912158"><ele>25.0</ele><time>2026-05-03T15:03:19Z</time></trkpt><trkpt lat="40.91187704304471" lon="0.5150349283547664"><ele>25.0</ele><time>2026-05-03T15:03:20Z</time></trkpt><trkpt lat="40.91187193936568" lon="0.5149401200200234"><ele>25.0</ele><time>2026-05-03T15:03:21Z</time></trkpt><trkpt lat="40.91186828668208" lon="0.5148478959198983"><ele>25.0</ele><time>2026-05-03T15:03:22Z</time></trkpt><trkpt lat="40.911858925799265" lon="0.5147637901669716"><ele>25.0</ele><time>2026-05-03T15:03:23Z</time></trkpt><trkpt lat="40.91180647374735" lon="0.5145595086492513"><ele>25.0</ele><time>2026-05-03T15:03:25Z</time></trkpt><trkpt lat="40.911762827298084" lon="0.5144105740314142"><ele>25.0</ele><time>2026-05-03T15:03:26Z</time></trkpt><trkpt lat="40.91171560341489" lon="0.5142958658262123"><ele>25.0</ele><time>2026-05-03T15:03:27Z</time></trkpt><trkpt lat="40.91167508927337" lon="0.5142046843981003"><ele>25.0</ele><time>2026-05-03T15:03:28Z</time></trkpt><trkpt lat="40.91165711574306" lon="0.5141091163051874"><ele>25.0</ele><time>2026-05-03T15:03:29Z</time></trkpt><trkpt lat="40.91171126316397" lon="0.5139446168431262"><ele>25.0</ele><time>2026-05-03T15:03:31Z</time></trkpt><trkpt lat="40.911754127825986" lon="0.5138616390051827"><ele>25.000000000000004</ele><time>2026-05-03T15:03:32Z</time></trkpt><trkpt lat="40.91177954024995" lon="0.5137838994617246"><ele>25.0</ele><time>2026-05-03T15:03:33Z</time></trkpt><trkpt lat="40.91179375317606" lon="0.5136970513616952"><ele>25.0</ele><time>2026-05-03T15:03:34Z</time></trkpt><trkpt lat="40.911805559305876" lon="0.5135806918728928"><ele>25.0</ele><time>2026-05-03T15:03:35Z</time></trkpt><trkpt lat="40.9118106886332" lon="0.5134924316875816"><ele>25.0</ele><time>2026-05-03T15:03:36Z</time></trkpt><trkpt lat="40.91183174403348" lon="0.5134083816163194"><ele>25.000000000000004</ele><time>2026-05-03T15:03:36.999Z</time></trkpt><trkpt lat="40.91185627888391" lon="0.5133309179549914"><ele>25.0</ele><time>2026-05-03T15:03:37.999Z</time></trkpt><trkpt lat="40.91190203682895" lon="0.5131920258474295"><ele>23.8</ele><time>2026-05-03T15:03:39.999Z</time></trkpt><trkpt lat="40.91197242079872" lon="0.5131145984323369"><ele>22.6</ele><time>2026-05-03T15:03:41.999Z</time></trkpt><trkpt lat="40.912041461914654" lon="0.5130807387462691"><ele>21.4</ele><time>2026-05-03T15:03:43.999Z</time></trkpt><trkpt lat="40.91207385734184" lon="0.5129841912068377"><ele>20.2</ele><time>2026-05-03T15:03:45.999Z</time></trkpt><trkpt lat="40.91204037895541" lon="0.5128577672906502"><ele>19.0</ele><time>2026-05-03T15:03:47.999Z</time></trkpt><trkpt lat="40.911980390041414" lon="0.5127035341332659"><ele>18.0</ele><time>2026-05-03T15:03:49.999Z</time></trkpt><trkpt lat="40.9119443455001" lon="0.5126039496394303"><ele>17.0</ele><time>2026-05-03T15:03:50.999Z</time></trkpt><trkpt lat="40.911917588939744" lon="0.5125111837940716"><ele>15.999999999999998</ele><time>2026-05-03T15:03:51.999Z</time></trkpt><trkpt lat="40.9118527148854" lon="0.51236230891892"><ele>15.0</ele><time>2026-05-03T15:03:53.999Z</time></trkpt><trkpt lat="40.91179582113322" lon="0.5122463205721144"><ele>14.0</ele><time>2026-05-03T15:03:55.999Z</time></trkpt><trkpt lat="40.91179303569892" lon="0.5121550484854206"><ele>14.0</ele><time>2026-05-03T15:03:57.999Z</time></trkpt><trkpt lat="40.91187500672139" lon="0.5120885170375683"><ele>14.0</ele><time>2026-05-03T15:03:59.999Z</time></trkpt><trkpt lat="40.91197208457752" lon="0.5120255204075136"><ele>14.0</ele><time>2026-05-03T15:04:00.999Z</time></trkpt><trkpt lat="40.91212569259017" lon="0.5119475150589213"><ele>14.0</ele><time>2026-05-03T15:04:01.999Z</time></trkpt><trkpt lat="40.91229539042945" lon="0.5118559546097652"><ele>13.333333333333334</ele><time>2026-05-03T15:04:02.999Z</time></trkpt><trkpt lat="40.91247585730351" lon="0.511744839904013"><ele>12.666666666666668</ele><time>2026-05-03T15:04:03.999Z</time></trkpt><trkpt lat="40.91264720786973" lon="0.5116638165006736"><ele>12.0</ele><time>2026-05-03T15:04:04.999Z</time></trkpt><trkpt lat="40.91282691015404" lon="0.5115944327410094"><ele>11.666666666666666</ele><time>2026-05-03T15:04:05.999Z</time></trkpt><trkpt lat="40.91300531663453" lon="0.5115248474957484"><ele>11.333333333333332</ele><time>2026-05-03T15:04:06.999Z</time></trkpt><trkpt lat="40.91315684953443" lon="0.5114556404001788"><ele>11.0</ele><time>2026-05-03T15:04:07.999Z</time></trkpt><trkpt lat="40.91329499290019" lon="0.5113921674567304"><ele>11.0</ele><time>2026-05-03T15:04:08.999Z</time></trkpt><trkpt lat="40.91341614588197" lon="0.5113471004168321"><ele>11.0</ele><time>2026-05-03T15:04:09.999Z</time></trkpt><trkpt lat="40.91351531293077" lon="0.5113038618411551"><ele>11.0</ele><time>2026-05-03T15:04:10.999Z</time></trkpt><trkpt lat="40.91360041406308" lon="0.5112623898969003"><ele>11.0</ele><time>2026-05-03T15:04:11.999Z</time></trkpt><trkpt lat="40.91366822115092" lon="0.5112160663367856"><ele>11.0</ele><time>2026-05-03T15:04:12.999Z</time></trkpt><trkpt lat="40.91376906214815" lon="0.5111687144805136"><ele>11.200000000000001</ele><time>2026-05-03T15:04:14.999Z</time></trkpt><trkpt lat="40.91387504134863" lon="0.5112691618097602"><ele>11.4</ele><time>2026-05-03T15:04:17.999Z</time></trkpt><trkpt lat="40.91389127456569" lon="0.5113638044072943"><ele>11.6</ele><time>2026-05-03T15:04:18.999Z</time></trkpt><trkpt lat="40.91391156628608" lon="0.5114894753035999"><ele>11.8</ele><time>2026-05-03T15:04:19.999Z</time></trkpt><trkpt lat="40.91390464820621" lon="0.5116228848272037"><ele>12.0</ele><time>2026-05-03T15:04:21Z</time></trkpt><trkpt lat="40.91390409214759" lon="0.5117784941829367"><ele>12.0</ele><time>2026-05-03T15:04:22Z</time></trkpt><trkpt lat="40.913952025816855" lon="0.5119346412117391"><ele>12.0</ele><time>2026-05-03T15:04:24Z</time></trkpt><trkpt lat="40.91398334093976" lon="0.5120621430689273"><ele>12.0</ele><time>2026-05-03T15:04:26Z</time></trkpt><trkpt lat="40.91400791942454" lon="0.5121658895185663"><ele>12.0</ele><time>2026-05-03T15:04:28Z</time></trkpt><trkpt lat="40.914145921582424" lon="0.512261257055494"><ele>13.666666666666666</ele><time>2026-05-03T15:04:30Z</time></trkpt><trkpt lat="40.91422274750577" lon="0.5123387819294698"><ele>15.333333333333332</ele><time>2026-05-03T15:04:31Z</time></trkpt><trkpt lat="40.91431691370329" lon="0.5124122737875964"><ele>17.0</ele><time>2026-05-03T15:04:32Z</time></trkpt><trkpt lat="40.91440039847867" lon="0.5124628602687002"><ele>18.666666666666664</ele><time>2026-05-03T15:04:33Z</time></trkpt><trkpt lat="40.91444882931791" lon="0.5125185040481168"><ele>20.333333333333332</ele><time>2026-05-03T15:04:34Z</time></trkpt><trkpt lat="40.91451066314177" lon="0.5125637545111518"><ele>22.0</ele><time>2026-05-03T15:04:35Z</time></trkpt><trkpt lat="40.91459394473977" lon="0.5126059640754171"><ele>30.0</ele><time>2026-05-03T15:04:37Z</time></trkpt><trkpt lat="40.91465099754584" lon="0.5126706102627989"><ele>30.0</ele><time>2026-05-03T15:04:40Z</time></trkpt><trkpt lat="40.91471902929488" lon="0.5127077923721775"><ele>30.0</ele><time>2026-05-03T15:04:50Z</time></trkpt><trkpt lat="40.91469297040757" lon="0.5126099655485402"><ele>30.0</ele><time>2026-05-03T15:05:20Z</time></trkpt><trkpt lat="40.91466374717846" lon="0.5125028941917841"><ele>30.0</ele><time>2026-05-03T15:05:25Z</time></trkpt><trkpt lat="40.9146355490965" lon="0.5124238368392767"><ele>30.0</ele><time>2026-05-03T15:05:26Z</time></trkpt><trkpt lat="40.914668199386355" lon="0.5125015911243985"><ele>30.0</ele><time>2026-05-03T15:05:38Z</time></trkpt></trkseg></trk></gpx>